[[{"header":{"parameterUnit":"m.s-1","parameterCategory":1,"la1":31.0,"la2":29.5877,"lo1":-88.7671,"lo2":-86.6584,"dy":0.0162,"dx":0.0185,"nx":115,"ny":88,"refTime":"2023-11-17T18:00:00:Z","depth":0,"parameterNumber":2,"parameterNumberName":"U-component_of_WINDS"},"data":[0.0,0.0,0.0,0.0,0.0,0.0,0.0,0.0,0.0,0.0,0.0,0.0,0.0,0.0,0.0,0.0,0.0,0.0,0.0,0.0,0.0,0.0,0.0,0.0,0.0,0.0,0.0,0.0,0.0,0.0,0.0,0.0,0.0,0.0,0.0,0.0,0.0,0.0,0.0,0.0,0.0,0.0,0.0,0.0,0.0,0.0,0.0,0.0,0.0,0.0,0.0,0.0,0.0,0.0,0.0,0.0,0.0,0.0,0.0,0.0,0.0,0.0,0.0,0.0,0.0,0.0,0.0,0.0,0.0,0.0,0.0,0.0,0.0,0.0,0.0,0.0,0.0,0.0,0.0,0.0,0.0,0.0,0.0,0.0,0.0,0.0,0.0,0.0,0.0,0.0,0.0,0.0,0.0,0.0,0.0,0.0,0.0,0.0,0.0,0.0,0.0,0.0,0.0,0.0,0.0,0.0,0.0,0.0,0.0,0.0,0.0,0.0,0.0,0.0,0.0,0.0,0.0,0.0,0.0,0.0,0.0,0.0,0.0,0.0,0.0,0.0,0.0,0.0,0.0,0.0,0.0,0.0,0.0,0.0,0.0,0.0,0.0,0.0,0.0,0.0,0.0,0.0,0.0,0.0,0.0,0.0,0.0,0.0,0.0,0.0,0.0,0.0,0.0,0.0,0.0,0.0,0.0,0.0,0.0,0.0,0.0,0.0,0.0,0.0,0.0,0.0,0.0,0.0,0.0,0.0,0.0,0.0,0.0,0.0,0.0,0.0,0.0,0.0,0.0,0.0,0.0,0.0,0.0,0.0,0.0,0.0,0.0,0.0,0.0,0.0,0.0,0.0,0.0,0.0,0.0,0.0,0.0,0.0,0.0,0.0,0.0,0.0,0.0,0.0,0.0,0.0,0.0,0.0,0.0,0.0,0.0,0.0,0.0,0.0,0.0,0.0,0.0,0.0,0.0,0.0,0.0,0.0,0.0,0.0,0.0,0.0,0.0,0.0,0.0,0.0,0.0,0.0,0.0,0.0,0.0,0.0,0.0,0.0,0.0,0.0,0.0,0.0,0.0,0.0,0.0,0.0,0.0,0.0,0.0,0.0,0.0,0.0,0.0,0.0,0.0,0.0,0.0,0.0,0.0,0.0,0.0,0.0,0.0,0.0,0.0,0.0,0.0,0.0,0.0,0.0,0.0,0.0,0.0,0.0,0.0,0.0,0.0,0.0,0.0,0.0,0.0,0.0,0.0,0.0,0.0,0.0,0.0,0.0,0.0,0.0,0.0,0.0,0.0,0.0,0.0,0.0,0.0,0.0,0.0,0.0,0.0,0.0,0.0,0.0,0.0,0.0,0.0,0.0,0.0,0.0,0.0,0.0,0.0,0.0,0.0,0.0,0.0,0.0,0.0,0.0,0.0,0.0,0.0,0.0,0.0,0.0,0.0,0.0,0.0,0.0,0.0,0.0,0.0,0.0,0.0,0.0,0.0,0.0,0.0,0.0,0.0,0.0,0.0,0.0,0.0,0.0,0.0,0.0,0.0,0.0,0.0,0.0,0.0,0.0,0.0,0.0,0.0,0.0,0.0,0.0,0.0,0.0,0.0,0.0,0.0,0.0,0.0,0.0,0.0,0.0,0.0,0.0,0.0,0.0,0.0,0.0,0.0,0.0,0.0,0.0,0.0,0.0,0.0,0.0,0.0,0.0,0.0,0.0,0.0,0.0,0.0,0.0,0.0,0.0,0.0,0.0,0.0,0.0,0.0,0.0,0.0,0.0,0.0,0.0,0.0,0.0,0.0,0.0,0.0,0.0,0.0,0.0,0.0,0.0,0.0,0.0,0.0,0.0,0.0,0.0,0.0,0.0,0.0,0.0,0.0,0.0,0.0,0.0,0.0,0.0,0.0,0.0,0.0,0.0,0.0,0.0,0.0,0.0,0.0,0.0,0.0,0.0,0.0,0.0,0.0,0.0,0.0,0.0,0.0,0.0,0.0,0.0,0.0,0.0,0.0,0.0,0.0,0.0,0.0,0.0,0.0,0.0,0.0,0.0,0.0,0.0,0.0,0.0,0.0,0.0,0.0,0.0,0.0,0.0,0.0,0.0,0.0,0.0,0.0,0.0,0.0,0.0,0.0,0.0,0.0,0.0,0.0,0.0,0.0,0.0,0.0,0.0,0.0,0.0,0.0,0.0,0.0,0.0,0.0,0.0,0.0,0.0,0.0,0.0,0.0,0.0,0.0,0.0,0.0,0.0,0.0,0.0,0.0,0.0,0.0,0.0,0.0,0.0,0.0,0.0,0.0,0.0,0.0,0.0,0.0,0.0,0.0,0.0,0.0,0.0,0.0,0.0,0.0,0.0,0.0,0.0,0.0,0.0,0.0,0.0,0.0,0.0,0.0,0.0,0.0,0.0,0.0,0.0,0.0,0.0,0.0,0.0,0.0,0.0,0.0,0.0,0.0,0.0,0.0,0.0,0.0,0.0,0.0,0.0,0.0,0.0,0.0,0.0,0.0,0.0,0.0,0.0,0.0,0.0,0.0,0.0,0.0,0.0,0.0,0.0,0.0,0.0,0.0,0.0,0.0,0.0,0.0,0.0,0.0,0.0,0.0,0.0,0.0,0.0,0.0,0.0,0.0,0.0,0.0,0.0,0.0,0.0,0.0,0.0,0.0,0.0,0.0,0.0,0.0,0.0,0.0,0.0,0.0,0.0,0.0,0.0,0.0,0.0,0.0,0.0,0.0,0.0,0.0,0.0,0.0,0.0,0.0,0.0,0.0,0.0,0.0,0.0,0.0,0.0,0.0,0.0,0.0,0.0,0.0,0.0,0.0,0.0,0.0,0.0,0.0,0.0,0.0,0.0,0.0,0.0,0.0,0.0,0.0,0.0,0.0,0.0,0.0,0.0,0.0,0.0,0.0,0.0,0.0,0.0,0.0,0.0,0.0,0.0,0.0,0.0,0.0,0.0,0.0,0.0,0.0,0.0,0.0,0.0,0.0,0.0,0.0,0.0,0.0,0.0,0.0,0.0,0.0,0.0,0.0,0.0,0.0,0.0,0.0,0.0,0.0,0.0,0.0,0.0,0.0,0.0,0.0,0.0,0.0,0.0,0.0,0.0,0.0,0.0,0.0,0.0,0.0,0.0,0.0,0.0,0.0,0.0,0.0,0.0,0.0,0.0,0.0,0.0,0.0,0.0,0.0,0.0,0.0,0.0,0.0,0.0,0.0,0.0,0.0,0.0,0.0,0.0,0.0,0.0,0.0,0.0,0.0,0.0,0.0,0.0,0.0,0.0,0.0,0.0,0.0,0.0,0.0,0.0,0.0,0.0,0.0,0.0,0.0,0.0,0.0,0.0,0.0,0.0,0.0,0.0,0.0,0.0,0.0,0.0,0.0,0.0,0.0,0.0,0.0,0.0,0.0,0.0,0.0,0.0,0.0,0.0,0.0,0.0,0.0,0.0,0.0,0.0,0.0,0.0,0.0,0.0,0.0,0.0,0.0,0.0,0.0,0.0,0.0,0.0,0.0,0.0,0.0,0.0,0.0,0.0,0.0,0.0,0.0,0.0,0.0,0.0,0.0,0.0,0.0,0.0,0.0,0.0,0.0,0.0,0.0,0.0,0.0,0.0,0.0,0.0,0.0,0.0,0.0,0.0,0.0,0.0,0.0,0.0,0.0,0.0,0.0,0.0,0.0,0.0,0.0,0.0,0.0,0.0,0.0,0.0,0.0,0.0,0.0,0.0,0.0,0.0,0.0,0.0,0.0,0.0,0.0,0.0,0.0,0.0,0.0,0.0,0.0,0.0,0.0,0.0,0.0,0.0,0.0,0.0,0.0,0.0,0.0,0.0,0.0,0.0,0.0,0.0,0.0,0.0,0.0,0.0,0.0,0.0,0.0,0.0,0.0,0.0,0.0,0.0,0.0,0.0,0.0,0.0,0.0,0.0,0.0,0.0,0.0,0.0,0.0,0.0,0.0,0.0,0.0,0.0,0.0,0.0,0.0,0.0,0.0,0.0,0.0,0.0,0.0,0.0,0.0,0.0,0.0,0.0,0.0,0.0,0.0,0.0,0.0,0.0,0.0,0.0,0.0,0.0,0.0,0.0,0.0,0.0,0.0,0.0,0.0,0.0,0.0,0.0,0.0,0.0,0.0,0.0,0.0,0.0,0.0,0.0,0.0,0.0,0.0,0.0,0.0,0.0,0.0,0.0,0.0,0.0,0.0,0.0,0.0,0.0,0.0,0.0,0.0,0.0,0.0,0.0,1.7051,0.0,0.0,0.0,0.0,0.0,0.0,0.0,0.0,0.0,0.0,0.0,0.0,0.0,0.0,0.0,0.0,0.0,0.0,0.0,0.0,0.0,0.0,0.0,0.0,0.0,0.0,0.0,0.0,0.0,0.0,0.0,0.0,0.0,0.0,0.0,0.0,0.0,0.0,0.0,0.0,0.0,0.0,0.0,0.0,0.0,0.0,0.0,0.0,0.0,0.0,0.0,0.0,0.0,0.0,0.0,0.0,0.0,0.0,0.0,0.0,0.0,0.0,0.0,0.0,0.0,0.0,0.0,0.0,0.0,0.0,0.0,0.0,0.0,0.0,0.0,0.0,0.0,0.0,0.0,0.0,0.0,0.0,0.0,0.0,0.0,0.0,0.0,0.0,0.0,0.0,0.0,0.0,0.0,0.0,0.0,0.0,0.0,0.0,0.0,0.0,0.0,0.0,0.0,0.0,0.0,0.0,0.0,0.0,0.0,0.0,1.8147,1.9048,1.8724,1.8031,1.6908,0.0,0.0,0.0,0.0,0.0,0.0,0.0,0.0,0.0,0.0,0.0,0.0,0.0,0.0,0.0,0.0,0.0,0.0,0.0,0.0,0.0,0.0,0.0,0.0,0.0,0.0,0.0,0.0,0.0,0.0,0.0,0.0,0.0,0.0,0.0,0.0,0.0,0.0,0.0,0.0,0.0,0.0,0.0,0.0,0.0,0.0,0.0,0.0,0.0,0.0,0.0,0.0,0.0,0.0,0.0,0.0,0.0,0.0,0.0,0.0,0.0,0.0,0.0,0.0,0.0,0.0,0.0,0.0,0.0,0.0,0.0,0.0,0.0,0.0,0.0,0.0,0.0,0.0,0.0,0.0,0.0,0.0,0.0,0.0,0.0,0.0,0.0,0.0,0.0,0.0,0.0,0.0,0.0,0.0,0.0,0.0,0.0,0.0,0.0,0.0,0.0,0.0,0.0,0.0,0.0,0.0,0.0,0.0,0.0,0.0,0.0,0.0,1.857,1.7811,1.6835,0.0,0.0,0.0,0.0,0.0,0.0,0.0,0.0,0.0,0.0,0.0,0.0,0.0,0.0,0.0,0.0,0.0,0.0,0.0,0.0,0.0,0.0,0.0,0.0,0.0,0.0,0.0,0.0,0.0,0.0,0.0,0.0,0.0,0.0,0.0,0.0,0.0,0.0,0.0,0.0,0.0,0.0,0.0,0.0,0.0,0.0,0.0,0.0,0.0,0.0,0.0,0.0,0.0,0.0,0.0,0.0,0.0,0.0,0.0,0.0,0.0,0.0,0.0,0.0,0.0,0.0,0.0,0.0,0.0,0.0,0.0,0.0,0.0,0.0,0.0,0.0,0.0,0.0,0.0,0.0,0.0,0.0,0.0,0.0,0.0,0.0,0.0,0.0,0.0,0.0,0.0,0.0,0.0,0.0,0.0,0.0,0.0,0.0,0.0,0.0,0.0,0.0,0.0,0.0,0.0,0.0,0.0,0.0,0.0,0.0,1.8039,1.9051,1.9081,0.0,1.6958,0.0,0.0,0.0,0.0,0.0,0.0,0.0,0.0,0.0,0.0,0.0,0.0,0.0,0.0,0.0,0.0,0.0,0.0,0.0,0.0,0.0,0.0,0.0,0.0,0.0,0.0,0.0,0.0,0.0,0.0,0.0,0.0,0.0,0.0,0.0,0.0,0.0,0.0,0.0,0.0,0.0,0.0,0.0,0.0,0.0,0.0,0.0,0.0,0.0,0.0,0.0,0.0,0.0,0.0,0.0,0.0,0.0,0.0,0.0,0.0,0.0,0.0,0.0,0.0,0.0,0.0,0.0,0.0,0.0,0.0,0.0,0.0,0.0,0.0,0.0,0.0,0.0,0.0,0.0,0.0,0.0,0.0,0.0,0.0,0.0,0.0,0.0,0.0,0.0,0.0,0.0,0.0,0.0,0.0,0.0,0.0,0.0,0.0,0.0,0.0,0.0,0.0,0.0,0.0,0.0,0.0,0.0,0.0,0.0,0.0,1.8149,1.9104,1.8715,1.8009,0.0,0.0,0.0,0.0,0.0,0.0,0.0,0.0,0.0,0.0,0.0,0.0,0.0,0.0,0.0,0.0,0.0,0.0,0.0,0.0,0.0,0.0,0.0,0.0,0.0,0.0,0.0,0.0,0.0,0.0,0.0,0.0,0.0,0.0,0.0,0.0,0.0,0.0,0.0,0.0,0.0,0.0,0.0,0.0,0.0,0.0,0.0,0.0,0.0,0.0,0.0,0.0,0.0,0.0,0.0,0.0,0.0,0.0,0.0,0.0,0.0,0.0,0.0,0.0,0.0,0.0,0.0,0.0,0.0,0.0,0.0,0.0,0.0,0.0,0.0,0.0,0.0,0.0,0.0,0.0,0.0,0.0,0.0,0.0,0.0,0.0,0.0,0.0,0.0,0.0,0.0,0.0,0.0,0.0,0.0,0.0,0.0,0.0,0.0,0.0,0.0,0.0,0.0,0.0,0.0,0.0,0.0,0.0,0.0,0.0,1.7531,1.8407,1.8981,1.8372,1.7599,1.6826,0.0,0.0,0.0,0.0,0.0,0.0,0.0,0.0,0.0,0.0,0.0,0.0,0.0,0.0,0.0,0.0,0.0,0.0,0.0,0.0,0.0,0.0,0.0,0.0,0.0,0.0,0.0,0.0,0.0,0.0,0.0,0.0,0.0,0.0,0.0,0.0,0.0,0.0,0.0,0.0,0.0,0.0,0.0,0.0,0.0,0.0,0.0,0.0,0.0,0.0,0.0,0.0,0.0,0.0,0.0,0.0,0.0,0.0,0.0,0.0,0.0,0.0,0.0,0.0,0.0,0.0,0.0,0.0,0.0,0.0,0.0,0.0,0.0,0.0,0.0,0.0,0.0,0.0,0.0,0.0,0.0,0.0,0.0,0.0,0.0,0.0,0.0,0.0,0.0,0.0,0.0,0.0,0.0,0.0,0.0,0.0,0.0,0.0,0.0,0.0,0.0,0.0,0.0,0.0,0.0,0.0,0.0,0.0,1.637,1.7984,1.886,1.8895,1.8258,1.7511,0.0,0.0,0.0,0.0,0.0,0.0,0.0,0.0,0.0,0.0,0.0,0.0,0.0,0.0,0.0,0.0,0.0,0.0,0.0,0.0,0.0,0.0,0.0,0.0,0.0,0.0,0.0,0.0,0.0,0.0,0.0,0.0,0.0,0.0,0.0,0.0,0.0,0.0,0.0,0.0,0.0,0.0,0.0,0.0,0.0,0.0,0.0,0.0,0.0,0.0,0.0,0.0,0.0,0.0,0.0,0.0,0.0,0.0,0.0,0.0,0.0,0.0,0.0,0.0,0.0,0.0,0.0,0.0,0.0,0.0,0.0,0.0,0.0,0.0,0.0,0.0,0.0,0.0,0.0,0.0,0.0,0.0,0.0,0.0,0.0,0.0,0.0,0.0,0.0,0.0,0.0,0.0,0.0,0.0,0.0,0.0,0.0,0.0,0.0,0.0,0.0,0.0,0.0,0.0,0.0,0.0,0.0,0.0,0.0,1.7134,1.8288,1.8895,1.886,1.8208,1.7435,0.0,0.0,0.0,0.0,0.0,0.0,0.0,0.0,0.0,0.0,0.0,0.0,0.0,0.0,0.0,0.0,0.0,0.0,0.0,0.0,0.0,0.0,0.0,0.0,0.0,0.0,0.0,0.0,0.0,0.0,0.0,0.0,0.0,0.0,0.0,0.0,0.0,0.0,0.0,0.0,0.0,0.0,0.0,0.0,0.0,0.0,0.0,0.0,0.0,0.0,0.0,0.0,0.0,0.0,0.0,0.0,0.0,0.0,0.0,0.0,0.0,0.0,0.0,0.0,0.0,0.0,0.0,0.0,0.0,0.0,0.0,0.0,0.0,0.0,0.0,0.0,0.0,0.0,0.0,0.0,0.0,0.0,0.0,0.0,0.0,0.0,0.0,0.0,0.0,0.0,0.0,0.0,0.0,0.0,0.0,0.0,0.0,0.0,0.0,0.0,0.0,0.0,0.0,0.0,0.0,0.0,0.0,0.0,0.0,1.7896,0.0,1.8825,0.0,1.7824,1.7004,0.0,0.0,0.0,0.0,0.0,0.0,0.0,0.0,0.0,0.0,0.0,0.0,0.0,0.0,0.0,0.0,0.0,0.0,0.0,0.0,0.0,0.0,0.0,0.0,0.0,0.0,0.0,0.0,0.0,0.0,0.0,0.0,0.0,0.0,0.0,0.0,0.0,0.0,0.0,0.0,0.0,0.0,0.0,0.0,0.0,0.0,0.0,0.0,0.0,0.0,0.0,0.0,0.0,0.0,0.0,0.0,0.0,0.0,0.0,0.0,0.0,0.0,0.0,0.0,0.0,0.0,0.0,0.0,0.0,0.0,0.0,0.0,0.0,0.0,0.0,0.0,0.0,0.0,0.0,0.0,0.0,0.0,0.0,0.0,0.0,0.0,0.0,0.0,0.0,0.0,0.0,0.0,0.0,0.0,0.0,0.0,0.0,0.0,0.0,0.0,0.0,0.0,0.0,0.0,0.0,0.0,0.0,0.0,1.7638,1.8563,1.8677,1.8677,1.8561,1.7135,1.622,0.0,0.0,0.0,0.0,0.0,0.0,0.0,0.0,0.0,0.0,0.0,0.0,0.0,0.0,0.0,0.0,0.0,0.0,0.0,0.0,0.0,0.0,0.0,0.0,0.0,0.0,0.0,0.0,0.0,0.0,0.0,0.0,0.0,0.0,0.0,0.0,0.0,0.0,0.0,0.0,0.0,0.0,0.0,0.0,0.0,0.0,0.0,0.0,0.0,0.0,0.0,0.0,0.0,0.0,0.0,0.0,0.0,0.0,0.0,0.0,0.0,0.0,0.0,0.0,0.0,0.0,0.0,0.0,0.0,0.0,0.0,0.0,0.0,0.0,0.0,0.0,0.0,0.0,0.0,0.0,0.0,0.0,0.0,0.0,0.0,0.0,0.0,0.0,0.0,0.0,0.0,0.0,0.0,0.0,0.0,0.0,0.0,0.0,0.0,0.0,0.0,0.0,0.0,0.0,0.0,0.0,0.0,0.0,0.0,1.8561,1.8617,1.8561,1.8336,1.6847,1.592,0.0,0.0,0.0,0.0,0.0,0.0,0.0,0.0,0.0,0.0,0.0,0.0,0.0,0.0,0.0,0.0,0.0,0.0,0.0,0.0,0.0,0.0,0.0,0.0,0.0,0.0,0.0,0.0,0.0,0.0,0.0,0.0,0.0,0.0,0.0,0.0,0.0,0.0,0.0,0.0,0.0,0.0,0.0,0.0,0.0,0.0,0.0,0.0,0.0,0.0,0.0,0.0,0.0,0.0,0.0,0.0,0.0,0.0,0.0,0.0,0.0,0.0,0.0,0.0,0.0,0.0,0.0,0.0,0.0,0.0,0.0,0.0,0.0,0.0,0.0,0.0,0.0,0.0,0.0,0.0,0.0,0.0,0.0,0.0,0.0,0.0,0.0,0.0,0.0,0.0,0.0,0.0,0.0,0.0,0.0,0.0,0.0,0.0,0.0,0.0,0.0,0.0,0.0,0.0,0.0,0.0,0.0,0.0,0.0,1.9065,1.8878,1.8658,1.8491,1.7126,1.6025,1.5288,0.0,0.0,0.0,0.0,0.0,0.0,0.0,0.0,0.0,0.0,0.0,0.0,0.0,0.0,0.0,0.0,0.0,0.0,0.0,0.0,0.0,0.0,0.0,0.0,0.0,0.0,0.0,0.0,0.0,0.0,0.0,0.0,0.0,0.0,0.0,0.0,0.0,0.0,0.0,0.0,0.0,0.0,0.0,0.0,0.0,0.0,0.0,0.0,0.0,0.0,0.0,0.0,0.0,0.0,0.0,0.0,0.0,0.0,0.0,0.0,0.0,0.0,0.0,0.0,0.0,0.0,0.0,0.0,0.0,0.0,0.0,0.0,0.0,0.0,0.0,0.0,0.0,0.0,0.0,0.0,0.0,0.0,0.0,0.0,0.0,0.0,0.0,0.0,0.0,0.0,0.0,0.0,0.0,0.0,0.0,0.0,0.0,0.0,0.0,0.0,0.0,0.0,0.0,0.0,0.0,0.0,0.0,0.0,1.9934,1.9391,1.9056,1.8842,1.774,1.6473,0.0,0.0,0.0,0.0,0.0,0.0,0.0,0.0,0.0,0.0,0.0,0.0,0.0,0.0,0.0,0.0,0.0,0.0,0.0,0.0,0.0,0.0,0.0,0.0,0.0,0.0,0.0,0.0,0.0,0.0,0.0,0.0,0.0,0.0,0.0,0.0,0.0,0.0,0.0,0.0,0.0,0.0,0.0,0.0,0.0,0.0,0.0,0.0,0.0,0.0,0.0,0.0,0.0,0.0,0.0,0.0,0.0,0.0,0.0,0.0,0.0,0.0,0.0,0.0,0.0,0.0,0.0,0.0,0.0,0.0,0.0,0.0,0.0,0.0,0.0,0.0,0.0,0.0,0.0,0.0,0.0,0.0,0.0,0.0,0.0,0.0,0.0,0.0,0.0,0.0,0.0,0.0,0.0,0.0,0.0,0.0,0.0,0.0,0.0,0.0,0.0,0.0,0.0,0.0,0.0,0.0,0.0,0.0,0.0,1.9545,2.0069,2.0102,1.958,1.7845,1.6521,0.0,0.0,0.0,0.0,0.0,0.0,0.0,0.0,0.0,0.0,0.0,0.0,0.0,0.0,0.0,0.0,0.0,0.0,0.0,0.0,0.0,0.0,0.0,0.0,0.0,0.0,0.0,0.0,0.0,0.0,0.0,0.0,0.0,0.0,0.0,0.0,0.0,0.0,0.0,0.0,0.0,0.0,0.0,0.0,0.0,0.0,0.0,0.0,0.0,0.0,0.0,0.0,0.0,0.0,0.0,0.0,0.0,0.0,0.0,0.0,0.0,0.0,0.0,0.0,0.0,0.0,0.0,0.0,0.0,0.0,0.0,0.0,0.0,0.0,0.0,0.0,0.0,0.0,0.0,0.0,0.0,0.0,0.0,0.0,0.0,0.0,0.0,0.0,0.0,0.0,0.0,0.0,0.0,0.0,0.0,0.0,0.0,0.0,0.0,0.0,0.0,0.0,0.0,0.0,0.0,0.0,0.0,0.0,1.8562,1.9457,2.0001,2.0196,1.994,1.8176,1.6774,0.0,0.0,0.0,0.0,0.0,0.0,0.0,0.0,0.0,0.0,0.0,0.0,0.0,0.0,0.0,0.0,0.0,0.0,0.0,0.0,0.0,0.0,0.0,0.0,0.0,0.0,0.0,0.0,0.0,0.0,0.0,0.0,0.0,0.0,0.0,0.0,0.0,0.0,0.0,0.0,0.0,0.0,0.0,0.0,0.0,0.0,0.0,0.0,0.0,0.0,0.0,0.0,0.0,0.0,0.0,0.0,0.0,0.0,0.0,0.0,0.0,0.0,0.0,0.0,0.0,0.0,0.0,0.0,0.0,0.0,0.0,0.0,0.0,0.0,0.0,0.0,0.0,0.0,0.0,0.0,0.0,0.0,0.0,0.0,0.0,0.0,0.0,0.0,0.0,0.0,0.0,0.0,0.0,0.0,0.0,0.0,0.0,0.0,0.0,0.0,0.0,0.0,0.0,0.0,0.0,0.0,0.0,0.0,1.82,1.9343,1.9435,1.9501,1.9623,1.8396,1.7003,0.0,0.0,0.0,0.0,0.0,0.0,0.0,0.0,0.0,0.0,0.0,0.0,0.0,0.0,0.0,0.0,0.0,0.0,0.0,0.0,0.0,0.0,0.0,0.0,0.0,0.0,0.0,0.0,0.0,0.0,0.0,0.0,0.0,0.0,0.0,0.0,0.0,0.0,0.0,0.0,0.0,0.0,0.0,0.0,0.0,0.0,0.0,0.0,0.0,0.0,0.0,0.0,0.0,0.0,0.0,0.0,0.0,0.0,0.0,0.0,0.0,0.0,0.0,0.0,0.0,0.0,0.0,0.0,0.0,0.0,0.0,0.0,0.0,0.0,0.0,0.0,0.0,0.0,0.0,0.0,0.0,0.0,0.0,0.0,0.0,0.0,0.0,0.0,0.0,0.0,0.0,0.0,0.0,0.0,0.0,0.0,0.0,0.0,0.0,0.0,0.0,0.0,0.0,0.0,0.0,0.0,0.0,0.0,1.8241,1.7897,1.8324,1.8208,1.7411,1.7086,1.6604,0.0,0.0,0.0,0.0,0.0,0.0,0.0,0.0,0.0,0.0,0.0,0.0,0.0,0.0,0.0,0.0,0.0,0.0,0.0,0.0,0.0,0.0,0.0,0.0,0.0,0.0,0.0,0.0,0.0,0.0,0.0,0.0,0.0,0.0,0.0,0.0,0.0,0.0,0.0,0.0,0.0,0.0,0.0,0.0,0.0,0.0,0.0,0.0,2.2703,0.0,0.0,0.0,0.0,0.0,0.0,0.0,0.0,0.0,0.0,0.0,0.0,0.0,0.0,0.0,0.0,0.0,0.0,0.0,0.0,0.0,0.0,0.0,0.0,0.0,0.0,0.0,0.0,0.0,0.0,0.0,0.0,0.0,0.0,0.0,0.0,0.0,0.0,0.0,0.0,0.0,0.0,0.0,0.0,0.0,0.0,0.0,0.0,0.0,0.0,0.0,0.0,0.0,0.0,0.0,0.0,0.0,0.0,0.0,1.6949,1.6453,1.6617,1.6283,1.5556,1.5003,1.4935,0.0,0.0,0.0,0.0,0.0,0.0,0.0,0.0,0.0,0.0,0.0,0.0,0.0,0.0,0.0,0.0,0.0,0.0,0.0,0.0,0.0,0.0,0.0,0.0,0.0,0.0,0.0,0.0,0.0,0.0,0.0,0.0,0.0,0.0,0.0,0.0,0.0,0.0,0.0,0.0,0.0,0.0,0.0,0.0,0.0,0.0,0.0,0.0,0.0,0.0,0.0,0.0,0.0,0.0,0.0,0.0,0.0,0.0,0.0,0.0,0.0,0.0,0.0,0.0,0.0,0.0,0.0,0.0,0.0,0.0,0.0,0.0,0.0,0.0,0.0,0.0,0.0,0.0,0.0,0.0,0.0,0.0,0.0,0.0,0.0,0.0,0.0,0.0,0.0,0.0,0.0,0.0,0.0,0.0,0.0,0.0,0.0,0.0,0.0,0.0,0.0,0.0,0.0,0.0,0.0,0.0,0.0,1.5421,1.5117,1.4988,1.455,1.4138,1.3745,1.2659,1.2625,1.3741,0.0,0.0,0.0,0.0,0.0,0.0,0.0,0.0,0.0,0.0,0.0,0.0,0.0,0.0,0.0,0.0,0.0,0.0,0.0,0.0,0.0,0.0,0.0,0.0,0.0,0.0,0.0,0.0,0.0,0.0,0.0,0.0,0.0,0.0,0.0,0.0,0.0,0.0,2.1273,2.3289,0.0,0.0,0.0,0.0,0.0,0.0,0.0,0.0,2.3896,0.0,0.0,0.0,0.0,0.0,0.0,0.0,0.0,0.0,0.0,0.0,0.0,0.0,0.0,0.0,0.0,0.0,0.0,0.0,0.0,0.0,0.0,0.0,0.0,0.0,0.0,0.0,0.0,0.0,0.0,0.0,0.0,0.0,0.0,0.0,0.0,0.0,0.0,0.0,0.0,0.0,0.0,0.0,0.0,0.0,0.0,0.0,0.0,0.0,0.0,0.0,0.0,0.0,0.0,0.0,0.0,1.5012,1.4098,1.3521,1.3219,1.2525,1.2045,1.1844,1.0785,1.0408,1.0724,0.0,0.0,0.0,0.0,0.0,0.0,0.0,0.0,0.0,0.0,0.0,0.0,0.0,0.0,0.0,0.0,0.0,0.0,0.0,0.0,0.0,0.0,0.0,0.0,0.0,0.0,0.0,0.0,0.0,0.0,0.0,0.0,0.0,0.0,0.0,0.0,0.0,0.0,0.0,2.4058,2.466,0.0,0.0,0.0,0.0,0.0,0.0,0.0,0.0,2.3732,0.0,0.0,0.0,0.0,0.0,0.0,0.0,0.0,0.0,0.0,0.0,0.0,0.0,0.0,0.0,0.0,0.0,0.0,0.0,0.0,0.0,0.0,0.0,0.0,0.0,0.0,0.0,0.0,0.0,0.0,0.0,0.0,0.0,0.0,0.0,0.0,0.0,0.0,0.0,0.0,0.0,0.0,0.0,0.0,0.0,0.0,0.0,0.0,0.0,0.0,0.0,0.0,0.0,0.0,0.0,1.3591,1.2658,1.197,1.1506,1.0835,1.0428,1.0307,0.952,0.9062,0.0,0.0,0.0,0.0,0.0,0.0,0.0,0.0,0.0,0.0,0.0,0.0,0.0,0.0,0.0,0.0,0.0,0.0,0.0,0.0,0.0,0.0,0.0,0.0,0.0,0.0,0.0,0.0,0.0,0.0,0.0,0.0,0.0,0.0,0.0,0.0,0.0,0.0,0.0,0.0,2.4723,2.5084,2.5948,0.0,0.0,0.0,0.0,0.0,0.0,2.426,2.4023,0.0,0.0,0.0,0.0,0.0,0.0,0.0,0.0,0.0,0.0,0.0,0.0,0.0,0.0,0.0,0.0,0.0,0.0,0.0,0.0,0.0,0.0,0.0,0.0,0.0,0.0,0.0,0.0,0.0,0.0,0.0,0.0,0.0,0.0,0.0,0.0,0.0,0.0,0.0,0.0,0.0,0.0,0.0,0.0,0.0,0.0,0.0,0.0,0.0,0.0,0.0,0.0,0.0,0.0,0.0,1.1948,1.0975,1.0225,0.9683,0.9215,0.8956,0.891,0.844,0.8079,0.0,0.0,0.0,0.0,0.0,0.0,0.0,0.0,0.0,0.0,0.0,0.0,0.0,0.0,0.0,0.0,0.0,0.0,0.0,0.0,0.0,0.0,0.0,0.0,0.0,0.0,0.0,0.0,0.0,0.0,0.0,0.0,0.0,0.0,0.0,0.0,0.0,0.0,0.0,0.0,0.0,2.5438,2.637,2.6487,0.0,0.0,0.0,0.0,2.524,2.4706,0.0,0.0,0.0,0.0,0.0,0.0,0.0,0.0,0.0,0.0,0.0,0.0,0.0,0.0,0.0,0.0,0.0,0.0,0.0,0.0,0.0,0.0,0.0,0.0,0.0,0.0,0.0,0.0,0.0,0.0,0.0,0.0,0.0,0.0,0.0,0.0,0.0,0.0,0.0,0.0,0.0,0.0,0.0,0.0,0.0,0.0,0.0,0.0,0.0,0.0,0.0,0.0,0.0,0.0,0.0,0.0,0.9896,0.8856,0.8041,0.7565,0.7474,0.7551,0.7724,0.7299,0.7054,0.0,0.0,0.0,0.0,0.0,0.0,0.0,0.0,0.0,0.0,0.0,0.0,0.0,0.0,0.0,0.0,0.0,0.0,0.0,0.0,0.0,0.0,0.0,0.0,0.0,0.0,0.0,0.0,0.0,0.0,0.0,0.0,0.0,0.0,0.0,0.0,0.0,0.0,0.0,0.0,0.0,2.5274,2.6745,2.6396,2.5901,0.0,0.0,2.4654,2.4667,2.4505,0.0,0.0,0.0,0.0,0.0,0.0,0.0,0.0,0.0,0.0,0.0,0.0,0.0,0.0,0.0,0.0,0.0,0.0,0.0,0.0,0.0,0.0,0.0,0.0,0.0,0.0,0.0,0.0,0.0,0.0,0.0,0.0,0.0,0.0,0.0,0.0,0.0,0.0,0.0,0.0,0.0,0.0,0.0,0.0,0.0,0.0,0.0,0.0,0.0,0.0,0.0,0.0,0.0,0.0,0.0,0.8767,0.8507,0.7684,0.6981,0.6452,0.6501,0.667,0.6923,0.6811,0.6801,0.0,0.0,0.0,0.0,0.0,0.0,0.0,0.0,0.0,0.0,0.0,0.0,0.0,0.0,0.0,0.0,0.0,0.0,0.0,0.0,0.0,0.0,0.0,0.0,0.0,0.0,0.0,0.0,0.0,0.0,0.0,0.0,0.0,0.0,0.0,0.0,0.0,0.0,0.0,0.0,0.0,0.0,2.6455,2.6437,0.0,0.0,0.0,2.553,2.5464,0.0,0.0,0.0,0.0,0.0,0.0,0.0,0.0,0.0,0.0,0.0,0.0,0.0,0.0,0.0,0.0,0.0,0.0,0.0,0.0,0.0,0.0,0.0,0.0,0.0,0.0,0.0,0.0,0.0,0.0,0.0,0.0,0.0,0.0,0.0,0.0,0.0,0.0,0.0,0.0,0.0,0.0,0.0,0.0,0.0,0.0,0.0,0.0,0.0,0.0,0.0,0.0,0.0,0.0,0.0,0.0,0.0,0.7318,0.6663,0.6033,0.5486,0.5567,0.5813,0.6198,0.6313,0.0,0.0,0.0,0.0,0.0,0.0,0.0,0.0,0.0,0.0,0.0,0.0,0.0,0.0,0.0,0.0,0.0,0.0,0.0,0.0,0.0,0.0,0.0,0.0,0.0,0.0,0.0,1.4917,0.0,0.0,0.0,0.0,0.0,0.0,0.0,0.0,0.0,0.0,0.0,0.0,0.0,0.0,2.4745,2.6044,2.633,2.6365,0.0,0.0,2.6101,2.5961,2.5212,2.4482,0.0,0.0,0.0,0.0,0.0,0.0,0.0,0.0,0.0,0.0,0.0,0.0,0.0,0.0,0.0,0.0,0.0,0.0,0.0,0.0,0.0,0.0,0.0,0.0,0.0,0.0,0.0,0.0,0.0,0.0,0.0,0.0,0.0,0.0,0.0,0.0,0.0,0.0,0.0,0.0,0.0,0.0,0.0,0.0,0.0,0.0,0.0,0.0,0.0,0.0,0.0,0.0,0.0,0.0,0.0,0.6265,0.5397,0.4845,0.4587,0.4666,0.4918,0.5341,0.5443,0.5694,0.0,0.0,0.0,0.0,0.0,0.0,0.0,0.0,0.0,0.0,0.0,0.0,0.0,0.0,0.0,0.0,0.0,0.0,0.0,0.0,0.0,0.0,0.0,0.0,0.0,0.0,0.0,0.0,0.0,0.0,0.0,0.0,0.0,0.0,0.0,0.0,0.0,0.0,0.0,0.0,0.0,2.4362,2.5484,2.5828,2.5844,0.0,0.0,2.5394,2.5454,2.4989,2.4445,2.3891,0.0,0.0,0.0,0.0,0.0,0.0,0.0,0.0,0.0,0.0,0.0,0.0,0.0,0.0,0.0,0.0,0.0,0.0,0.0,0.0,0.0,0.0,0.0,0.0,0.0,0.0,0.0,0.0,0.0,0.0,0.0,0.0,0.0,0.0,0.0,0.0,0.0,0.0,0.0,0.0,0.0,0.0,0.0,0.0,0.0,0.0,0.0,0.0,0.0,0.0,0.0,0.0,0.0,0.5608,0.5346,0.4707,0.4272,0.4148,0.4188,0.4408,0.4748,0.5285,0.5744,0.0,0.0,0.0,0.0,0.0,0.0,0.0,0.0,0.0,0.0,0.0,0.0,0.0,0.0,0.0,0.0,0.0,0.0,0.0,0.0,0.0,0.0,0.0,0.0,0.0,0.0,0.0,0.0,1.653,1.7153,1.7717,0.0,0.0,0.0,0.0,0.0,0.0,0.0,0.0,0.0,0.0,2.4414,2.5179,2.5378,0.0,0.0,2.5185,2.5123,2.495,2.4558,2.404,2.3283,2.2991,0.0,0.0,0.0,0.0,0.0,0.0,0.0,0.0,0.0,0.0,0.0,0.0,0.0,0.0,0.0,0.0,0.0,0.0,0.0,0.0,0.0,0.0,0.0,0.0,0.0,0.0,0.0,0.0,0.0,0.0,0.0,0.0,0.0,0.0,0.0,0.0,0.0,0.0,0.0,0.0,0.0,0.0,0.0,0.0,0.0,0.0,0.0,0.0,0.0,0.0,0.0,0.0,0.4862,0.4613,0.4169,0.388,0.384,0.3843,0.4016,0.432,0.5019,0.5626,0.0,0.0,0.0,0.0,0.0,0.0,0.0,0.0,0.0,0.0,0.0,0.0,0.0,0.0,0.0,0.0,0.0,0.0,0.0,0.0,0.0,0.0,0.0,0.0,0.0,0.0,0.0,0.0,1.6758,1.7318,1.7177,0.0,0.0,0.0,0.0,0.0,0.0,0.0,0.0,0.0,0.0,2.4296,2.48,2.491,2.4934,2.4855,2.4815,2.4695,2.4451,2.4063,2.3616,2.2996,0.0,0.0,0.0,0.0,0.0,0.0,0.0,0.0,0.0,0.0,0.0,0.0,0.0,0.0,0.0,0.0,0.0,0.0,0.0,0.0,0.0,0.0,0.0,0.0,0.0,0.0,0.0,0.0,0.0,0.0,0.7245,0.0,0.0,0.0,0.0,0.0,0.0,0.0,0.0,0.0,0.0,0.0,0.0,0.0,0.0,0.0,0.0,0.0,0.0,0.0,0.0,0.0,0.0,0.4266,0.4127,0.376,0.3622,0.3622,0.3622,0.3751,0.4092,0.4578,0.5145,0.5787,0.0,0.0,0.0,0.0,0.0,0.0,0.0,0.0,0.0,0.0,0.0,0.0,0.0,0.0,0.0,0.0,0.0,0.0,0.0,0.0,0.0,0.0,0.0,0.0,0.0,0.0,1.5219,1.6081,1.6593,0.0,0.0,0.0,0.0,0.0,0.0,0.0,0.0,0.0,0.0,2.3761,2.3834,2.4251,2.4467,2.4539,2.4359,2.4234,2.4078,2.3967,2.3494,2.3127,0.0,0.0,0.0,0.0,0.0,0.0,0.0,0.0,0.0,0.0,0.0,0.0,0.0,0.0,0.0,0.0,0.0,0.0,0.0,0.0,0.0,0.0,0.0,0.0,0.0,0.0,0.0,0.5184,0.5519,0.0,0.0,0.0,0.0,0.0,0.0,0.0,0.0,0.0,0.0,0.0,0.5462,0.528,0.0,0.0,0.0,0.0,0.0,0.0,0.0,0.0,0.0,0.0,0.0,0.0,0.3828,0.3754,0.338,0.3262,0.3442,0.3398,0.3575,0.3968,0.4762,0.5545,0.6221,0.0,0.0,0.0,0.0,0.0,0.0,0.0,0.0,0.0,0.0,0.0,0.0,0.0,0.0,0.0,0.0,0.0,0.0,0.0,0.0,0.0,0.0,0.0,0.0,0.0,1.5557,0.0,0.0,0.0,0.0,0.0,0.0,0.0,0.0,0.0,0.0,0.0,2.3007,2.3484,2.3792,2.3984,2.4078,2.4405,2.4635,0.0,0.0,0.0,0.0,0.0,0.0,0.0,0.0,0.0,0.0,0.0,0.0,0.0,0.0,2.2646,2.1386,2.1215,2.1366,2.152,0.0,0.0,0.0,0.0,0.0,0.0,0.0,0.0,0.0,0.0,0.0,0.0,0.0,0.0,0.4415,0.0,0.5165,0.0,0.0,0.0,0.0,0.0,0.0,0.0,0.0,0.5505,0.5171,0.4789,0.4642,0.4491,0.0,0.4435,0.4517,0.0,0.0,0.0,0.0,0.0,0.0,0.0,0.0,0.3607,0.3554,0.3277,0.3214,0.335,0.3439,0.3571,0.388,0.4801,0.5626,0.6349,0.6705,0.7049,0.0,0.0,0.0,0.0,0.0,0.0,0.0,0.0,0.0,0.0,0.0,0.0,0.0,0.0,0.0,0.0,0.0,0.0,0.0,0.0,0.0,0.0,0.0,1.5459,0.0,0.0,0.0,0.0,0.0,0.0,0.0,0.0,0.0,2.1783,2.287,2.3654,2.3866,2.4128,2.4139,2.3741,0.0,0.0,0.0,0.0,0.0,0.0,0.0,2.4112,2.3849,2.3644,2.3527,2.3499,2.3626,2.3708,2.3437,0.0,0.0,2.1521,2.1346,2.1379,2.1283,2.157,2.1909,2.2327,2.2882,2.327,0.0,0.0,0.0,0.0,0.0,0.0,0.0,0.0,0.3463,0.38,0.0,0.4634,0.0,0.0,0.0,0.0,0.0,0.6072,0.0,0.0,0.5251,0.4923,0.44,0.44,0.4246,0.4029,0.4256,0.4427,0.4496,0.4637,0.0,0.0,0.0,0.0,0.0,0.0,0.3554,0.3493,0.3413,0.335,0.335,0.3568,0.3744,0.3877,0.4666,0.5453,0.6159,0.6647,0.6988,0.7215,0.7766,0.0,0.0,0.0,0.0,0.0,0.0,0.0,0.0,0.0,0.0,0.0,0.0,0.0,0.0,0.0,0.0,0.0,0.0,0.0,0.0,1.4951,0.0,0.0,0.0,0.0,0.0,0.0,0.0,0.0,0.0,0.0,2.3249,2.3467,2.3728,2.4594,0.0,0.0,0.0,0.0,2.4559,2.3755,2.4006,2.4269,2.4072,2.383,2.3623,2.3466,0.0,0.0,2.3149,2.3595,2.3743,2.3204,2.3004,2.2644,2.2366,2.2227,2.2151,2.1877,2.1963,2.2428,2.3298,2.3521,2.3765,-0.1081,0.0,0.0,0.0,0.0,0.2047,0.2183,0.2156,0.2966,0.35,0.3816,0.4391,0.0,0.0,0.0,0.0,0.0,0.0,0.5422,0.5259,0.5108,0.4779,0.4293,0.4399,0.429,0.3851,0.4136,0.4326,0.4426,0.4564,0.4588,0.4599,0.0,0.0,0.0,0.0,0.3486,0.342,0.3422,0.3442,0.3486,0.3748,0.4104,0.4631,0.5067,0.5574,0.632,0.657,0.6939,0.7511,0.7799,0.0,0.0,0.0,0.0,0.0,0.0,0.0,0.0,0.0,0.0,0.0,0.0,0.0,0.0,0.0,0.0,0.0,0.0,0.0,1.5412,1.5462,1.5427,0.0,0.0,0.0,0.0,0.0,0.0,0.0,0.0,0.0,2.3287,2.3625,2.3746,0.0,0.0,2.3526,2.3023,2.3414,2.384,2.3999,2.4292,0.0,2.4819,2.4613,2.4392,2.4281,2.4099,2.396,2.396,2.4019,2.3984,2.383,2.3774,2.3476,2.2802,2.2441,2.2287,2.2207,2.2414,2.2763,2.3043,2.3554,2.4031,-0.0908,-0.0318,0.0311,0.0926,0.1604,0.2034,0.2171,0.2192,0.2847,0.3322,0.3679,0.4219,0.4773,0.5391,0.5561,0.0,0.0,0.0,0.534,0.5132,0.5075,0.4811,0.4411,0.4522,0.4353,0.4021,0.4294,0.4436,0.439,0.4588,0.4705,0.4709,0.0,0.0,0.3906,0.3783,0.3734,0.3698,0.365,0.3739,0.3934,0.4276,0.4635,0.5116,0.5285,0.5694,0.6378,0.6521,0.6961,0.7652,0.7914,0.8312,0.0,0.0,0.0,0.0,0.0,0.0,0.0,0.0,0.0,0.0,0.0,1.6084,0.0,0.0,0.0,0.0,1.6327,1.6083,1.6088,1.5982,0.0,0.0,0.0,0.0,0.0,0.0,0.0,1.9159,1.998,2.1014,2.2421,2.2939,2.3451,2.4275,2.4285,2.3862,2.3109,0.0,2.3649,2.3409,2.3884,2.4354,2.4542,2.463,2.4549,2.439,2.4319,2.4203,2.4203,2.3974,2.3772,2.3759,2.3702,2.3482,2.2961,2.2825,2.2635,2.2179,2.2348,2.2616,2.2895,2.3445,2.3864,-0.0739,0.0402,0.07,0.1244,0.1924,0.211,0.2392,0.2697,0.2937,0.3329,0.3801,0.4098,0.4659,0.5301,0.5631,0.0,0.5567,0.5567,0.5399,0.5128,0.5128,0.4963,0.4746,0.4746,0.4581,0.4249,0.4684,0.4768,0.4516,0.4696,0.4876,0.496,0.4574,0.43,0.4128,0.4128,0.4172,0.4243,0.4089,0.4168,0.4582,0.5009,0.5256,0.5333,0.5496,0.5864,0.6418,0.6566,0.6961,0.7693,0.8099,0.847,0.8782,0.0,0.0,0.0,0.0,0.0,0.0,0.0,0.0,0.0,0.0,0.0,0.0,0.0,0.0,0.0,1.6624,0.0,1.6765,1.6516,0.0,0.0,0.0,1.7351,1.7508,1.7654,1.7995,1.8797,0.0,0.0,2.1077,2.1801,2.3093,2.5322,2.5416,2.4712,2.3216,2.3636,2.3671,2.2315,2.2938,2.3537,2.3617,2.3944,2.4155,2.4157,2.4125,2.4112,2.4028,2.3629,2.3276,2.3193,2.3085,2.2959,2.2998,2.3257,2.3198,2.2102,2.2091,2.2441,2.2946,2.3193,2.3336,0.0269,0.0942,0.0995,0.112,0.1384,0.1979,0.2091,0.206,0.3005,0.3523,0.3803,0.4277,0.4834,0.5301,0.5407,0.5407,0.5352,0.5352,0.5352,0.5242,0.5242,0.5128,0.4849,0.4959,0.4857,0.4636,0.4904,0.516,0.5267,0.4962,0.5106,0.5691,0.5117,0.4759,0.4567,0.4387,0.4381,0.4454,0.4662,0.497,0.5232,0.539,0.5501,0.5588,0.5884,0.6302,0.6781,0.6935,0.7288,0.7889,0.8341,0.8616,0.8818,0.9802,0.0,0.0,0.0,0.0,0.0,0.0,0.0,0.0,0.0,1.5889,1.6527,0.0,1.6198,0.0,1.5591,1.5745,1.6556,1.6505,0.0,0.0,1.7036,1.7223,1.751,1.771,1.8103,1.8891,1.9354,2.0003,2.1133,2.1924,2.2829,2.4021,2.3582,2.2875,2.2213,2.2284,2.2328,2.2038,2.2255,2.255,2.2856,2.3208,2.3576,2.4047,2.4112,2.4067,2.3949,2.3514,2.3154,2.3085,2.2734,2.2656,2.2894,2.3171,2.3282,2.3167,2.3218,2.3244,2.3293,2.3032,2.284,0.0942,0.1347,0.1346,0.1412,0.1613,0.1925,0.2093,0.238,0.3113,0.3722,0.4148,0.4711,0.5054,0.5301,0.5301,0.5301,0.5301,0.5301,0.5301,0.5301,0.5301,0.5242,0.5073,0.5128,0.5073,0.4908,0.5238,0.5412,0.5481,0.5383,0.5544,0.5966,0.5538,0.5328,0.5406,0.5131,0.5043,0.5182,0.5535,0.578,0.5803,0.604,0.6152,0.6102,0.6556,0.6999,0.7293,0.7478,0.791,0.856,0.8728,0.8982,0.935,1.0157,1.0749,0.0,0.0,0.0,0.0,0.0,0.0,0.0,0.0,0.0,0.0,0.0,1.6553,1.675,1.6489,1.6503,1.6988,1.6987,1.7006,1.7237,1.7431,1.7624,1.7914,1.8043,1.8307,1.8857,1.9198,1.9716,2.0526,2.1195,2.182,2.2487,2.2138,2.1904,2.2055,2.2013,2.1857,2.1562,2.1891,2.2318,2.2698,2.2786,2.2949,2.325,2.3171,2.3057,2.293,2.2523,2.2179,2.2153,2.2029,2.1966,2.2304,2.2633,2.2893,2.2858,2.2943,2.2975,2.303,2.2578,2.2178,0.1276,0.1614,0.1608,0.181,0.2214,0.2022,0.2376,0.3064,0.3361,0.392,0.4707,0.5083,0.5301,0.5301,0.5301,0.5301,0.5301,0.5301,0.5301,0.5301,0.5301,0.5301,0.5356,0.5352,0.5352,0.5234,0.5622,0.5698,0.5471,0.5821,0.603,0.6115,0.5888,0.5992,0.6401,0.6067,0.5966,0.6105,0.638,0.647,0.633,0.6773,0.6937,0.6774,0.7342,0.776,0.7909,0.824,0.8719,0.9387,0.9354,0.9549,1.0115,1.0588,1.1141,0.0,1.2302,0.0,0.0,0.0,0.0,0.0,0.0,0.0,0.0,1.6787,1.7535,1.8,1.7792,1.7622,1.7601,1.7612,1.7676,1.7694,1.7924,1.8155,1.8317,1.827,1.8354,1.8638,1.8891,1.9258,1.972,2.022,2.0673,2.1149,2.1184,2.1426,2.2047,2.2065,2.179,2.1099,2.1659,2.2129,2.255,2.2458,2.2296,2.2307,2.2124,2.1771,2.1848,2.1297,2.0945,2.1104,2.1171,2.1237,2.1433,2.1943,2.2215,2.2221,2.2127,2.212,2.2318,2.1995,2.1407,0.1254,0.1611,0.1574,0.1909,0.2345,0.2606,0.2918,0.3281,0.3878,0.4457,0.5012,0.5203,0.5301,0.5301,0.5301,0.5301,0.5301,0.5301,0.5301,0.5301,0.5301,0.5466,0.5686,0.5686,0.5791,0.5996,0.61,0.6244,0.6421,0.6148,0.629,0.6834,0.6458,0.653,0.7068,0.0,0.0,0.0,0.6561,0.6697,0.7064,0.7157,0.7224,0.7418,0.7963,0.0,0.8695,0.9082,0.9415,0.9784,1.0128,0.0,0.0,0.0,0.0,0.0,0.0,0.0,0.0,0.0,0.0,0.0,1.4991,1.5154,1.5623,1.6109,1.6441,1.6582,1.6717,1.6996,1.7399,1.7641,1.7908,1.836,1.8084,1.7885,1.7873,1.7545,1.7467,1.7942,1.8259,1.8673,1.9386,1.9823,2.0283,2.066,2.0709,2.0898,2.139,2.1627,2.1545,2.1256,2.1242,2.1372,2.176,2.1616,2.1613,2.1892,2.1801,2.1597,2.1546,2.1033,2.0693,2.096,2.0732,2.0682,2.1342,2.1603,2.1799,2.2215,2.1835,2.1532,2.1784,2.1437,2.1018,0.1595,0.0,0.2117,0.252,0.0,0.3436,0.3808,0.4196,0.4384,0.4882,0.5497,0.5562,0.5616,0.5612,0.5462,0.5426,0.5418,0.5503,0.5517,0.5576,0.5677,0.5837,0.6,0.6,0.6055,0.6209,0.6376,0.6539,0.6696,0.6594,0.6759,0.7079,0.686,0.6972,0.7359,0.7521,0.7461,0.7203,0.7178,0.7379,0.7744,0.7968,0.8134,0.8296,0.896,0.0,0.0,0.0,0.0,0.0,0.0,0.0,0.0,1.1702,0.0,1.2301,1.2802,1.3262,1.3638,1.3542,1.3809,1.4531,1.4686,1.5075,1.5917,1.6238,1.6373,1.6362,1.6683,1.69,1.69,1.7155,1.758,1.809,1.7949,1.793,1.8206,1.8064,1.8057,1.8426,1.8642,1.897,1.9423,1.9823,2.0182,2.0459,2.0586,2.0785,2.1229,2.1375,2.1375,2.1326,2.1109,2.1017,2.109,2.0875,2.0706,2.0934,2.0665,2.0449,2.0557,2.0213,2.0092,2.0447,2.0322,2.0399,2.0938,2.1093,2.1236,2.1472,2.1289,2.1017,2.1106,2.0821,2.0538,0.2074,0.2684,0.2739,0.3143,0.3892,0.4223,0.4757,0.5286,0.0,0.0,0.0,0.5888,0.5944,0.5936,0.5784,0.5773,0.5818,0.5875,0.5954,0.5954,0.6123,0.6209,0.6258,0.6317,0.6317,0.6372,0.6647,0.6756,0.6756,0.6972,0.7139,0.7139,0.7139,0.73,0.7628,0.7931,0.7931,0.7729,0.7949,0.8115,0.8321,0.8844,0.9137,0.9184,0.9941,1.042,1.058,1.1105,1.1528,1.1769,1.1601,1.1661,1.2138,1.2091,1.2253,1.2686,1.2929,1.3143,1.329,1.3316,1.3525,1.401,1.4505,1.5224,1.6249,1.6472,1.6611,1.6698,1.7006,1.7087,1.6758,1.6908,1.7284,1.7878,1.7843,1.8024,1.8519,1.856,1.8558,1.8948,1.908,1.9297,1.954,1.9811,2.0131,2.0271,2.0435,2.0736,2.1131,2.1229,2.1229,2.1277,2.0997,2.0799,2.0636,2.0296,1.9926,1.9976,1.9534,1.9223,1.9368,1.9368,1.9512,1.9977,2.008,2.0347,2.0599,2.0751,2.0699,2.0699,2.0699,2.0662,2.0562,2.041,2.0258,0.23,0.2748,0.2812,0.3283,0.403,0.4495,0.5209,0.6017,0.584,0.5828,0.5888,0.5888,0.6061,0.6353,0.6322,0.6428,0.6721,0.6529,0.6492,0.6483,0.6298,0.6372,0.6647,0.6647,0.6756,0.6972,0.7031,0.7031,0.7031,0.7085,0.7198,0.7408,0.7461,0.7681,0.8109,0.8468,0.8672,0.862,0.8573,0.8633,0.8903,0.9309,0.9644,0.9857,1.0466,1.0998,1.1358,1.1651,1.1918,1.2175,1.207,1.2169,1.2569,1.2472,1.256,1.2822,1.2929,1.3135,1.3581,1.3332,1.345,1.4114,1.4677,1.5312,1.5974,1.6146,1.6493,1.7236,1.7269,1.7519,1.8,1.7861,1.7883,1.8354,1.8095,1.7831,1.8001,1.7811,1.7941,1.8389,1.8467,1.8839,1.9347,1.9525,1.9668,1.9862,2.0169,2.0385,2.0673,2.0983,2.1144,2.1033,2.0636,2.0283,2.0131,1.9875,1.9617,1.9473,1.9263,1.9105,1.9368,1.9263,1.9356,1.9888,2.008,2.0347,2.0649,2.0775,2.0825,2.0762,2.0699,2.0699,2.0649,2.0599,2.0498,0.2657,0.2952,0.3115,0.3584,0.4225,0.5024,0.5822,0.6535,0.6502,0.643,0.643,0.643,0.6615,0.6975,0.6869,0.6946,0.7064,0.7037,0.6934,0.682,0.6829,0.6874,0.6928,0.6918,0.6972,0.7079,0.7133,0.7192,0.7306,0.73,0.7461,0.7723,0.8037,0.8362,0.8738,0.9145,0.9406,0.9569,0.9302,0.9256,0.9413,0.994,1.0336,1.0702,1.1209,1.1569,1.1927,1.2135,1.2274,1.2431,1.2382,1.2431,1.2578,1.2529,1.2627,1.2881,1.2891,1.3057,1.353,1.3649,1.3868,1.428,1.4869,1.5438,1.6087,1.6345,1.6609,1.6693,1.701,1.7254,1.7324,1.722,1.7443,1.8206,1.7977,1.7953,1.8346,1.8331,1.8374,1.8706,1.8794,1.8995,1.9331,1.9473,1.9512,1.9708,1.9965,2.022,2.0271,2.0435,2.0536,2.0536,2.022,1.9965,1.9772,1.9577,1.9368,1.9275,1.9093,1.9105,1.9263,1.921,1.9408,1.9823,2.0067,2.0334,2.0586,2.0848,2.0875,2.0838,2.0861,2.0799,2.0749,2.0699,2.0599,0.3025,0.3295,0.3563,0.4095,0.4749,0.5686,0.6416,0.7007,0.7003,0.7073,0.7143,0.7077,0.7265,0.7572,0.7423,0.7419,0.7516,0.7558,0.7457,0.7197,0.7364,0.7316,0.7155,0.7192,0.7192,0.7246,0.7241,0.7408,0.7634,0.7628,0.783,0.8137,0.8659,0.9075,0.9413,0.9695,1.0054,1.0352,1.0138,1.0079,1.0131,1.0659,1.1124,1.1477,1.1819,1.2076,1.2323,1.2421,1.2529,1.2529,1.2529,1.2529,1.2539,1.2529,1.2627,1.2832,1.292,1.3202,1.3707,1.4195,1.457,1.4843,1.533,1.5807,1.63,1.6762,1.6849,1.6521,1.6901,1.7017,1.6877,1.6644,1.6911,1.7809,1.7816,1.7979,1.8596,1.8774,1.8893,1.9011,1.9064,1.9146,1.9263,1.9356,1.9408,1.9565,1.9823,1.9978,1.9939,1.9939,1.999,1.9978,1.9862,1.9708,1.9565,1.942,1.9275,1.9158,1.9105,1.9105,1.917,1.9263,1.946,1.9708,2.0029,2.0283,2.0536,2.0772,2.0898,2.0911,2.0911,2.0911,2.0799,2.0799,2.0699,0.3431,0.3565,0.4033,0.4891,0.5877,0.6408,0.6933,0.7391,0.7461,0.7591,0.7857,0.7591,0.7657,0.7917,0.7957,0.8071,0.8323,0.8226,0.7989,0.7704,0.749,0.7383,0.7339,0.7424,0.7515,0.767,0.7771,0.7937,0.8115,0.8162,0.8374,0.8869,0.9134,0.9502,0.9908,1.0029,1.0335,1.0863,1.1267,1.1318,1.1015,1.1368,1.1728,1.2017,1.2175,1.2323,1.248,1.2471,1.2529,1.2686,1.2578,1.2588,1.2686,1.2676,1.2676,1.2735,1.2997,1.3583,1.4584,1.5017,1.5486,1.6241,1.6421,1.6589,1.6746,1.7145,1.7417,1.7418,1.7131,1.7205,1.7628,1.7216,1.7106,1.7607,1.7698,1.7776,1.7909,1.8127,1.8441,1.8614,1.8786,1.8905,1.8999,1.8999,1.9052,1.9368,1.946,1.9565,1.9668,1.9668,1.9681,1.9668,1.9512,1.946,1.942,1.942,1.9316,1.9105,1.9105,1.9117,1.9158,1.9263,1.942,1.9565,1.9914,2.0233,2.0448,2.0686,2.0858,2.0934,2.0961,2.0924,2.0961,2.105,2.0964,0.3696,0.383,0.4295,0.509,0.6075,0.6544,0.7134,0.7787,0.7787,0.7987,0.8247,0.8182,0.8182,0.8317,0.8317,0.8382,0.8506,0.8409,0.8362,0.8321,0.8269,0.8195,0.8104,0.8233,0.8208,0.8109,0.815,0.8362,0.8692,0.9001,0.9309,0.9577,0.9855,1.0218,1.0635,1.0756,1.1022,1.1519,1.1778,1.1927,1.1927,1.2026,1.2126,1.2332,1.248,1.2578,1.2627,1.2627,1.2627,1.2578,1.2588,1.2637,1.2676,1.2803,1.2939,1.3152,1.3966,1.486,1.5626,1.6018,1.6405,1.6723,1.7124,1.7338,1.7299,1.7688,1.7986,1.7907,1.7673,1.7542,1.7644,1.7346,1.728,1.7501,1.7479,1.7534,1.7897,1.8061,1.8278,1.856,1.8625,1.8744,1.8839,1.8893,1.8999,1.9223,1.9275,1.938,1.9473,1.946,1.9512,1.9565,1.9565,1.9512,1.9512,1.9473,1.938,1.9275,1.9223,1.917,1.917,1.917,1.9275,1.9368,1.972,2.0016,2.0144,2.0523,2.0809,2.0871,2.1033,2.1095,2.1242,2.1574,2.1713,0.403,0.4164,0.4694,0.5554,0.6408,0.6806,0.7396,0.8052,0.8122,0.8317,0.8576,0.8641,0.8641,0.8705,0.8641,0.8582,0.8641,0.8705,0.8822,0.8977,0.9076,0.9122,0.9041,0.903,0.9002,0.8871,0.8771,0.8896,0.9323,0.9829,1.0138,1.0293,1.0477,1.083,1.125,1.1282,1.1522,1.1968,1.2126,1.2332,1.2529,1.248,1.2529,1.2627,1.2725,1.2735,1.2783,1.2774,1.2783,1.2676,1.2822,1.293,1.3037,1.3312,1.3644,1.4129,1.5083,1.5957,1.6632,1.7031,1.7252,1.7416,1.7859,1.8007,1.8037,1.8254,1.8414,1.8412,1.829,1.8079,1.7645,1.7423,1.7434,1.7534,1.7412,1.7523,1.7886,1.805,1.817,1.8398,1.8518,1.8625,1.8744,1.8839,1.8999,1.9105,1.9182,1.9373,1.9564,1.9719,1.9809,2.0039,2.0089,1.9992,1.9716,1.9815,1.9685,1.9494,1.9413,1.9548,1.9348,1.9275,1.9275,1.942,1.9604,1.9759,1.9914,2.0308,2.0709,2.0809,2.1019,2.1358,2.1735,2.2174,2.2497,0.43,0.4431,0.5425,0.635,0.7199,0.7531,0.7927,0.8452,0.8452,0.8576,0.8835,0.8888,0.9087,0.921,0.8964,0.8894,0.9022,0.9145,0.9397,0.9659,0.9701,0.9887,1.0208,0.9855,0.9816,1.0031,0.9669,0.9688,1.0125,1.0573,1.0871,1.0854,1.0944,1.1164,1.1625,1.1527,1.164,1.2271,1.2466,1.2577,1.2724,1.2822,1.293,1.2949,1.2881,1.2881,1.2929,1.3027,1.3075,1.3075,1.3268,1.3537,1.3912,1.4322,1.495,1.5842,1.6154,1.6644,1.745,1.7788,1.8132,1.8584,1.8655,1.8762,1.8709,1.8714,1.8787,1.9008,1.9031,1.8723,1.809,1.7757,1.7601,1.7645,1.7667,1.7656,1.77,1.7854,1.7963,1.8139,1.8356,1.8518,1.8625,1.8732,1.8952,1.9124,1.9153,1.9507,2.0084,2.0316,2.061,2.0989,2.1119,2.0974,2.0005,2.0154,2.0216,2.0035,2.0118,2.0258,1.9797,1.946,1.9497,1.9485,1.9577,1.9668,1.9811,2.0003,2.0359,2.066,2.1068,2.1496,2.2114,2.2495,2.2967,0.4894,0.5488,0.6218,0.7007,0.7727,0.7917,0.8306,0.8829,0.8829,0.8958,0.9087,0.9145,0.9338,0.9582,0.9594,0.953,0.9518,0.9646,1.0034,1.0512,1.0753,1.102,1.1254,1.1341,1.1145,1.0817,1.0775,1.0765,1.0785,1.1124,1.1267,1.1369,1.1668,1.1926,1.2196,1.2382,1.2718,1.3185,1.3256,1.3361,1.361,1.3888,1.3991,1.3961,1.3353,1.3075,1.3084,1.3238,1.3334,1.344,1.3851,1.4237,1.4563,1.5239,1.6115,1.6962,1.7185,1.7583,1.8248,1.8541,1.873,1.891,1.8946,1.906,1.9214,1.9309,1.94,1.9666,1.968,1.9437,1.916,1.8544,1.8057,1.791,1.7622,1.7568,1.7656,1.7755,1.7865,1.8259,1.8476,1.8691,1.8869,1.9222,1.9588,1.9679,2.0068,2.0514,2.0798,2.0996,2.1138,2.1375,2.1481,2.1355,2.0986,2.0974,2.1062,2.0944,2.0914,2.0909,2.0618,2.0155,2.0052,1.9912,1.983,1.9571,1.9741,2.0001,2.0284,2.0729,2.1179,2.1704,2.2482,2.2917,2.3594,0.5613,0.6474,0.6933,0.7526,0.8172,0.8301,0.863,0.9017,0.9081,0.921,0.9402,0.953,0.9736,0.997,1.0276,1.0334,1.0274,1.0265,1.0588,1.1124,1.142,1.1781,1.2204,1.2315,1.2182,1.1872,1.1839,1.1831,1.187,1.1965,1.205,1.2146,1.2501,1.2786,1.291,1.3203,1.3495,1.3765,1.3809,1.3917,1.4247,1.4503,1.4767,1.4779,1.4276,1.3957,1.3936,1.4094,1.4251,1.444,1.4903,1.5289,1.5725,1.6474,1.7203,1.788,1.8095,1.8341,1.878,1.8946,1.8987,1.8987,1.8999,1.9174,1.961,1.9682,1.9904,2.0287,2.0393,2.031,2.0332,1.9759,1.9088,1.8605,1.8135,1.7902,1.8091,1.8034,1.8162,1.8476,1.8691,1.8857,1.9198,1.9661,2.008,2.0361,2.0902,2.125,2.1618,2.1713,2.1857,2.2097,2.2268,2.2293,2.2179,2.2242,2.1781,2.1518,2.1613,2.1606,2.14,2.0903,2.0557,2.0391,2.0104,1.9785,1.9744,2.0007,2.0423,2.0914,2.135,2.184,2.2627,2.3385,2.4014,0.6535,0.7195,0.7577,0.8006,0.8522,0.8698,0.886,0.9018,0.9215,0.937,0.9599,1.0046,1.0252,1.0451,1.0883,1.1137,1.1065,1.0821,1.1004,1.1451,1.159,1.22,1.3001,1.2651,1.2664,1.2907,1.277,1.2868,1.3086,1.295,1.3004,1.3204,1.334,1.3577,1.3774,1.3806,1.3914,1.4051,1.4134,1.4292,1.4586,1.4889,1.5216,1.5592,1.5763,1.5793,1.5588,1.5596,1.5723,1.6009,1.6266,1.683,1.7381,1.7855,1.8267,1.8661,1.8762,1.8827,1.8987,1.8987,1.9052,1.9011,1.9011,1.93,1.9793,1.9937,2.0289,2.0938,2.1116,2.1209,2.1416,2.1061,2.0461,1.9805,1.9218,1.8965,1.8973,1.8693,1.8511,1.8863,1.9042,1.921,1.9788,2.0202,2.0557,2.1126,2.1475,2.1813,2.2432,2.2566,2.2865,2.3288,2.3216,2.3076,2.3339,2.3467,2.2642,2.2046,2.2216,2.2272,2.1938,2.1544,2.1306,2.1126,2.0656,2.036,2.0244,2.0486,2.0799,2.1294,2.1641,2.2062,2.2963,2.3768,2.4243,0.7136,0.7762,0.8191,0.8561,0.8906,0.8877,0.9041,0.9294,0.9468,0.9635,0.9874,1.029,1.0594,1.0944,1.1203,1.1359,1.138,1.1414,1.163,1.1958,1.2206,1.2487,1.2861,1.2837,1.286,1.2779,1.2583,1.2531,1.2683,1.2982,1.3128,1.3265,1.3827,1.4156,1.4202,1.4487,1.4706,1.4811,1.4916,1.5189,1.5639,1.6064,1.6449,1.6895,1.7314,1.7592,1.7728,1.6888,1.6485,1.6646,1.7148,1.7721,1.8295,1.8638,1.8839,1.9023,1.9076,1.9064,1.9117,1.9141,1.9153,1.9124,1.9336,1.978,2.031,2.067,2.1151,2.1703,2.1761,2.172,2.1729,2.162,2.1193,2.0591,2.0194,1.9922,1.992,1.9915,2.0037,2.0205,2.0217,2.0358,2.0753,2.1031,2.1497,2.1918,2.2347,2.2875,2.3178,2.3249,2.3326,2.3543,2.3616,2.3616,2.3688,2.3688,2.3295,2.2763,2.2774,2.2816,2.2493,2.2221,2.2051,2.1686,2.1281,2.0983,2.0865,2.0958,2.1263,2.1455,2.1754,2.2489,2.3442,2.3985,2.4327,0.7586,0.8158,0.8566,0.8866,0.9095,0.9036,0.9149,0.9389,0.9615,0.984,1.0121,1.0587,1.0918,1.1169,1.1478,1.1593,1.1584,1.1826,1.2052,1.2263,1.229,1.252,1.2833,1.3114,1.3176,1.3016,1.2861,1.2842,1.2851,1.3138,1.3375,1.3595,1.4026,1.4376,1.4515,1.4749,1.4998,1.5177,1.5249,1.5548,1.6022,1.6437,1.7027,1.7637,1.8228,1.8709,1.8951,1.816,1.7787,1.7847,1.8172,1.8558,1.8975,1.904,1.923,1.9478,1.9592,1.9665,1.9848,2.0,1.9885,1.9879,2.0067,2.0491,2.1001,2.1378,2.1681,2.2139,2.2111,2.2049,2.2049,2.1925,2.1758,2.1583,2.1021,2.071,2.0646,2.0758,2.0848,2.0913,2.0949,2.1084,2.1457,2.1828,2.2305,2.2682,2.3162,2.3522,2.3641,2.3675,2.3688,2.3747,2.3806,2.3806,2.3806,2.3806,2.376,2.3539,2.3382,2.3263,2.3005,2.2783,2.2539,2.2143,2.1736,2.1572,2.1465,2.1465,2.1654,2.1788,2.2046,2.2768,2.3546,2.3625,2.3968,0.7892,0.8451,0.8774,0.9066,0.9253,0.9202,0.9336,0.9484,0.9792,1.0115,1.0528,1.1141,1.132,1.1374,1.1831,1.1948,1.184,1.2131,1.2249,1.2277,1.2186,1.2342,1.28,1.3212,1.3306,1.3334,1.344,1.3522,1.3432,1.3565,1.3853,1.4014,1.4208,1.4354,1.4722,1.4777,1.4974,1.5164,1.5175,1.5499,1.5975,1.6184,1.6811,1.7875,1.8502,1.8964,1.9248,1.9327,1.9401,1.9396,1.9193,1.9242,1.9356,1.9316,1.9621,2.0146,2.0232,2.0514,2.0964,2.0939,2.0908,2.0908,2.1018,2.1371,2.1673,2.1762,2.1946,2.2372,2.2309,2.2309,2.2371,2.2309,2.2347,2.2543,2.1934,2.1484,2.1297,2.1341,2.151,2.148,2.1361,2.1465,2.2147,2.2351,2.2766,2.3187,2.3543,2.3688,2.3819,2.3891,2.4008,2.3995,2.4041,2.4099,2.4099,2.4099,2.4099,2.391,2.3747,2.3569,2.339,2.3157,2.2949,2.2564,2.228,2.2185,2.2138,2.208,2.2179,2.2434,2.2745,2.316,2.3399,2.3581,2.3781,0.8242,0.8891,0.9155,0.9345,0.9479,0.95,0.9624,0.9929,1.0483,1.0989,1.1434,1.2121,1.2356,1.2324,1.2507,1.2503,1.2376,1.2382,1.2421,1.2431,1.2372,1.2419,1.2582,1.2755,1.284,1.2849,1.2998,1.3003,1.3142,1.3606,1.3981,1.4246,1.4676,1.5039,1.5268,1.5307,1.536,1.5474,1.5639,1.5822,1.6188,1.6496,1.7,1.7567,1.8118,1.8647,1.9221,1.9763,1.9914,1.9708,1.9656,1.9604,1.9589,1.9871,2.0234,2.0444,2.0804,2.1064,2.1212,2.1274,2.1262,2.1173,2.1531,2.1731,2.1866,2.226,2.2433,2.2616,2.2555,2.2555,2.2629,2.2555,2.2739,2.3078,2.2855,2.2693,2.2757,2.2783,2.2841,2.2841,2.2614,2.2677,2.2871,2.3124,2.3306,2.3662,2.376,2.3865,2.3995,2.4054,2.4099,2.4189,2.4234,2.4305,2.4376,2.4447,2.439,2.4189,2.4028,2.3806,2.3628,2.3365,2.3195,2.2949,2.2752,2.263,2.2683,2.2685,2.2871,2.2957,2.2987,2.3132,2.3436,2.3599,2.3772,0.8576,0.9174,0.9384,0.9571,0.9731,0.9992,1.0241,1.0529,1.1188,1.1731,1.2215,1.2715,1.3041,1.3078,1.3006,1.2912,1.2726,1.2605,1.2569,1.2627,1.2676,1.2686,1.2597,1.2578,1.2686,1.2676,1.2813,1.3017,1.325,1.3716,1.4052,1.4348,1.4778,1.5094,1.5284,1.5377,1.5474,1.5598,1.5728,1.5884,1.6172,1.6432,1.6896,1.7384,1.7875,1.844,1.9215,1.9671,1.9863,1.9851,1.9862,1.9811,1.9758,2.0257,2.0669,2.0882,2.1431,2.1806,2.2031,2.2081,2.2023,2.2014,2.2241,2.234,2.2439,2.2699,2.28,2.2787,2.2739,2.2739,2.2787,2.2921,2.3042,2.321,2.3509,2.37,2.37,2.3531,2.3509,2.3522,2.3403,2.3271,2.345,2.3616,2.376,2.3891,2.3949,2.4112,2.4216,2.4261,2.4271,2.4323,2.4329,2.4375,2.4377,2.4433,2.4482,2.434,2.4068,2.389,2.3787,2.3518,2.3378,2.3233,2.3185,2.3138,2.309,2.309,2.321,2.316,2.3034,2.309,2.3449,2.3354,2.3558,0.8908,0.9316,0.9569,0.9784,1.0142,1.0722,1.1124,1.1345,1.2049,1.2543,1.291,1.3204,1.3607,1.3704,1.3451,1.3185,1.3141,1.2849,1.2812,1.2822,1.292,1.292,1.2715,1.2813,1.292,1.2958,1.3122,1.3362,1.3621,1.3973,1.4244,1.4543,1.4682,1.4868,1.5269,1.5336,1.5435,1.5709,1.5813,1.5906,1.6125,1.6399,1.6895,1.7501,1.8185,1.8767,1.9333,1.959,1.981,2.0182,2.013,2.0117,2.0064,2.0529,2.1108,2.1625,2.2096,2.2598,2.2975,2.2915,2.299,2.2952,2.2965,2.3125,2.3027,2.3005,2.2969,2.2969,2.286,2.2921,2.2957,2.3233,2.3361,2.342,2.3826,2.4021,2.4099,2.3865,2.37,2.3819,2.3556,2.3479,2.3551,2.3669,2.3774,2.3651,2.3871,2.4261,2.4421,2.4478,2.4482,2.4381,2.4436,2.4394,2.4379,2.4378,2.4409,2.4408,2.3992,2.3778,2.3754,2.3625,2.3518,2.339,2.333,2.3378,2.345,2.345,2.3509,2.3326,2.3212,2.3354,2.3495,2.3106,2.3091,0.9354,0.9844,1.0087,1.0709,1.1417,1.1842,1.2254,1.2715,1.3441,1.3745,1.3997,1.4478,1.4649,1.4518,1.4092,1.3723,1.3455,1.3155,1.3027,1.3084,1.3132,1.3132,1.3084,1.3132,1.318,1.3208,1.3158,1.3501,1.3978,1.4373,1.4686,1.5085,1.5277,1.5501,1.5768,1.5957,1.6132,1.6219,1.6287,1.6323,1.6487,1.697,1.743,1.7932,1.8858,1.946,1.9742,2.0182,2.0589,2.0914,2.0977,2.0963,2.096,2.1699,2.2178,2.2363,2.2786,2.3132,2.3113,2.3138,2.3125,2.3138,2.3125,2.3125,2.3138,2.3233,2.3245,2.3271,2.3283,2.311,2.3119,2.3238,2.345,2.3722,2.3879,2.4053,2.4328,2.4157,2.4008,2.3774,2.3457,2.3147,2.316,2.341,2.348,2.3498,2.3892,2.4355,2.4567,2.4738,2.4655,2.4537,2.4584,2.4699,2.5034,2.5081,2.5157,2.4887,2.4299,2.4037,2.4023,2.3874,2.3832,2.3715,2.3569,2.3628,2.3865,2.3852,2.3897,2.3636,2.3411,2.3497,2.3451,2.299,2.3232,1.0138,1.0608,1.0964,1.1533,1.2289,1.2821,1.3329,1.3848,1.4487,1.4792,1.4974,1.5303,1.536,1.5286,1.4859,1.4423,1.3928,1.3382,1.3142,1.3218,1.3314,1.3409,1.3467,1.36,1.3695,1.3521,1.3643,1.4039,1.449,1.496,1.5311,1.5623,1.5901,1.6076,1.6318,1.6529,1.671,1.6999,1.7055,1.7131,1.7463,1.7847,1.8408,1.878,1.9521,2.0092,2.0709,2.1086,2.1509,2.1865,2.2085,2.1949,2.1684,2.227,2.2731,2.2815,2.3191,2.3424,2.3378,2.3318,2.3378,2.3318,2.3318,2.3141,2.3073,2.3056,2.2961,2.2808,2.2649,2.2719,2.2732,2.3051,2.3363,2.3511,2.3646,2.3824,2.4231,2.4274,2.4013,2.3696,2.3508,2.3441,2.3406,2.3467,2.3834,2.4146,2.434,2.4751,2.4898,2.5025,2.4785,2.4732,2.4796,2.5063,2.556,2.5886,2.6115,2.568,2.5009,2.4792,2.4735,2.4442,2.4203,2.4134,2.4086,2.4203,2.4376,2.4363,2.4425,2.4386,2.4257,2.3878,2.369,2.3768,2.4283,1.104,1.1556,1.1908,1.2475,1.3118,1.3869,1.4418,1.4836,1.5359,1.5593,1.5672,1.574,1.5826,1.5783,1.5502,1.5077,1.4582,1.3991,1.3641,1.3738,1.3757,1.3858,1.3962,1.432,1.4562,1.401,1.4294,1.472,1.5175,1.5635,1.5969,1.6144,1.6529,1.6735,1.684,1.7053,1.7364,1.7811,1.7894,1.8138,1.8588,1.8835,1.9261,1.9812,2.0114,2.0607,2.1252,2.1645,2.203,2.2512,2.3122,2.2916,2.2535,2.2678,2.2891,2.2904,2.3366,2.35,2.3403,2.3539,2.3628,2.3628,2.3675,2.3482,2.3219,2.3199,2.307,2.2786,2.2683,2.2639,2.2326,2.2821,2.3163,2.3311,2.3328,2.3568,2.4,2.4247,2.4094,2.3589,2.342,2.331,2.3636,2.3897,2.4415,2.4827,2.4951,2.509,2.5246,2.5296,2.5109,2.525,2.5444,2.5991,2.6505,2.6742,2.6966,2.664,2.5841,2.5779,2.5659,2.5619,2.541,2.4854,2.4751,2.4919,2.5032,2.5048,2.512,2.5232,2.5146,2.4922,2.4741,2.464,2.5427,1.1804,1.252,1.28,1.3599,1.4656,1.5168,1.5487,1.5733,1.6177,1.6124,1.5788,1.6066,1.6134,1.5975,1.5756,1.5454,1.5133,1.4739,1.4671,1.4704,1.4642,1.454,1.4782,1.5485,1.5858,1.5939,1.5728,1.5574,1.6001,1.6337,1.6685,1.6753,1.7144,1.7448,1.7721,1.8106,1.8358,1.8584,1.8702,1.8949,1.9365,1.9656,2.004,2.0699,2.0913,2.1274,2.1529,2.1596,2.1745,2.2326,2.2829,2.2898,2.292,2.3476,2.3501,2.3218,2.3489,2.3586,2.3393,2.3599,2.3767,2.3878,2.4086,2.4105,2.3948,2.401,2.3804,2.3791,2.3764,2.3896,2.3741,2.3563,2.3725,2.3913,2.3874,2.3904,2.4297,2.4505,2.4629,2.4305,2.3781,2.3322,2.3836,2.4257,2.464,2.5011,2.5245,2.537,2.5522,2.5568,2.5601,2.585,2.6169,2.6837,2.7603,2.765,2.7793,2.7565,2.7117,2.6992,2.696,2.7052,2.6818,2.6315,2.5855,2.5744,2.5814,2.5911,2.5964,2.6153,2.6073,2.5988,2.6103,2.6222,2.7039,1.2738,1.3568,1.3932,1.4697,1.5675,1.604,1.636,1.6641,1.6853,1.6751,1.6627,1.6684,1.6684,1.6574,1.6483,1.6288,1.6038,1.5734,1.5725,1.5773,1.5799,1.5818,1.595,1.6705,1.7133,1.7296,1.711,1.7127,1.7539,1.7637,1.7658,1.7779,1.8087,1.828,1.8364,1.8604,1.904,1.9243,1.9488,1.9793,2.0246,2.0545,2.1086,2.1574,2.2051,2.2495,2.3247,2.3504,2.3825,2.4333,2.4524,2.442,2.4313,2.4254,2.4239,2.3533,2.3607,2.3804,2.3725,2.4155,2.4376,2.4505,2.465,2.459,2.4444,2.4393,2.4462,2.4177,2.3946,2.4014,2.3797,2.3959,2.4186,2.4619,2.4592,2.4902,2.5262,2.5189,2.5208,2.5279,2.4801,2.4419,2.4218,2.4573,2.486,2.5135,2.5508,2.5702,2.5938,2.6115,2.6374,2.7134,2.7665,2.8627,2.9225,2.9194,2.9107,2.8816,2.8517,2.8394,2.8316,2.8374,2.825,2.794,2.7489,2.7185,2.7269,2.7621,2.7371,2.7108,2.7283,2.7418,2.7618,2.7979,2.8674,1.3699,1.4629,1.5096,1.5726,1.6493,1.6742,1.7027,1.7389,1.7345,1.7322,1.7387,1.7345,1.7301,1.729,1.7357,1.7279,1.7092,1.6837,1.6823,1.6904,1.6987,1.717,1.7412,1.7896,1.8294,1.8437,1.8792,1.9003,1.8652,1.8596,1.8608,1.8675,1.8891,1.9173,1.9199,1.9516,1.9719,2.0038,2.0306,2.0716,2.1121,2.1656,2.2131,2.2677,2.3147,2.3929,2.474,2.4991,2.5272,2.5638,2.5797,2.5781,2.5432,2.5273,2.4792,2.4053,2.3846,2.4139,2.4386,2.4794,2.4948,2.5061,2.5328,2.5232,2.5119,2.5129,2.4959,2.4385,2.4333,2.4532,2.4838,2.472,2.5149,2.5589,2.5794,2.5846,2.6325,2.6407,2.6373,2.626,2.5873,2.5725,2.5633,2.5758,2.6175,2.6315,2.6624,2.6806,2.7029,2.7224,2.7602,2.8616,2.949,3.0535,3.0997,3.0991,3.0907,3.0708,3.0226,2.9888,2.9813,2.9783,2.9605,2.9584,2.9633,2.9395,2.9407,2.9002,2.8561,2.8326,2.8591,2.8779,2.8941,2.9311,2.9915,1.4631,1.535,1.6081,1.6688,1.7159,1.7478,1.7701,1.792,1.7746,1.7801,1.808,1.7924,1.7788,1.7831,1.8104,1.8221,1.8278,1.8195,1.8186,1.8226,1.8166,1.8186,1.8244,1.89,1.9294,1.9529,2.0064,1.9703,1.936,1.9087,1.8956,1.9153,1.9747,2.0074,2.01,2.0475,2.1137,2.1205,2.128,2.1479,2.187,2.254,2.3062,2.3501,2.4086,2.4762,2.5404,2.5634,2.5751,2.5796,2.6015,2.5589,2.4898,2.514,2.5303,2.5145,2.4955,2.472,2.4723,2.5191,2.5647,2.5882,2.6059,2.6108,2.6112,2.6227,2.6289,2.6414,2.6275,2.6409,2.6633,2.68,2.7102,2.7229,2.7325,2.7279,2.744,2.7956,2.7919,2.7863,2.7752,2.7463,2.7323,2.7437,2.7579,2.7667,2.774,2.7897,2.8245,2.8492,2.9176,3.0279,3.0809,3.1805,3.1935,3.2052,3.1989,3.1995,3.1631,3.1207,3.1086,3.094,3.1248,3.1227,3.1231,3.0818,3.0131,2.9718,2.9451,2.955,2.9854,3.0063,3.0257,3.069,3.1004,1.58,1.6283,1.6712,1.7415,1.819,1.8398,1.8515,1.862,1.86,1.8623,1.8776,1.8785,1.8762,1.8845,1.9214,1.9399,1.9465,1.9433,1.9548,1.966,1.9554,1.9597,1.9943,2.0307,2.055,2.0576,2.0846,2.0855,2.0292,2.0104,2.0117,2.0307,2.063,2.0887,2.086,2.1239,2.1662,2.2109,2.2643,2.3013,2.3231,2.3799,2.4428,2.4652,2.5136,2.5667,2.6231,2.6751,2.7161,2.7368,2.769,2.7509,2.6959,2.6777,2.6535,2.6528,2.6751,2.6512,2.5991,2.6443,2.678,2.7029,2.7283,2.7354,2.7181,2.7196,2.7476,2.7743,2.7682,2.7954,2.837,2.8422,2.8706,2.8871,2.8929,2.9087,2.907,2.9375,2.9593,2.9623,2.9536,2.9275,2.8884,2.8568,2.857,2.8527,2.864,2.8849,2.9421,3.0137,3.1016,3.2123,3.2478,3.2861,3.2723,3.2594,3.2353,3.2329,3.2219,3.194,3.2032,3.2139,3.212,3.2079,3.1855,3.1339,3.0724,3.0653,3.0694,3.09,3.1121,3.1151,3.111,3.1317,3.1588,1.6621,1.7087,1.7312,1.8056,1.9016,1.9146,1.9283,1.9499,1.934,1.947,1.9636,1.9691,1.9772,1.9914,2.0144,2.0283,2.0383,2.0422,2.0623,2.0759,2.0858,2.089,2.0984,2.1272,2.1334,2.141,2.1272,2.1293,2.1423,2.138,2.1358,2.1437,2.1335,2.1452,2.1582,2.1952,2.2401,2.3041,2.3949,2.4197,2.4239,2.5077,2.5726,2.6156,2.6542,2.7018,2.7799,2.8369,2.9031,2.9225,2.9281,2.9082,2.8852,2.8441,2.8173,2.8233,2.8449,2.8381,2.7971,2.8066,2.8326,2.8506,2.8666,2.8637,2.8396,2.8288,2.8459,2.9033,2.8959,2.932,2.9756,2.9774,3.0022,3.0238,3.0406,3.0746,3.091,3.0792,3.0863,3.0934,3.0947,3.1023,3.0569,2.9825,2.9549,2.9417,2.9554,2.9788,3.057,3.1576,3.2165,3.3065,3.3181,3.3271,3.298,3.2827,3.2633,3.2578,3.2453,3.2398,3.2398,3.2342,3.2287,3.2287,3.2231,3.2038,3.1536,3.1754,3.1996,3.1758,3.1596,3.1788,3.1921,3.2012,3.1996,1.6773,1.7509,1.8093,1.8666,1.9214,1.9448,1.9837,2.0216,1.9935,2.0166,2.068,2.063,2.056,2.0696,2.0746,2.0894,2.0944,2.1068,2.118,2.1229,2.1264,2.1361,2.1485,2.1547,2.1512,2.1485,2.171,2.1883,2.1939,2.2484,2.2068,2.1567,2.2076,2.1965,2.2337,2.3068,2.3665,2.4326,2.5169,2.5361,2.5463,2.6176,2.7258,2.7981,2.858,2.9322,3.0053,3.0084,3.013,3.0299,3.0283,3.0283,3.0081,2.98,2.9663,2.9657,2.984,2.9833,2.9765,2.947,2.9346,2.9514,2.9713,2.9796,2.9611,2.998,3.0201,3.0149,3.0127,3.0464,3.0876,3.1073,3.1152,3.1379,3.1449,3.1581,3.169,3.1747,3.1845,3.213,3.216,3.2089,3.2033,3.1293,3.0878,3.0758,3.1082,3.1341,3.1966,3.2798,3.3065,3.3527,3.3578,3.3471,3.3027,3.2935,3.2904,3.2796,3.2633,3.2523,3.2468,3.2453,3.2398,3.2398,3.2342,3.2342,3.2342,3.2247,3.2109,3.2053,3.1996,3.2109,3.2094,3.2094,3.2094,1.7722,1.807,1.876,1.923,1.9571,2.0104,2.0488,2.0745,2.0664,2.0864,2.1252,2.1175,2.1166,2.1313,2.1492,2.1541,2.1589,2.1554,2.1678,2.1712,2.1759,2.1746,2.1876,2.2159,2.229,2.2179,2.254,2.286,2.281,2.3442,2.3667,2.3512,2.3392,2.3449,2.3843,2.4539,2.5295,2.6063,2.6947,2.7564,2.7878,2.8498,2.9285,2.9526,2.9679,3.0068,3.036,3.0812,3.0951,3.1012,3.1065,3.1118,3.1109,3.0861,3.0706,3.0737,3.0969,3.1102,3.1081,3.0785,3.0662,3.0662,3.0807,3.0768,3.056,3.0474,3.0809,3.0933,3.1118,3.1374,3.2037,3.2083,3.2026,3.2296,3.2413,3.2382,3.2422,3.2477,3.2586,3.2765,3.2834,3.285,3.285,3.2734,3.2415,3.2124,3.2532,3.2834,3.3277,3.3607,3.371,3.3813,3.3848,3.3745,3.3346,3.3293,3.324,3.3027,3.2812,3.2757,3.2703,3.2453,3.2398,3.2398,3.2398,3.2398,3.2342,3.2302,3.2247,3.2206,3.2206,3.2247,3.2247,3.2191,3.2191,1.8879,1.8976,1.9704,1.9965,2.0004,2.0704,2.1118,2.1166,2.1326,2.1458,2.1554,2.1602,2.1712,2.1807,2.1949,2.2044,2.2066,2.213,2.2309,2.2434,2.256,2.256,2.2853,2.3069,2.3238,2.3124,2.3554,2.3929,2.3826,2.4589,2.4861,2.5061,2.5206,2.5226,2.4999,2.6164,2.7055,2.7776,2.8891,2.9487,2.9508,2.9931,3.0258,3.0266,3.0421,3.0794,3.1171,3.1653,3.1995,3.2027,3.2027,3.208,3.2029,3.1847,3.1581,3.1674,3.1894,3.2117,3.2011,3.1797,3.169,3.1636,3.162,3.1443,3.1257,3.1118,3.1694,3.2092,3.2095,3.2229,3.2989,3.2788,3.2703,3.2866,3.285,3.2834,3.3033,3.314,3.3245,3.3351,3.3419,3.3435,3.3435,3.3382,3.3156,3.2926,3.3102,3.3314,3.3523,3.3797,3.3949,3.4,3.4,3.3899,3.3745,3.3591,3.345,3.324,3.3027,3.3043,3.292,3.2687,3.2523,3.2594,3.2594,3.2468,3.2413,3.2358,3.2413,3.2398,3.2398,3.2342,3.2342,3.2302,3.2342,2.0131,2.0272,2.0918,2.0854,2.0469,2.1213,2.1616,2.1602,2.1746,2.1902,2.1996,2.2137,2.2123,2.2184,2.2231,2.2287,2.247,2.2774,2.3076,2.3216,2.3561,2.3878,2.4013,2.4063,2.4198,2.4412,2.4705,2.4912,2.4883,2.5658,2.6041,2.6416,2.6758,2.6816,2.5821,2.7405,2.8481,2.9077,3.0303,3.01,2.9927,3.0306,3.0574,3.0649,3.1137,3.1636,3.206,3.2515,3.2814,3.2845,3.2914,3.2982,3.2988,3.304,3.2961,3.304,3.3103,3.3161,3.3177,3.268,3.2384,3.2338,3.2315,3.2338,3.2656,3.2741,3.2692,3.294,3.2998,3.3061,3.324,3.324,3.3256,3.3256,3.324,3.333,3.3471,3.3626,3.3678,3.3678,3.3781,3.3899,3.3882,3.3832,3.3694,3.3642,3.3745,3.3864,3.3899,3.3949,3.405,3.405,3.4101,3.4,3.3848,3.3797,3.3658,3.345,3.3293,3.3309,3.3203,3.3043,3.2935,3.2897,3.2827,3.2742,3.2578,3.2484,3.2678,3.2927,3.2514,3.2398,3.2398,3.2459,3.2536,2.05,2.0741,2.1369,2.1568,2.152,2.1811,2.2044,2.2123,2.2296,2.2388,2.2463,2.2586,2.2495,2.2402,2.2566,2.2769,2.3075,2.3188,2.3501,2.4189,2.4504,2.4496,2.4704,2.507,2.512,2.5197,2.5508,2.5935,2.5918,2.6803,2.722,2.7584,2.8115,2.8153,2.7921,2.8576,2.9061,2.991,3.0561,3.072,3.0816,3.1341,3.1626,3.1428,3.2111,3.2586,3.2839,3.3187,3.333,3.3346,3.3346,3.3398,3.3503,3.3555,3.3555,3.3555,3.3571,3.345,3.3346,3.3049,3.2904,3.2866,3.2866,3.2935,3.2951,3.3096,3.3293,3.3482,3.353,3.353,3.3503,3.3377,3.3393,3.3519,3.3591,3.3694,3.3848,3.3899,3.3949,3.3949,3.405,3.4182,3.4264,3.4167,3.4034,3.4,3.405,3.405,3.405,3.405,3.4101,3.4101,3.4101,3.405,3.4,3.3899,3.3899,3.3745,3.3642,3.3539,3.345,3.3361,3.3256,3.315,3.3081,3.3027,3.306,3.3178,3.3427,3.3434,3.3255,3.3203,3.3398,3.3229,3.289,2.1528,2.1785,2.2221,2.244,2.2513,2.246,2.2495,2.2586,2.2709,2.2754,2.2814,2.2904,2.2904,2.2857,2.3165,2.34,2.3829,2.4432,2.465,2.5316,2.5628,2.5795,2.6021,2.6173,2.6347,2.6342,2.6738,2.7181,2.724,2.8137,2.8658,2.8979,2.9281,2.9264,2.9247,2.945,2.9924,3.0635,3.1003,3.1373,3.1662,3.1999,3.2207,3.2301,3.2666,3.3176,3.3288,3.3395,3.3555,3.3555,3.3607,3.3642,3.3797,3.3848,3.3848,3.3848,3.3797,3.3745,3.3642,3.3607,3.3435,3.3256,3.3309,3.3256,3.3203,3.3346,3.3539,3.3742,3.3846,3.4062,3.4146,3.4005,3.4281,3.4455,3.4523,3.4659,3.4726,3.4878,3.4862,3.4781,3.4818,3.4836,3.4725,3.4431,3.4333,3.4349,3.4349,3.4349,3.4332,3.4267,3.4217,3.4151,3.4151,3.4151,3.4101,3.405,3.405,3.4101,3.3949,3.3797,3.3745,3.3658,3.3503,3.3414,3.3324,3.3366,3.3773,3.4026,3.4367,3.4573,3.4447,3.4451,3.4515,3.4087,3.3573,2.3128,2.329,2.3451,2.348,2.3451,2.3157,2.2979,2.2949,2.2979,2.3024,2.3172,2.3172,2.3246,2.3555,2.4134,2.4507,2.479,2.5869,2.6318,2.6598,2.701,2.7235,2.7325,2.7435,2.7478,2.7762,2.8046,2.8143,2.8542,2.9247,2.9895,3.0242,3.024,3.0073,2.9974,3.0167,3.0567,3.0932,3.1223,3.1578,3.1933,3.2159,3.2305,3.2498,3.2918,3.3256,3.345,3.3675,3.3935,3.4,3.405,3.405,3.4101,3.4101,3.4101,3.4101,3.4034,3.405,3.4032,3.4032,3.4076,3.3914,3.3789,3.3682,3.3766,3.401,3.4358,3.461,3.482,3.5017,3.5166,3.5501,3.5873,3.5942,3.5942,3.6011,3.6027,3.6097,3.6064,3.6068,3.6124,3.5997,3.5609,3.5283,3.5103,3.5284,3.5366,3.5317,3.5186,3.4562,3.4431,3.425,3.425,3.4201,3.4201,3.4167,3.4101,3.4101,3.4101,3.4,3.3949,3.3931,3.3813,3.3674,3.3566,3.381,3.4438,3.5053,3.554,3.563,3.5822,3.5735,3.5833,3.4992,3.4483,2.2352,2.3008,2.3601,2.3982,2.4193,2.412,2.3894,2.3566,2.3668,2.3696,2.3681,2.3867,2.3925,2.387,2.4694,2.5314,2.6,2.6673,2.7377,2.7791,2.8084,2.8225,2.8304,2.8352,2.8463,2.8559,2.8669,2.8779,2.9077,2.9895,3.0115,2.9993,3.0712,3.0448,3.0364,3.0526,3.0817,3.1043,3.138,3.1688,3.2141,3.2465,3.2611,3.2951,3.3372,3.3663,3.3825,3.3987,3.4165,3.4101,3.4117,3.4117,3.4101,3.4101,3.4101,3.4101,3.4101,3.4117,3.4182,3.4586,3.4826,3.4904,3.509,3.4952,3.4904,3.5041,3.5421,3.5489,3.5687,3.5898,3.6027,3.6351,3.6627,3.6675,3.6675,3.6729,3.6783,3.6836,3.682,3.691,3.6983,3.679,3.6434,3.6322,3.6174,3.639,3.6439,3.6372,3.6124,3.5464,3.507,3.489,3.4628,3.4693,3.4332,3.4199,3.4117,3.4101,3.4232,3.428,3.4262,3.4212,3.4048,3.4194,3.4533,3.4931,3.533,3.6016,3.6849,3.7248,3.7438,3.7271,3.6953,3.6178,3.5697,2.2481,2.3107,2.3902,2.4441,2.4701,2.4726,2.4549,2.4328,2.4261,2.4245,2.4271,2.4395,2.4591,2.5004,2.5784,2.6483,2.7139,2.7903,2.8466,2.8623,2.8858,2.8904,2.8997,2.8997,2.9059,2.9106,2.9198,2.9243,2.9621,3.043,3.0856,3.0403,3.1078,3.0962,3.0768,3.1056,3.1575,3.1639,3.1737,3.1866,3.2368,3.2919,3.3129,3.3616,3.407,3.4151,3.4314,3.4412,3.4543,3.4479,3.4463,3.4561,3.4447,3.425,3.4134,3.4199,3.4457,3.4538,3.4716,3.5266,3.5561,3.589,3.636,3.6405,3.6206,3.6141,3.6157,3.6173,3.6465,3.6724,3.6837,3.695,3.7064,3.7177,3.7232,3.7286,3.7378,3.7416,3.7507,3.7613,3.7535,3.7406,3.7279,3.7166,3.7069,3.7037,3.7102,3.7166,3.7,3.6636,3.6289,3.6092,3.563,3.5283,3.4923,3.4676,3.4595,3.4676,3.4772,3.4855,3.4689,3.5017,3.5344,3.5611,3.5876,3.6274,3.6721,3.7469,3.8218,3.8562,3.8791,3.8698,3.8264,3.7592,3.7359,2.3115,2.3437,2.4318,2.4791,2.5005,2.5045,2.5068,2.5107,2.4831,2.4751,2.4815,2.4855,2.525,2.5686,2.6449,2.7238,2.7858,2.8602,2.9048,2.9335,2.9412,2.9457,2.9457,2.9518,2.9502,2.9531,2.9624,2.9749,3.0258,3.0981,3.148,3.1121,3.2222,3.2237,3.1299,3.1769,3.2318,3.2625,3.2819,3.3014,3.3291,3.3453,3.3616,3.4298,3.4543,3.4609,3.484,3.5069,3.5332,3.5235,3.5234,3.5382,3.4824,3.4677,3.4513,3.4624,3.508,3.5324,3.56,3.6173,3.6466,3.6829,3.7273,3.7625,3.7629,3.7215,3.7129,3.7145,3.746,3.7644,3.7742,3.7959,3.809,3.8084,3.8139,3.8194,3.8248,3.8339,3.8377,3.8451,3.8372,3.8259,3.828,3.8218,3.822,3.7903,3.7968,3.8166,3.8193,3.7961,3.753,3.73,3.6798,3.6348,3.6122,3.5842,3.5381,3.5365,3.558,3.5662,3.5811,3.6222,3.6748,3.6887,3.697,3.7719,3.8303,3.8841,3.9277,3.9598,3.9783,3.9919,3.956,3.8867,3.8521,2.2842,2.3169,2.4598,2.5224,2.5317,2.541,2.5464,2.5486,2.541,2.531,2.5201,2.5233,2.5352,2.5798,2.6463,2.721,2.7991,2.8732,2.927,2.9581,2.9786,2.9742,2.9786,2.9742,2.9786,2.983,2.9955,3.0324,3.1112,3.1792,3.2136,3.199,3.2852,3.269,3.1976,3.256,3.3112,3.3532,3.425,3.4594,3.4956,3.5153,3.5365,3.5975,3.629,3.629,3.6489,3.6704,3.6569,3.6296,3.6306,3.5894,3.5011,3.5364,3.5482,3.5531,3.6022,3.635,3.668,3.7124,3.7571,3.7992,3.8427,3.8847,3.8927,3.8454,3.8226,3.8351,3.8384,3.8574,3.8673,3.8837,3.8952,3.8969,3.8969,3.904,3.911,3.9164,3.9255,3.9226,3.9179,3.9149,3.9222,3.9259,3.9311,3.943,3.9597,3.9795,3.9915,3.9757,3.8931,3.8581,3.804,3.7623,3.7401,3.7087,3.6606,3.658,3.6851,3.6887,3.6954,3.7336,3.7769,3.7869,3.8065,3.8734,3.9338,3.971,4.0148,4.0336,4.037,4.037,4.037,3.9834,3.9543,2.2718,2.3327,2.4857,2.5513,2.553,2.5616,2.5616,2.5681,2.5956,2.6008,2.5867,2.5641,2.5593,2.5889,2.6444,2.7187,2.8029,2.8579,2.9243,2.9696,2.9918,2.9874,2.9918,2.9967,2.9874,2.9951,3.0401,3.0994,3.2151,3.2485,3.2733,3.2649,3.3108,3.3403,3.2945,3.345,3.3906,3.4272,3.5509,3.6252,3.6584,3.6719,3.6704,3.7253,3.7402,3.75,3.7795,3.799,3.7963,3.7461,3.7274,3.6724,3.6156,3.6236,3.648,3.6752,3.717,3.7618,3.7902,3.8269,3.8787,3.9193,3.9446,3.9834,4.0051,3.9632,3.9341,3.941,3.9218,3.9285,3.9215,3.9348,3.9259,3.9222,3.9292,3.9398,3.9415,3.9468,3.952,3.9504,3.9489,3.9594,3.9681,3.9851,3.9901,4.005,4.0385,4.0628,4.0913,4.1146,4.0446,3.987,3.934,3.9053,3.8883,3.8454,3.7906,3.8006,3.8173,3.8366,3.8504,3.8605,3.8805,3.8935,3.9183,3.9668,4.0192,4.0394,4.0511,4.0662,4.068,4.0662,4.0662,4.0614,4.0353,2.271,2.3823,2.5147,2.5738,2.5738,2.5675,2.5654,2.5767,2.6383,2.6691,2.6659,2.6189,2.6335,2.6523,2.6766,2.7656,2.832,2.8628,2.9194,2.974,2.9918,3.0036,3.0145,3.0157,3.0298,3.0603,3.1083,3.2241,3.3491,3.3485,3.3277,3.3159,3.3623,3.4266,3.4209,3.4466,3.4844,3.5417,3.6337,3.7376,3.7802,3.8099,3.8122,3.8075,3.817,3.8295,3.8751,3.9061,3.9364,3.8866,3.8313,3.7749,3.7494,3.7496,3.7716,3.8116,3.8616,3.8937,3.9123,3.9562,3.9999,4.0317,4.0449,4.0642,4.0849,4.0754,4.0514,4.0319,4.012,3.9969,3.9851,3.9817,3.9714,3.9679,3.9747,3.9764,3.9764,3.9764,3.9781,3.9798,3.9901,4.0003,4.0188,4.0419,4.0549,4.0662,4.0836,4.1117,4.1328,4.1525,4.1332,4.1025,4.0762,4.0499,4.0315,3.9904,3.9326,3.9381,3.9623,3.9819,3.9931,3.9761,3.981,4.0178,4.0477,4.0474,4.0603,4.0707,4.0823,4.0888,4.0823,4.0776,4.0823,4.0776,4.0823,2.3324,2.4722,2.5592,2.601,2.6046,2.5934,2.5897,2.5995,2.6521,2.6847,2.7104,2.748,2.7401,2.6717,2.6701,2.7356,2.8298,2.8647,2.9237,2.9777,3.0076,3.0324,3.0628,3.0947,3.1188,3.1621,3.2232,3.3361,3.4297,3.4172,3.418,3.4559,3.4701,3.5035,3.5015,3.5287,3.5633,3.6314,3.7418,3.858,3.8876,3.9254,3.9836,4.006,4.0528,4.0648,4.0826,4.1031,4.0736,4.0253,3.955,3.9038,3.885,3.892,3.9212,3.9439,4.0001,4.0208,4.0431,4.0552,4.0896,4.0926,4.1082,4.1283,4.148,4.1604,4.1391,4.1283,4.1082,4.0849,4.0737,4.0659,4.0628,4.0483,4.0549,4.0303,4.0171,4.0171,4.0171,4.0271,4.037,4.0566,4.0741,4.0884,4.1007,4.1117,4.1318,4.1542,4.1701,4.1892,4.2079,4.1955,4.1789,4.1853,4.1654,4.1331,4.0955,4.0963,4.0774,4.0578,4.0494,4.0531,4.0697,4.0728,4.0776,4.0772,4.0871,4.0871,4.0871,4.0888,4.0871,4.0871,4.0871,4.0871,4.0871]},{"header":{"parameterUnit":"m.s-1","parameterCategory":1,"la1":31.0,"la2":29.5877,"lo1":-88.7671,"lo2":-86.6584,"dy":0.0162,"dx":0.0185,"nx":115,"ny":88,"refTime":"2023-11-17T18:00:00:Z","depth":0,"parameterNumber":3,"parameterNumberName":"V-component_of_WINDS"},"data":[0.0,0.0,0.0,0.0,0.0,0.0,0.0,0.0,0.0,0.0,0.0,0.0,0.0,0.0,0.0,0.0,0.0,0.0,0.0,0.0,0.0,0.0,0.0,0.0,0.0,0.0,0.0,0.0,0.0,0.0,0.0,0.0,0.0,0.0,0.0,0.0,0.0,0.0,0.0,0.0,0.0,0.0,0.0,0.0,0.0,0.0,0.0,0.0,0.0,0.0,0.0,0.0,0.0,0.0,0.0,0.0,0.0,0.0,0.0,0.0,0.0,0.0,0.0,0.0,0.0,0.0,0.0,0.0,0.0,0.0,0.0,0.0,0.0,0.0,0.0,0.0,0.0,0.0,0.0,0.0,0.0,0.0,0.0,0.0,0.0,0.0,0.0,0.0,0.0,0.0,0.0,0.0,0.0,0.0,0.0,0.0,0.0,0.0,0.0,0.0,0.0,0.0,0.0,0.0,0.0,0.0,0.0,0.0,0.0,0.0,0.0,0.0,0.0,0.0,0.0,0.0,0.0,0.0,0.0,0.0,0.0,0.0,0.0,0.0,0.0,0.0,0.0,0.0,0.0,0.0,0.0,0.0,0.0,0.0,0.0,0.0,0.0,0.0,0.0,0.0,0.0,0.0,0.0,0.0,0.0,0.0,0.0,0.0,0.0,0.0,0.0,0.0,0.0,0.0,0.0,0.0,0.0,0.0,0.0,0.0,0.0,0.0,0.0,0.0,0.0,0.0,0.0,0.0,0.0,0.0,0.0,0.0,0.0,0.0,0.0,0.0,0.0,0.0,0.0,0.0,0.0,0.0,0.0,0.0,0.0,0.0,0.0,0.0,0.0,0.0,0.0,0.0,0.0,0.0,0.0,0.0,0.0,0.0,0.0,0.0,0.0,0.0,0.0,0.0,0.0,0.0,0.0,0.0,0.0,0.0,0.0,0.0,0.0,0.0,0.0,0.0,0.0,0.0,0.0,0.0,0.0,0.0,0.0,0.0,0.0,0.0,0.0,0.0,0.0,0.0,0.0,0.0,0.0,0.0,0.0,0.0,0.0,0.0,0.0,0.0,0.0,0.0,0.0,0.0,0.0,0.0,0.0,0.0,0.0,0.0,0.0,0.0,0.0,0.0,0.0,0.0,0.0,0.0,0.0,0.0,0.0,0.0,0.0,0.0,0.0,0.0,0.0,0.0,0.0,0.0,0.0,0.0,0.0,0.0,0.0,0.0,0.0,0.0,0.0,0.0,0.0,0.0,0.0,0.0,0.0,0.0,0.0,0.0,0.0,0.0,0.0,0.0,0.0,0.0,0.0,0.0,0.0,0.0,0.0,0.0,0.0,0.0,0.0,0.0,0.0,0.0,0.0,0.0,0.0,0.0,0.0,0.0,0.0,0.0,0.0,0.0,0.0,0.0,0.0,0.0,0.0,0.0,0.0,0.0,0.0,0.0,0.0,0.0,0.0,0.0,0.0,0.0,0.0,0.0,0.0,0.0,0.0,0.0,0.0,0.0,0.0,0.0,0.0,0.0,0.0,0.0,0.0,0.0,0.0,0.0,0.0,0.0,0.0,0.0,0.0,0.0,0.0,0.0,0.0,0.0,0.0,0.0,0.0,0.0,0.0,0.0,0.0,0.0,0.0,0.0,0.0,0.0,0.0,0.0,0.0,0.0,0.0,0.0,0.0,0.0,0.0,0.0,0.0,0.0,0.0,0.0,0.0,0.0,0.0,0.0,0.0,0.0,0.0,0.0,0.0,0.0,0.0,0.0,0.0,0.0,0.0,0.0,0.0,0.0,0.0,0.0,0.0,0.0,0.0,0.0,0.0,0.0,0.0,0.0,0.0,0.0,0.0,0.0,0.0,0.0,0.0,0.0,0.0,0.0,0.0,0.0,0.0,0.0,0.0,0.0,0.0,0.0,0.0,0.0,0.0,0.0,0.0,0.0,0.0,0.0,0.0,0.0,0.0,0.0,0.0,0.0,0.0,0.0,0.0,0.0,0.0,0.0,0.0,0.0,0.0,0.0,0.0,0.0,0.0,0.0,0.0,0.0,0.0,0.0,0.0,0.0,0.0,0.0,0.0,0.0,0.0,0.0,0.0,0.0,0.0,0.0,0.0,0.0,0.0,0.0,0.0,0.0,0.0,0.0,0.0,0.0,0.0,0.0,0.0,0.0,0.0,0.0,0.0,0.0,0.0,0.0,0.0,0.0,0.0,0.0,0.0,0.0,0.0,0.0,0.0,0.0,0.0,0.0,0.0,0.0,0.0,0.0,0.0,0.0,0.0,0.0,0.0,0.0,0.0,0.0,0.0,0.0,0.0,0.0,0.0,0.0,0.0,0.0,0.0,0.0,0.0,0.0,0.0,0.0,0.0,0.0,0.0,0.0,0.0,0.0,0.0,0.0,0.0,0.0,0.0,0.0,0.0,0.0,0.0,0.0,0.0,0.0,0.0,0.0,0.0,0.0,0.0,0.0,0.0,0.0,0.0,0.0,0.0,0.0,0.0,0.0,0.0,0.0,0.0,0.0,0.0,0.0,0.0,0.0,0.0,0.0,0.0,0.0,0.0,0.0,0.0,0.0,0.0,0.0,0.0,0.0,0.0,0.0,0.0,0.0,0.0,0.0,0.0,0.0,0.0,0.0,0.0,0.0,0.0,0.0,0.0,0.0,0.0,0.0,0.0,0.0,0.0,0.0,0.0,0.0,0.0,0.0,0.0,0.0,0.0,0.0,0.0,0.0,0.0,0.0,0.0,0.0,0.0,0.0,0.0,0.0,0.0,0.0,0.0,0.0,0.0,0.0,0.0,0.0,0.0,0.0,0.0,0.0,0.0,0.0,0.0,0.0,0.0,0.0,0.0,0.0,0.0,0.0,0.0,0.0,0.0,0.0,0.0,0.0,0.0,0.0,0.0,0.0,0.0,0.0,0.0,0.0,0.0,0.0,0.0,0.0,0.0,0.0,0.0,0.0,0.0,0.0,0.0,0.0,0.0,0.0,0.0,0.0,0.0,0.0,0.0,0.0,0.0,0.0,0.0,0.0,0.0,0.0,0.0,0.0,0.0,0.0,0.0,0.0,0.0,0.0,0.0,0.0,0.0,0.0,0.0,0.0,0.0,0.0,0.0,0.0,0.0,0.0,0.0,0.0,0.0,0.0,0.0,0.0,0.0,0.0,0.0,0.0,0.0,0.0,0.0,0.0,0.0,0.0,0.0,0.0,0.0,0.0,0.0,0.0,0.0,0.0,0.0,0.0,0.0,0.0,0.0,0.0,0.0,0.0,0.0,0.0,0.0,0.0,0.0,0.0,0.0,0.0,0.0,0.0,0.0,0.0,0.0,0.0,0.0,0.0,0.0,0.0,0.0,0.0,0.0,0.0,0.0,0.0,0.0,0.0,0.0,0.0,0.0,0.0,0.0,0.0,0.0,0.0,0.0,0.0,0.0,0.0,0.0,0.0,0.0,0.0,0.0,0.0,0.0,0.0,0.0,0.0,0.0,0.0,0.0,0.0,0.0,0.0,0.0,0.0,0.0,0.0,0.0,0.0,0.0,0.0,0.0,0.0,0.0,0.0,0.0,0.0,0.0,0.0,0.0,0.0,0.0,0.0,0.0,0.0,0.0,0.0,0.0,0.0,0.0,0.0,0.0,0.0,0.0,0.0,0.0,0.0,0.0,0.0,0.0,0.0,0.0,0.0,0.0,0.0,0.0,0.0,0.0,0.0,0.0,0.0,0.0,0.0,0.0,0.0,0.0,0.0,0.0,0.0,0.0,0.0,0.0,0.0,0.0,0.0,0.0,0.0,0.0,0.0,0.0,0.0,0.0,0.0,0.0,0.0,0.0,0.0,0.0,0.0,0.0,0.0,0.0,0.0,0.0,0.0,0.0,0.0,0.0,0.0,0.0,0.0,0.0,0.0,0.0,0.0,0.0,0.0,0.0,0.0,0.0,0.0,0.0,0.0,0.0,0.0,0.0,0.0,0.0,0.0,0.0,0.0,0.0,0.0,0.0,0.0,0.0,0.0,0.0,0.0,0.0,0.0,0.0,0.0,0.0,0.0,0.0,0.0,0.0,0.0,0.0,0.0,0.0,0.0,0.0,0.0,0.0,0.0,0.0,0.0,0.0,0.0,0.0,0.0,0.0,0.0,0.0,0.0,0.0,0.0,0.0,0.0,0.0,0.0,0.0,0.0,0.0,0.0,0.0,0.0,0.0,0.0,0.0,0.0,0.0,0.0,0.0,0.0,0.0,0.0,0.0,0.0,0.0,0.0,0.0,0.0,-0.5913,0.0,0.0,0.0,0.0,0.0,0.0,0.0,0.0,0.0,0.0,0.0,0.0,0.0,0.0,0.0,0.0,0.0,0.0,0.0,0.0,0.0,0.0,0.0,0.0,0.0,0.0,0.0,0.0,0.0,0.0,0.0,0.0,0.0,0.0,0.0,0.0,0.0,0.0,0.0,0.0,0.0,0.0,0.0,0.0,0.0,0.0,0.0,0.0,0.0,0.0,0.0,0.0,0.0,0.0,0.0,0.0,0.0,0.0,0.0,0.0,0.0,0.0,0.0,0.0,0.0,0.0,0.0,0.0,0.0,0.0,0.0,0.0,0.0,0.0,0.0,0.0,0.0,0.0,0.0,0.0,0.0,0.0,0.0,0.0,0.0,0.0,0.0,0.0,0.0,0.0,0.0,0.0,0.0,0.0,0.0,0.0,0.0,0.0,0.0,0.0,0.0,0.0,0.0,0.0,0.0,0.0,0.0,0.0,0.0,0.0,-0.7378,-0.7599,-0.7141,-0.6652,-0.6196,0.0,0.0,0.0,0.0,0.0,0.0,0.0,0.0,0.0,0.0,0.0,0.0,0.0,0.0,0.0,0.0,0.0,0.0,0.0,0.0,0.0,0.0,0.0,0.0,0.0,0.0,0.0,0.0,0.0,0.0,0.0,0.0,0.0,0.0,0.0,0.0,0.0,0.0,0.0,0.0,0.0,0.0,0.0,0.0,0.0,0.0,0.0,0.0,0.0,0.0,0.0,0.0,0.0,0.0,0.0,0.0,0.0,0.0,0.0,0.0,0.0,0.0,0.0,0.0,0.0,0.0,0.0,0.0,0.0,0.0,0.0,0.0,0.0,0.0,0.0,0.0,0.0,0.0,0.0,0.0,0.0,0.0,0.0,0.0,0.0,0.0,0.0,0.0,0.0,0.0,0.0,0.0,0.0,0.0,0.0,0.0,0.0,0.0,0.0,0.0,0.0,0.0,0.0,0.0,0.0,0.0,0.0,0.0,0.0,0.0,0.0,0.0,-0.7268,-0.6793,-0.6336,0.0,0.0,0.0,0.0,0.0,0.0,0.0,0.0,0.0,0.0,0.0,0.0,0.0,0.0,0.0,0.0,0.0,0.0,0.0,0.0,0.0,0.0,0.0,0.0,0.0,0.0,0.0,0.0,0.0,0.0,0.0,0.0,0.0,0.0,0.0,0.0,0.0,0.0,0.0,0.0,0.0,0.0,0.0,0.0,0.0,0.0,0.0,0.0,0.0,0.0,0.0,0.0,0.0,0.0,0.0,0.0,0.0,0.0,0.0,0.0,0.0,0.0,0.0,0.0,0.0,0.0,0.0,0.0,0.0,0.0,0.0,0.0,0.0,0.0,0.0,0.0,0.0,0.0,0.0,0.0,0.0,0.0,0.0,0.0,0.0,0.0,0.0,0.0,0.0,0.0,0.0,0.0,0.0,0.0,0.0,0.0,0.0,0.0,0.0,0.0,0.0,0.0,0.0,0.0,0.0,0.0,0.0,0.0,0.0,0.0,-0.7334,-0.7697,-0.7516,0.0,-0.6172,0.0,0.0,0.0,0.0,0.0,0.0,0.0,0.0,0.0,0.0,0.0,0.0,0.0,0.0,0.0,0.0,0.0,0.0,0.0,0.0,0.0,0.0,0.0,0.0,0.0,0.0,0.0,0.0,0.0,0.0,0.0,0.0,0.0,0.0,0.0,0.0,0.0,0.0,0.0,0.0,0.0,0.0,0.0,0.0,0.0,0.0,0.0,0.0,0.0,0.0,0.0,0.0,0.0,0.0,0.0,0.0,0.0,0.0,0.0,0.0,0.0,0.0,0.0,0.0,0.0,0.0,0.0,0.0,0.0,0.0,0.0,0.0,0.0,0.0,0.0,0.0,0.0,0.0,0.0,0.0,0.0,0.0,0.0,0.0,0.0,0.0,0.0,0.0,0.0,0.0,0.0,0.0,0.0,0.0,0.0,0.0,0.0,0.0,0.0,0.0,0.0,0.0,0.0,0.0,0.0,0.0,0.0,0.0,0.0,0.0,-0.7425,-0.767,-0.7325,-0.6823,0.0,0.0,0.0,0.0,0.0,0.0,0.0,0.0,0.0,0.0,0.0,0.0,0.0,0.0,0.0,0.0,0.0,0.0,0.0,0.0,0.0,0.0,0.0,0.0,0.0,0.0,0.0,0.0,0.0,0.0,0.0,0.0,0.0,0.0,0.0,0.0,0.0,0.0,0.0,0.0,0.0,0.0,0.0,0.0,0.0,0.0,0.0,0.0,0.0,0.0,0.0,0.0,0.0,0.0,0.0,0.0,0.0,0.0,0.0,0.0,0.0,0.0,0.0,0.0,0.0,0.0,0.0,0.0,0.0,0.0,0.0,0.0,0.0,0.0,0.0,0.0,0.0,0.0,0.0,0.0,0.0,0.0,0.0,0.0,0.0,0.0,0.0,0.0,0.0,0.0,0.0,0.0,0.0,0.0,0.0,0.0,0.0,0.0,0.0,0.0,0.0,0.0,0.0,0.0,0.0,0.0,0.0,0.0,0.0,0.0,-0.7487,-0.7671,-0.7765,-0.7237,-0.68,-0.6417,0.0,0.0,0.0,0.0,0.0,0.0,0.0,0.0,0.0,0.0,0.0,0.0,0.0,0.0,0.0,0.0,0.0,0.0,0.0,0.0,0.0,0.0,0.0,0.0,0.0,0.0,0.0,0.0,0.0,0.0,0.0,0.0,0.0,0.0,0.0,0.0,0.0,0.0,0.0,0.0,0.0,0.0,0.0,0.0,0.0,0.0,0.0,0.0,0.0,0.0,0.0,0.0,0.0,0.0,0.0,0.0,0.0,0.0,0.0,0.0,0.0,0.0,0.0,0.0,0.0,0.0,0.0,0.0,0.0,0.0,0.0,0.0,0.0,0.0,0.0,0.0,0.0,0.0,0.0,0.0,0.0,0.0,0.0,0.0,0.0,0.0,0.0,0.0,0.0,0.0,0.0,0.0,0.0,0.0,0.0,0.0,0.0,0.0,0.0,0.0,0.0,0.0,0.0,0.0,0.0,0.0,0.0,0.0,-0.7503,-0.7913,-0.8103,-0.7972,-0.7469,-0.7075,0.0,0.0,0.0,0.0,0.0,0.0,0.0,0.0,0.0,0.0,0.0,0.0,0.0,0.0,0.0,0.0,0.0,0.0,0.0,0.0,0.0,0.0,0.0,0.0,0.0,0.0,0.0,0.0,0.0,0.0,0.0,0.0,0.0,0.0,0.0,0.0,0.0,0.0,0.0,0.0,0.0,0.0,0.0,0.0,0.0,0.0,0.0,0.0,0.0,0.0,0.0,0.0,0.0,0.0,0.0,0.0,0.0,0.0,0.0,0.0,0.0,0.0,0.0,0.0,0.0,0.0,0.0,0.0,0.0,0.0,0.0,0.0,0.0,0.0,0.0,0.0,0.0,0.0,0.0,0.0,0.0,0.0,0.0,0.0,0.0,0.0,0.0,0.0,0.0,0.0,0.0,0.0,0.0,0.0,0.0,0.0,0.0,0.0,0.0,0.0,0.0,0.0,0.0,0.0,0.0,0.0,0.0,0.0,0.0,-0.7853,-0.7999,-0.8021,-0.8005,-0.7589,-0.7311,0.0,0.0,0.0,0.0,0.0,0.0,0.0,0.0,0.0,0.0,0.0,0.0,0.0,0.0,0.0,0.0,0.0,0.0,0.0,0.0,0.0,0.0,0.0,0.0,0.0,0.0,0.0,0.0,0.0,0.0,0.0,0.0,0.0,0.0,0.0,0.0,0.0,0.0,0.0,0.0,0.0,0.0,0.0,0.0,0.0,0.0,0.0,0.0,0.0,0.0,0.0,0.0,0.0,0.0,0.0,0.0,0.0,0.0,0.0,0.0,0.0,0.0,0.0,0.0,0.0,0.0,0.0,0.0,0.0,0.0,0.0,0.0,0.0,0.0,0.0,0.0,0.0,0.0,0.0,0.0,0.0,0.0,0.0,0.0,0.0,0.0,0.0,0.0,0.0,0.0,0.0,0.0,0.0,0.0,0.0,0.0,0.0,0.0,0.0,0.0,0.0,0.0,0.0,0.0,0.0,0.0,0.0,0.0,0.0,-0.8298,0.0,-0.8185,0.0,-0.7843,-0.7571,0.0,0.0,0.0,0.0,0.0,0.0,0.0,0.0,0.0,0.0,0.0,0.0,0.0,0.0,0.0,0.0,0.0,0.0,0.0,0.0,0.0,0.0,0.0,0.0,0.0,0.0,0.0,0.0,0.0,0.0,0.0,0.0,0.0,0.0,0.0,0.0,0.0,0.0,0.0,0.0,0.0,0.0,0.0,0.0,0.0,0.0,0.0,0.0,0.0,0.0,0.0,0.0,0.0,0.0,0.0,0.0,0.0,0.0,0.0,0.0,0.0,0.0,0.0,0.0,0.0,0.0,0.0,0.0,0.0,0.0,0.0,0.0,0.0,0.0,0.0,0.0,0.0,0.0,0.0,0.0,0.0,0.0,0.0,0.0,0.0,0.0,0.0,0.0,0.0,0.0,0.0,0.0,0.0,0.0,0.0,0.0,0.0,0.0,0.0,0.0,0.0,0.0,0.0,0.0,0.0,0.0,0.0,0.0,-0.8746,-0.8854,-0.861,-0.861,-0.8903,-0.8127,-0.7823,0.0,0.0,0.0,0.0,0.0,0.0,0.0,0.0,0.0,0.0,0.0,0.0,0.0,0.0,0.0,0.0,0.0,0.0,0.0,0.0,0.0,0.0,0.0,0.0,0.0,0.0,0.0,0.0,0.0,0.0,0.0,0.0,0.0,0.0,0.0,0.0,0.0,0.0,0.0,0.0,0.0,0.0,0.0,0.0,0.0,0.0,0.0,0.0,0.0,0.0,0.0,0.0,0.0,0.0,0.0,0.0,0.0,0.0,0.0,0.0,0.0,0.0,0.0,0.0,0.0,0.0,0.0,0.0,0.0,0.0,0.0,0.0,0.0,0.0,0.0,0.0,0.0,0.0,0.0,0.0,0.0,0.0,0.0,0.0,0.0,0.0,0.0,0.0,0.0,0.0,0.0,0.0,0.0,0.0,0.0,0.0,0.0,0.0,0.0,0.0,0.0,0.0,0.0,0.0,0.0,0.0,0.0,0.0,0.0,-0.8903,-0.883,-0.8903,-0.9142,-0.8538,-0.8332,0.0,0.0,0.0,0.0,0.0,0.0,0.0,0.0,0.0,0.0,0.0,0.0,0.0,0.0,0.0,0.0,0.0,0.0,0.0,0.0,0.0,0.0,0.0,0.0,0.0,0.0,0.0,0.0,0.0,0.0,0.0,0.0,0.0,0.0,0.0,0.0,0.0,0.0,0.0,0.0,0.0,0.0,0.0,0.0,0.0,0.0,0.0,0.0,0.0,0.0,0.0,0.0,0.0,0.0,0.0,0.0,0.0,0.0,0.0,0.0,0.0,0.0,0.0,0.0,0.0,0.0,0.0,0.0,0.0,0.0,0.0,0.0,0.0,0.0,0.0,0.0,0.0,0.0,0.0,0.0,0.0,0.0,0.0,0.0,0.0,0.0,0.0,0.0,0.0,0.0,0.0,0.0,0.0,0.0,0.0,0.0,0.0,0.0,0.0,0.0,0.0,0.0,0.0,0.0,0.0,0.0,0.0,0.0,0.0,-0.9819,-0.9671,-0.9713,-0.9987,-0.9591,-0.9392,-0.9368,0.0,0.0,0.0,0.0,0.0,0.0,0.0,0.0,0.0,0.0,0.0,0.0,0.0,0.0,0.0,0.0,0.0,0.0,0.0,0.0,0.0,0.0,0.0,0.0,0.0,0.0,0.0,0.0,0.0,0.0,0.0,0.0,0.0,0.0,0.0,0.0,0.0,0.0,0.0,0.0,0.0,0.0,0.0,0.0,0.0,0.0,0.0,0.0,0.0,0.0,0.0,0.0,0.0,0.0,0.0,0.0,0.0,0.0,0.0,0.0,0.0,0.0,0.0,0.0,0.0,0.0,0.0,0.0,0.0,0.0,0.0,0.0,0.0,0.0,0.0,0.0,0.0,0.0,0.0,0.0,0.0,0.0,0.0,0.0,0.0,0.0,0.0,0.0,0.0,0.0,0.0,0.0,0.0,0.0,0.0,0.0,0.0,0.0,0.0,0.0,0.0,0.0,0.0,0.0,0.0,0.0,0.0,0.0,-1.1567,-1.1139,-1.1057,-1.1266,-1.1193,-1.0852,0.0,0.0,0.0,0.0,0.0,0.0,0.0,0.0,0.0,0.0,0.0,0.0,0.0,0.0,0.0,0.0,0.0,0.0,0.0,0.0,0.0,0.0,0.0,0.0,0.0,0.0,0.0,0.0,0.0,0.0,0.0,0.0,0.0,0.0,0.0,0.0,0.0,0.0,0.0,0.0,0.0,0.0,0.0,0.0,0.0,0.0,0.0,0.0,0.0,0.0,0.0,0.0,0.0,0.0,0.0,0.0,0.0,0.0,0.0,0.0,0.0,0.0,0.0,0.0,0.0,0.0,0.0,0.0,0.0,0.0,0.0,0.0,0.0,0.0,0.0,0.0,0.0,0.0,0.0,0.0,0.0,0.0,0.0,0.0,0.0,0.0,0.0,0.0,0.0,0.0,0.0,0.0,0.0,0.0,0.0,0.0,0.0,0.0,0.0,0.0,0.0,0.0,0.0,0.0,0.0,0.0,0.0,0.0,0.0,-1.2213,-1.3346,-1.3751,-1.3269,-1.2207,-1.1784,0.0,0.0,0.0,0.0,0.0,0.0,0.0,0.0,0.0,0.0,0.0,0.0,0.0,0.0,0.0,0.0,0.0,0.0,0.0,0.0,0.0,0.0,0.0,0.0,0.0,0.0,0.0,0.0,0.0,0.0,0.0,0.0,0.0,0.0,0.0,0.0,0.0,0.0,0.0,0.0,0.0,0.0,0.0,0.0,0.0,0.0,0.0,0.0,0.0,0.0,0.0,0.0,0.0,0.0,0.0,0.0,0.0,0.0,0.0,0.0,0.0,0.0,0.0,0.0,0.0,0.0,0.0,0.0,0.0,0.0,0.0,0.0,0.0,0.0,0.0,0.0,0.0,0.0,0.0,0.0,0.0,0.0,0.0,0.0,0.0,0.0,0.0,0.0,0.0,0.0,0.0,0.0,0.0,0.0,0.0,0.0,0.0,0.0,0.0,0.0,0.0,0.0,0.0,0.0,0.0,0.0,0.0,0.0,-1.2403,-1.331,-1.4868,-1.5708,-1.5719,-1.401,-1.3046,0.0,0.0,0.0,0.0,0.0,0.0,0.0,0.0,0.0,0.0,0.0,0.0,0.0,0.0,0.0,0.0,0.0,0.0,0.0,0.0,0.0,0.0,0.0,0.0,0.0,0.0,0.0,0.0,0.0,0.0,0.0,0.0,0.0,0.0,0.0,0.0,0.0,0.0,0.0,0.0,0.0,0.0,0.0,0.0,0.0,0.0,0.0,0.0,0.0,0.0,0.0,0.0,0.0,0.0,0.0,0.0,0.0,0.0,0.0,0.0,0.0,0.0,0.0,0.0,0.0,0.0,0.0,0.0,0.0,0.0,0.0,0.0,0.0,0.0,0.0,0.0,0.0,0.0,0.0,0.0,0.0,0.0,0.0,0.0,0.0,0.0,0.0,0.0,0.0,0.0,0.0,0.0,0.0,0.0,0.0,0.0,0.0,0.0,0.0,0.0,0.0,0.0,0.0,0.0,0.0,0.0,0.0,0.0,-1.3591,-1.4444,-1.5879,-1.7102,-1.7903,-1.5991,-1.4586,0.0,0.0,0.0,0.0,0.0,0.0,0.0,0.0,0.0,0.0,0.0,0.0,0.0,0.0,0.0,0.0,0.0,0.0,0.0,0.0,0.0,0.0,0.0,0.0,0.0,0.0,0.0,0.0,0.0,0.0,0.0,0.0,0.0,0.0,0.0,0.0,0.0,0.0,0.0,0.0,0.0,0.0,0.0,0.0,0.0,0.0,0.0,0.0,0.0,0.0,0.0,0.0,0.0,0.0,0.0,0.0,0.0,0.0,0.0,0.0,0.0,0.0,0.0,0.0,0.0,0.0,0.0,0.0,0.0,0.0,0.0,0.0,0.0,0.0,0.0,0.0,0.0,0.0,0.0,0.0,0.0,0.0,0.0,0.0,0.0,0.0,0.0,0.0,0.0,0.0,0.0,0.0,0.0,0.0,0.0,0.0,0.0,0.0,0.0,0.0,0.0,0.0,0.0,0.0,0.0,0.0,0.0,0.0,-1.4903,-1.4951,-1.6718,-1.7583,-1.764,-1.6356,-1.5757,0.0,0.0,0.0,0.0,0.0,0.0,0.0,0.0,0.0,0.0,0.0,0.0,0.0,0.0,0.0,0.0,0.0,0.0,0.0,0.0,0.0,0.0,0.0,0.0,0.0,0.0,0.0,0.0,0.0,0.0,0.0,0.0,0.0,0.0,0.0,0.0,0.0,0.0,0.0,0.0,0.0,0.0,0.0,0.0,0.0,0.0,0.0,0.0,-0.8319,0.0,0.0,0.0,0.0,0.0,0.0,0.0,0.0,0.0,0.0,0.0,0.0,0.0,0.0,0.0,0.0,0.0,0.0,0.0,0.0,0.0,0.0,0.0,0.0,0.0,0.0,0.0,0.0,0.0,0.0,0.0,0.0,0.0,0.0,0.0,0.0,0.0,0.0,0.0,0.0,0.0,0.0,0.0,0.0,0.0,0.0,0.0,0.0,0.0,0.0,0.0,0.0,0.0,0.0,0.0,0.0,0.0,0.0,0.0,-1.5531,-1.6027,-1.7132,-1.7769,-1.7739,-1.7107,-1.6881,0.0,0.0,0.0,0.0,0.0,0.0,0.0,0.0,0.0,0.0,0.0,0.0,0.0,0.0,0.0,0.0,0.0,0.0,0.0,0.0,0.0,0.0,0.0,0.0,0.0,0.0,0.0,0.0,0.0,0.0,0.0,0.0,0.0,0.0,0.0,0.0,0.0,0.0,0.0,0.0,0.0,0.0,0.0,0.0,0.0,0.0,0.0,0.0,0.0,0.0,0.0,0.0,0.0,0.0,0.0,0.0,0.0,0.0,0.0,0.0,0.0,0.0,0.0,0.0,0.0,0.0,0.0,0.0,0.0,0.0,0.0,0.0,0.0,0.0,0.0,0.0,0.0,0.0,0.0,0.0,0.0,0.0,0.0,0.0,0.0,0.0,0.0,0.0,0.0,0.0,0.0,0.0,0.0,0.0,0.0,0.0,0.0,0.0,0.0,0.0,0.0,0.0,0.0,0.0,0.0,0.0,0.0,-1.5154,-1.6,-1.7016,-1.7494,-1.7854,-1.8158,-1.7912,-1.7864,-1.7989,0.0,0.0,0.0,0.0,0.0,0.0,0.0,0.0,0.0,0.0,0.0,0.0,0.0,0.0,0.0,0.0,0.0,0.0,0.0,0.0,0.0,0.0,0.0,0.0,0.0,0.0,0.0,0.0,0.0,0.0,0.0,0.0,0.0,0.0,0.0,0.0,0.0,0.0,-1.0204,-1.0736,0.0,0.0,0.0,0.0,0.0,0.0,0.0,0.0,-0.9413,0.0,0.0,0.0,0.0,0.0,0.0,0.0,0.0,0.0,0.0,0.0,0.0,0.0,0.0,0.0,0.0,0.0,0.0,0.0,0.0,0.0,0.0,0.0,0.0,0.0,0.0,0.0,0.0,0.0,0.0,0.0,0.0,0.0,0.0,0.0,0.0,0.0,0.0,0.0,0.0,0.0,0.0,0.0,0.0,0.0,0.0,0.0,0.0,0.0,0.0,0.0,0.0,0.0,0.0,0.0,0.0,-1.5478,-1.6289,-1.6922,-1.7306,-1.7887,-1.8284,-1.8414,-1.8128,-1.8302,-1.8954,0.0,0.0,0.0,0.0,0.0,0.0,0.0,0.0,0.0,0.0,0.0,0.0,0.0,0.0,0.0,0.0,0.0,0.0,0.0,0.0,0.0,0.0,0.0,0.0,0.0,0.0,0.0,0.0,0.0,0.0,0.0,0.0,0.0,0.0,0.0,0.0,0.0,0.0,0.0,-1.1669,-1.1631,0.0,0.0,0.0,0.0,0.0,0.0,0.0,0.0,-0.9769,0.0,0.0,0.0,0.0,0.0,0.0,0.0,0.0,0.0,0.0,0.0,0.0,0.0,0.0,0.0,0.0,0.0,0.0,0.0,0.0,0.0,0.0,0.0,0.0,0.0,0.0,0.0,0.0,0.0,0.0,0.0,0.0,0.0,0.0,0.0,0.0,0.0,0.0,0.0,0.0,0.0,0.0,0.0,0.0,0.0,0.0,0.0,0.0,0.0,0.0,0.0,0.0,0.0,0.0,0.0,-1.6487,-1.6874,-1.7416,-1.8236,-1.8212,-1.8246,-1.8404,-1.8385,-1.8375,0.0,0.0,0.0,0.0,0.0,0.0,0.0,0.0,0.0,0.0,0.0,0.0,0.0,0.0,0.0,0.0,0.0,0.0,0.0,0.0,0.0,0.0,0.0,0.0,0.0,0.0,0.0,0.0,0.0,0.0,0.0,0.0,0.0,0.0,0.0,0.0,0.0,0.0,0.0,0.0,-1.2394,-1.237,-1.2516,0.0,0.0,0.0,0.0,0.0,0.0,-1.1056,-1.0821,0.0,0.0,0.0,0.0,0.0,0.0,0.0,0.0,0.0,0.0,0.0,0.0,0.0,0.0,0.0,0.0,0.0,0.0,0.0,0.0,0.0,0.0,0.0,0.0,0.0,0.0,0.0,0.0,0.0,0.0,0.0,0.0,0.0,0.0,0.0,0.0,0.0,0.0,0.0,0.0,0.0,0.0,0.0,0.0,0.0,0.0,0.0,0.0,0.0,0.0,0.0,0.0,0.0,0.0,0.0,-1.7384,-1.7394,-1.789,-1.9003,-1.8583,-1.8362,-1.8471,-1.8519,-1.8253,0.0,0.0,0.0,0.0,0.0,0.0,0.0,0.0,0.0,0.0,0.0,0.0,0.0,0.0,0.0,0.0,0.0,0.0,0.0,0.0,0.0,0.0,0.0,0.0,0.0,0.0,0.0,0.0,0.0,0.0,0.0,0.0,0.0,0.0,0.0,0.0,0.0,0.0,0.0,0.0,0.0,-1.3101,-1.3509,-1.3278,0.0,0.0,0.0,0.0,-1.2584,-1.2385,0.0,0.0,0.0,0.0,0.0,0.0,0.0,0.0,0.0,0.0,0.0,0.0,0.0,0.0,0.0,0.0,0.0,0.0,0.0,0.0,0.0,0.0,0.0,0.0,0.0,0.0,0.0,0.0,0.0,0.0,0.0,0.0,0.0,0.0,0.0,0.0,0.0,0.0,0.0,0.0,0.0,0.0,0.0,0.0,0.0,0.0,0.0,0.0,0.0,0.0,0.0,0.0,0.0,0.0,0.0,0.0,-1.7671,-1.8259,-1.8717,-1.9082,-1.9097,-1.9046,-1.8998,-1.8411,-1.8024,0.0,0.0,0.0,0.0,0.0,0.0,0.0,0.0,0.0,0.0,0.0,0.0,0.0,0.0,0.0,0.0,0.0,0.0,0.0,0.0,0.0,0.0,0.0,0.0,0.0,0.0,0.0,0.0,0.0,0.0,0.0,0.0,0.0,0.0,0.0,0.0,0.0,0.0,0.0,0.0,0.0,-1.3866,-1.4597,-1.4257,-1.4063,0.0,0.0,-1.3736,-1.3673,-1.3723,0.0,0.0,0.0,0.0,0.0,0.0,0.0,0.0,0.0,0.0,0.0,0.0,0.0,0.0,0.0,0.0,0.0,0.0,0.0,0.0,0.0,0.0,0.0,0.0,0.0,0.0,0.0,0.0,0.0,0.0,0.0,0.0,0.0,0.0,0.0,0.0,0.0,0.0,0.0,0.0,0.0,0.0,0.0,0.0,0.0,0.0,0.0,0.0,0.0,0.0,0.0,0.0,0.0,0.0,0.0,-1.6064,-1.7538,-1.855,-1.9179,-1.9425,-1.9429,-1.9372,-1.9283,-1.8971,-1.8559,0.0,0.0,0.0,0.0,0.0,0.0,0.0,0.0,0.0,0.0,0.0,0.0,0.0,0.0,0.0,0.0,0.0,0.0,0.0,0.0,0.0,0.0,0.0,0.0,0.0,0.0,0.0,0.0,0.0,0.0,0.0,0.0,0.0,0.0,0.0,0.0,0.0,0.0,0.0,0.0,0.0,0.0,-1.5351,-1.5186,0.0,0.0,0.0,-1.5113,-1.5225,0.0,0.0,0.0,0.0,0.0,0.0,0.0,0.0,0.0,0.0,0.0,0.0,0.0,0.0,0.0,0.0,0.0,0.0,0.0,0.0,0.0,0.0,0.0,0.0,0.0,0.0,0.0,0.0,0.0,0.0,0.0,0.0,0.0,0.0,0.0,0.0,0.0,0.0,0.0,0.0,0.0,0.0,0.0,0.0,0.0,0.0,0.0,0.0,0.0,0.0,0.0,0.0,0.0,0.0,0.0,0.0,0.0,-1.7559,-1.8816,-1.958,-1.9781,-1.9738,-1.9626,-1.9508,-1.9286,0.0,0.0,0.0,0.0,0.0,0.0,0.0,0.0,0.0,0.0,0.0,0.0,0.0,0.0,0.0,0.0,0.0,0.0,0.0,0.0,0.0,0.0,0.0,0.0,0.0,0.0,0.0,-1.0157,0.0,0.0,0.0,0.0,0.0,0.0,0.0,0.0,0.0,0.0,0.0,0.0,0.0,0.0,-1.4942,-1.6038,-1.6056,-1.5999,0.0,0.0,-1.6389,-1.6539,-1.6687,-1.6514,0.0,0.0,0.0,0.0,0.0,0.0,0.0,0.0,0.0,0.0,0.0,0.0,0.0,0.0,0.0,0.0,0.0,0.0,0.0,0.0,0.0,0.0,0.0,0.0,0.0,0.0,0.0,0.0,0.0,0.0,0.0,0.0,0.0,0.0,0.0,0.0,0.0,0.0,0.0,0.0,0.0,0.0,0.0,0.0,0.0,0.0,0.0,0.0,0.0,0.0,0.0,0.0,0.0,0.0,0.0,-1.8066,-1.9298,-1.9988,-2.0068,-2.001,-1.9909,-1.976,-1.8981,-1.8479,0.0,0.0,0.0,0.0,0.0,0.0,0.0,0.0,0.0,0.0,0.0,0.0,0.0,0.0,0.0,0.0,0.0,0.0,0.0,0.0,0.0,0.0,0.0,0.0,0.0,0.0,0.0,0.0,0.0,0.0,0.0,0.0,0.0,0.0,0.0,0.0,0.0,0.0,0.0,0.0,0.0,-1.5595,-1.6948,-1.6853,-1.6864,0.0,0.0,-1.7534,-1.7412,-1.7907,-1.8089,-1.7358,0.0,0.0,0.0,0.0,0.0,0.0,0.0,0.0,0.0,0.0,0.0,0.0,0.0,0.0,0.0,0.0,0.0,0.0,0.0,0.0,0.0,0.0,0.0,0.0,0.0,0.0,0.0,0.0,0.0,0.0,0.0,0.0,0.0,0.0,0.0,0.0,0.0,0.0,0.0,0.0,0.0,0.0,0.0,0.0,0.0,0.0,0.0,0.0,0.0,0.0,0.0,0.0,0.0,-1.7133,-1.7625,-1.9237,-2.0098,-2.0164,-2.0135,-2.0089,-1.9971,-1.9552,-1.9239,0.0,0.0,0.0,0.0,0.0,0.0,0.0,0.0,0.0,0.0,0.0,0.0,0.0,0.0,0.0,0.0,0.0,0.0,0.0,0.0,0.0,0.0,0.0,0.0,0.0,0.0,0.0,0.0,-1.2914,-1.3162,-1.2696,0.0,0.0,0.0,0.0,0.0,0.0,0.0,0.0,0.0,0.0,-1.6545,-1.7467,-1.7523,0.0,0.0,-1.7799,-1.792,-1.8127,-1.859,-1.8782,-1.8355,-1.8534,0.0,0.0,0.0,0.0,0.0,0.0,0.0,0.0,0.0,0.0,0.0,0.0,0.0,0.0,0.0,0.0,0.0,0.0,0.0,0.0,0.0,0.0,0.0,0.0,0.0,0.0,0.0,0.0,0.0,0.0,0.0,0.0,0.0,0.0,0.0,0.0,0.0,0.0,0.0,0.0,0.0,0.0,0.0,0.0,0.0,0.0,0.0,0.0,0.0,0.0,0.0,0.0,-1.7238,-1.7367,-1.9201,-2.0197,-2.0225,-2.0244,-2.019,-2.0108,-1.9945,-1.9782,0.0,0.0,0.0,0.0,0.0,0.0,0.0,0.0,0.0,0.0,0.0,0.0,0.0,0.0,0.0,0.0,0.0,0.0,0.0,0.0,0.0,0.0,0.0,0.0,0.0,0.0,0.0,0.0,-1.3999,-1.4149,-1.3002,0.0,0.0,0.0,0.0,0.0,0.0,0.0,0.0,0.0,0.0,-1.733,-1.8101,-1.8182,-1.8116,-1.8224,-1.8278,-1.8441,-1.8762,-1.9226,-1.9467,-1.9296,0.0,0.0,0.0,0.0,0.0,0.0,0.0,0.0,0.0,0.0,0.0,0.0,0.0,0.0,0.0,0.0,0.0,0.0,0.0,0.0,0.0,0.0,0.0,0.0,0.0,0.0,0.0,0.0,0.0,0.0,-1.9248,0.0,0.0,0.0,0.0,0.0,0.0,0.0,0.0,0.0,0.0,0.0,0.0,0.0,0.0,0.0,0.0,0.0,0.0,0.0,0.0,0.0,0.0,-1.7435,-1.7528,-1.9345,-2.0285,-2.0285,-2.0285,-2.0241,-2.0115,-2.003,-1.9892,-1.9695,0.0,0.0,0.0,0.0,0.0,0.0,0.0,0.0,0.0,0.0,0.0,0.0,0.0,0.0,0.0,0.0,0.0,0.0,0.0,0.0,0.0,0.0,0.0,0.0,0.0,0.0,-1.4007,-1.404,-1.38,0.0,0.0,0.0,0.0,0.0,0.0,0.0,0.0,0.0,0.0,-1.7502,-1.796,-1.8862,-1.8774,-1.8744,-1.8946,-1.9105,-1.9239,-1.9408,-1.9978,-2.0372,0.0,0.0,0.0,0.0,0.0,0.0,0.0,0.0,0.0,0.0,0.0,0.0,0.0,0.0,0.0,0.0,0.0,0.0,0.0,0.0,0.0,0.0,0.0,0.0,0.0,0.0,0.0,-2.2015,-2.1933,0.0,0.0,0.0,0.0,0.0,0.0,0.0,0.0,0.0,0.0,0.0,-2.1907,-2.1992,0.0,0.0,0.0,0.0,0.0,0.0,0.0,0.0,0.0,0.0,0.0,0.0,-1.7816,-1.845,-1.9673,-2.0306,-2.0296,-2.0304,-2.0273,-2.018,-2.0028,-1.9825,-1.9582,0.0,0.0,0.0,0.0,0.0,0.0,0.0,0.0,0.0,0.0,0.0,0.0,0.0,0.0,0.0,0.0,0.0,0.0,0.0,0.0,0.0,0.0,0.0,0.0,0.0,-1.5489,0.0,0.0,0.0,0.0,0.0,0.0,0.0,0.0,0.0,0.0,0.0,-1.6946,-1.7777,-1.8339,-1.8823,-1.9239,-1.9674,-1.9949,0.0,0.0,0.0,0.0,0.0,0.0,0.0,0.0,0.0,0.0,0.0,0.0,0.0,0.0,-2.0934,-1.8921,-1.8524,-1.841,-1.8138,0.0,0.0,0.0,0.0,0.0,0.0,0.0,0.0,0.0,0.0,0.0,0.0,0.0,0.0,-2.3256,0.0,-2.3061,0.0,0.0,0.0,0.0,0.0,0.0,0.0,0.0,-2.1876,-2.2399,-2.3023,-2.3073,-2.3103,0.0,-2.2815,-2.1483,0.0,0.0,0.0,0.0,0.0,0.0,0.0,0.0,-1.834,-1.8947,-1.9848,-2.0294,-2.0292,-2.0277,-2.0254,-2.0197,-1.9998,-1.9782,-1.9541,-1.9752,-1.9632,0.0,0.0,0.0,0.0,0.0,0.0,0.0,0.0,0.0,0.0,0.0,0.0,0.0,0.0,0.0,0.0,0.0,0.0,0.0,0.0,0.0,0.0,0.0,-1.6078,0.0,0.0,0.0,0.0,0.0,0.0,0.0,0.0,0.0,-1.5972,-1.7,-1.8069,-1.8815,-1.9364,-1.9723,-1.9745,0.0,0.0,0.0,0.0,0.0,0.0,0.0,-2.3082,-2.3437,-2.3644,-2.3733,-2.3705,-2.3937,-2.402,-2.3849,0.0,0.0,-2.0873,-2.0435,-2.0288,-1.9934,-1.9507,-1.9214,-1.9239,-1.9371,-1.9699,0.0,0.0,0.0,0.0,0.0,0.0,0.0,0.0,-2.4641,-2.469,0.0,-2.4408,0.0,0.0,0.0,0.0,0.0,-2.2273,0.0,0.0,-2.3443,-2.3932,-2.4034,-2.4034,-2.4082,-2.4079,-2.3246,-2.2777,-2.2604,-2.0918,0.0,0.0,0.0,0.0,0.0,0.0,-1.8947,-1.9077,-1.9865,-2.0292,-2.0292,-2.0235,-2.0203,-2.0178,-2.001,-1.983,-1.9684,-2.0307,-2.0295,-1.9426,-1.9969,0.0,0.0,0.0,0.0,0.0,0.0,0.0,0.0,0.0,0.0,0.0,0.0,0.0,0.0,0.0,0.0,0.0,0.0,0.0,0.0,-1.5347,0.0,0.0,0.0,0.0,0.0,0.0,0.0,0.0,0.0,0.0,-1.8082,-1.8088,-1.8706,-2.0184,0.0,0.0,0.0,0.0,-2.2113,-2.1863,-2.2484,-2.303,-2.3348,-2.3623,-2.383,-2.3984,0.0,0.0,-2.4182,-2.4756,-2.502,-2.4346,-2.4454,-2.4283,-2.3364,-2.3118,-2.2838,-2.2068,-2.1678,-2.1564,-2.1725,-2.1743,-2.1968,-2.7518,0.0,0.0,0.0,0.0,-2.6758,-2.6982,-2.7396,-2.7084,-2.704,-2.7155,-2.6237,0.0,0.0,0.0,0.0,0.0,0.0,-2.2802,-2.3481,-2.3774,-2.43,-2.4985,-2.4947,-2.4966,-2.5018,-2.4715,-2.4226,-2.3592,-2.2431,-2.1129,-1.9725,0.0,0.0,0.0,0.0,-1.9277,-1.9904,-2.0181,-2.0296,-2.0289,-2.0222,-2.0173,-2.0058,-1.9952,-2.0101,-2.0513,-2.0681,-2.0889,-2.1064,-2.0584,0.0,0.0,0.0,0.0,0.0,0.0,0.0,0.0,0.0,0.0,0.0,0.0,0.0,0.0,0.0,0.0,0.0,0.0,0.0,-1.6312,-1.7248,-1.7903,0.0,0.0,0.0,0.0,0.0,0.0,0.0,0.0,0.0,-2.0693,-1.9823,-1.9401,0.0,0.0,-2.0361,-2.0549,-2.1455,-2.2231,-2.2576,-2.3458,0.0,-2.4927,-2.5266,-2.548,-2.5586,-2.573,-2.5807,-2.5807,-2.6098,-2.6289,-2.6006,-2.6058,-2.5959,-2.5436,-2.4814,-2.4321,-2.4023,-2.3723,-2.3469,-2.3551,-2.3761,-2.4031,-2.9713,-2.9178,-2.8553,-2.8286,-2.8255,-2.8208,-2.8374,-2.8647,-2.8275,-2.8066,-2.7942,-2.7016,-2.6071,-2.5091,-2.4574,0.0,0.0,0.0,-2.3843,-2.4408,-2.44,-2.4752,-2.5341,-2.5322,-2.5332,-2.5387,-2.5322,-2.4841,-2.3976,-2.3064,-2.1903,-2.0601,0.0,0.0,-1.9416,-1.946,-1.9907,-2.0708,-2.0438,-2.0422,-2.0724,-2.0336,-2.0077,-1.996,-1.9896,-2.0189,-2.0863,-2.084,-2.1108,-2.176,-2.1167,-2.0572,0.0,0.0,0.0,0.0,0.0,0.0,0.0,0.0,0.0,0.0,0.0,-1.8341,0.0,0.0,0.0,0.0,-1.7356,-1.7475,-1.7946,-1.8713,0.0,0.0,0.0,0.0,0.0,0.0,0.0,-2.1278,-2.1239,-2.1384,-2.1937,-2.102,-2.0566,-2.1195,-2.1392,-2.1485,-2.1268,0.0,-2.3139,-2.3104,-2.4094,-2.5001,-2.5525,-2.5955,-2.6326,-2.65,-2.6539,-2.6645,-2.6645,-2.6509,-2.6402,-2.6387,-2.6439,-2.6426,-2.6182,-2.5912,-2.5584,-2.5179,-2.482,-2.4681,-2.4876,-2.5032,-2.5147,-3.0792,-3.0681,-2.9152,-2.8488,-2.8411,-2.8398,-2.8787,-2.9349,-2.8541,-2.8124,-2.7926,-2.7015,-2.6091,-2.521,-2.5139,0.0,-2.5113,-2.5113,-2.513,-2.5206,-2.5206,-2.5239,-2.5301,-2.5301,-2.5331,-2.5389,-2.5273,-2.4819,-2.4072,-2.3082,-2.2225,-2.1486,-2.0632,-2.0232,-2.0287,-2.0287,-2.0737,-2.1579,-2.0793,-2.0718,-2.133,-2.047,-1.9964,-1.9903,-1.9818,-2.012,-2.083,-2.0825,-2.1108,-2.1725,-2.166,-2.1097,-2.0077,0.0,0.0,0.0,0.0,0.0,0.0,0.0,0.0,0.0,0.0,0.0,0.0,0.0,0.0,0.0,-1.8462,0.0,-1.9457,-1.9771,0.0,0.0,0.0,-2.2308,-2.2309,-2.2194,-2.2321,-2.2802,0.0,0.0,-2.2406,-2.1896,-2.1914,-2.3102,-2.3289,-2.3044,-2.2322,-2.343,-2.4194,-2.3413,-2.4383,-2.524,-2.5326,-2.5902,-2.6477,-2.6712,-2.6794,-2.6779,-2.6803,-2.6242,-2.585,-2.5872,-2.5864,-2.595,-2.5994,-2.652,-2.6804,-2.5764,-2.5412,-2.5365,-2.5935,-2.5872,-2.5691,-3.0819,-3.0845,-3.0394,-3.0194,-3.0183,-3.0189,-2.9907,-2.9459,-2.9201,-2.8691,-2.7945,-2.7007,-2.6079,-2.521,-2.5168,-2.5168,-2.518,-2.518,-2.518,-2.5203,-2.5203,-2.5206,-2.5241,-2.522,-2.528,-2.5321,-2.5231,-2.508,-2.4778,-2.3346,-2.2795,-2.3038,-2.173,-2.1031,-2.1033,-2.1091,-2.1531,-2.2393,-2.2171,-2.1744,-2.118,-2.0292,-1.9837,-1.9813,-1.9707,-1.9987,-2.0715,-2.0726,-2.1018,-2.1675,-2.1589,-2.106,-2.004,-2.0209,0.0,0.0,0.0,0.0,0.0,0.0,0.0,0.0,0.0,-1.9275,-1.9609,0.0,-1.8966,0.0,-1.8914,-1.9444,-2.0721,-2.0937,0.0,0.0,-2.2403,-2.2752,-2.3342,-2.3289,-2.3381,-2.3856,-2.3583,-2.3421,-2.3574,-2.3003,-2.2829,-2.34,-2.2477,-2.1803,-2.1924,-2.2187,-2.2721,-2.3325,-2.3658,-2.4077,-2.4726,-2.5438,-2.6184,-2.6707,-2.6779,-2.6846,-2.6951,-2.6345,-2.5828,-2.5864,-2.5471,-2.5383,-2.5877,-2.6075,-2.6316,-2.6651,-2.671,-2.6739,-2.7033,-2.6612,-2.6159,-3.0845,-3.0849,-3.083,-3.0788,-3.0778,-3.0388,-2.9927,-2.9416,-2.9013,-2.8272,-2.7343,-2.6379,-2.5699,-2.521,-2.521,-2.521,-2.521,-2.521,-2.521,-2.521,-2.521,-2.5203,-2.5217,-2.5206,-2.5217,-2.525,-2.5184,-2.4927,-2.4472,-2.3553,-2.3094,-2.3069,-2.2211,-2.1981,-2.2303,-2.2007,-2.2288,-2.3138,-2.3056,-2.2552,-2.1658,-2.1065,-2.0605,-2.0274,-2.048,-2.0766,-2.1182,-2.1117,-2.1585,-2.2593,-2.1878,-2.1288,-2.1001,-2.071,-2.0431,0.0,0.0,0.0,0.0,0.0,0.0,0.0,0.0,0.0,0.0,0.0,-2.0624,-2.1439,-2.1296,-2.1507,-2.2341,-2.244,-2.267,-2.3083,-2.345,-2.3817,-2.421,-2.4163,-2.4184,-2.4354,-2.4135,-2.3917,-2.3822,-2.3334,-2.2994,-2.3084,-2.2332,-2.1904,-2.2249,-2.24,-2.2634,-2.3022,-2.3169,-2.3518,-2.434,-2.4976,-2.5487,-2.5821,-2.6075,-2.6176,-2.6262,-2.5683,-2.5179,-2.515,-2.479,-2.4611,-2.499,-2.5247,-2.5537,-2.6065,-2.6276,-2.643,-2.6846,-2.6436,-2.5853,-3.0755,-3.0798,-3.068,-3.0689,-3.0701,-2.9853,-2.9377,-2.9156,-2.8395,-2.7456,-2.636,-2.5554,-2.521,-2.521,-2.521,-2.521,-2.521,-2.521,-2.521,-2.521,-2.521,-2.521,-2.5199,-2.518,-2.518,-2.5164,-2.5101,-2.4683,-2.3933,-2.379,-2.3315,-2.2626,-2.2565,-2.2962,-2.3681,-2.3043,-2.3069,-2.382,-2.3606,-2.3136,-2.2445,-2.2152,-2.1671,-2.1005,-2.1475,-2.1763,-2.173,-2.1607,-2.2134,-2.3381,-2.217,-2.1575,-2.1941,-2.1237,-2.0953,0.0,-2.1201,0.0,0.0,0.0,0.0,0.0,0.0,0.0,0.0,-2.1584,-2.2956,-2.4438,-2.3936,-2.3599,-2.3786,-2.3802,-2.3779,-2.3912,-2.4445,-2.476,-2.4641,-2.4578,-2.4467,-2.4399,-2.4179,-2.3888,-2.3711,-2.326,-2.2859,-2.258,-2.252,-2.248,-2.2831,-2.2949,-2.2861,-2.2626,-2.2824,-2.332,-2.4077,-2.4509,-2.4762,-2.4883,-2.5228,-2.5379,-2.5468,-2.4936,-2.4415,-2.4277,-2.4141,-2.4005,-2.3909,-2.437,-2.4781,-2.5116,-2.5121,-2.5335,-2.6016,-2.5753,-2.5176,-3.0228,-3.0739,-3.0037,-3.0135,-3.0653,-2.9788,-2.8975,-2.8248,-2.8034,-2.6998,-2.5488,-2.5291,-2.521,-2.521,-2.521,-2.521,-2.521,-2.521,-2.521,-2.521,-2.521,-2.5175,-2.5126,-2.5126,-2.5082,-2.4974,-2.4929,-2.4812,-2.4606,-2.399,-2.3893,-2.4231,-2.3686,-2.3747,-2.4448,0.0,0.0,0.0,-2.386,-2.3356,-2.3104,-2.2359,-2.1906,-2.1697,-2.1586,0.0,-2.1386,-2.1267,-2.1271,-2.1469,-2.1719,0.0,0.0,0.0,0.0,0.0,0.0,0.0,0.0,0.0,0.0,0.0,-2.131,-2.105,-2.1603,-2.248,-2.3155,-2.3462,-2.3222,-2.3285,-2.3838,-2.3732,-2.3873,-2.4365,-2.4108,-2.3842,-2.3826,-2.3389,-2.3179,-2.3702,-2.3582,-2.358,-2.3834,-2.3625,-2.3231,-2.2844,-2.2799,-2.2706,-2.254,-2.2395,-2.2311,-2.2399,-2.268,-2.312,-2.3851,-2.4112,-2.4429,-2.4963,-2.5301,-2.5399,-2.5339,-2.4955,-2.4552,-2.4325,-2.385,-2.3583,-2.3807,-2.3992,-2.421,-2.4781,-2.4571,-2.4552,-2.5393,-2.5099,-2.4609,-3.0427,0.0,-3.0278,-3.0325,0.0,-3.0156,-2.9422,-2.8501,-2.8078,-2.7341,-2.6427,-2.6453,-2.6421,-2.6402,-2.5975,-2.5803,-2.5765,-2.5347,-2.5144,-2.5151,-2.5088,-2.5032,-2.4993,-2.4993,-2.498,-2.4902,-2.4879,-2.4837,-2.4775,-2.4398,-2.4373,-2.4689,-2.4324,-2.4313,-2.4647,-2.4599,-2.4596,-2.4714,-2.4233,-2.3948,-2.3832,-2.3304,-2.2812,-2.2337,-2.2458,0.0,0.0,0.0,0.0,0.0,0.0,0.0,0.0,-2.1893,0.0,-2.1854,-2.2062,-2.2291,-2.2475,-2.2099,-2.1886,-2.1955,-2.1875,-2.2036,-2.2521,-2.3298,-2.3822,-2.3806,-2.3606,-2.3475,-2.3475,-2.329,-2.3436,-2.4006,-2.3819,-2.3686,-2.3942,-2.3756,-2.3639,-2.3798,-2.3754,-2.3743,-2.3879,-2.3625,-2.3319,-2.3024,-2.2963,-2.2783,-2.237,-2.2231,-2.2231,-2.2278,-2.2537,-2.2836,-2.3219,-2.3595,-2.3925,-2.4295,-2.4627,-2.4806,-2.4717,-2.452,-2.4265,-2.3941,-2.3585,-2.3363,-2.3356,-2.3426,-2.3482,-2.3743,-2.3644,-2.3652,-2.4172,-2.4058,-2.3941,-3.0613,-3.0684,-3.0541,-3.0542,-3.0593,-3.053,-3.0036,-2.9233,0.0,0.0,0.0,-2.7701,-2.7669,-2.7631,-2.6925,-2.6587,-2.6518,-2.5704,-2.5285,-2.5285,-2.5023,-2.4902,-2.4869,-2.4874,-2.4874,-2.4861,-2.4808,-2.4779,-2.4779,-2.4719,-2.4692,-2.4692,-2.4692,-2.4645,-2.4566,-2.4408,-2.4408,-2.4513,-2.4464,-2.443,-2.4339,-2.4134,-2.3648,-2.2874,-2.3279,-2.3132,-2.2306,-2.2768,-2.2995,-2.285,-2.2167,-2.2047,-2.259,-2.1926,-2.1769,-2.2309,-2.2282,-2.2202,-2.2228,-2.2053,-2.1857,-2.1573,-2.2229,-2.2784,-2.3099,-2.3967,-2.4511,-2.464,-2.4287,-2.3846,-2.3385,-2.3059,-2.3146,-2.3725,-2.3678,-2.3811,-2.4244,-2.4188,-2.3968,-2.4035,-2.388,-2.383,-2.3809,-2.361,-2.3363,-2.3216,-2.3098,-2.2828,-2.2463,-2.237,-2.237,-2.2324,-2.2615,-2.2797,-2.2918,-2.3246,-2.3538,-2.3701,-2.4016,-2.4166,-2.4024,-2.4024,-2.3882,-2.3598,-2.3407,-2.3201,-2.2978,-2.2946,-2.2888,-2.2888,-2.2888,-2.2947,-2.3037,-2.3171,-2.3305,-3.0068,-3.0639,-2.9887,-2.9977,-3.0615,-3.053,-3.0317,-2.9908,-2.839,-2.7714,-2.7701,-2.7701,-2.7624,-2.7518,-2.7385,-2.73,-2.7209,-2.6432,-2.6039,-2.6001,-2.5262,-2.4861,-2.4808,-2.4808,-2.4779,-2.4719,-2.4723,-2.4723,-2.4723,-2.4707,-2.4695,-2.4613,-2.4596,-2.4549,-2.4411,-2.4248,-2.4154,-2.4173,-2.421,-2.421,-2.4133,-2.3937,-2.372,-2.3505,-2.3369,-2.3188,-2.2905,-2.2867,-2.2773,-2.2659,-2.2582,-2.2529,-2.2443,-2.2385,-2.2313,-2.2321,-2.2282,-2.2524,-2.3055,-2.2521,-2.1949,-2.1528,-2.2069,-2.2701,-2.3243,-2.4165,-2.4919,-2.5196,-2.4435,-2.4112,-2.4438,-2.3811,-2.3624,-2.4247,-2.3904,-2.3663,-2.3779,-2.3212,-2.2963,-2.3431,-2.332,-2.3473,-2.3891,-2.3897,-2.3754,-2.3566,-2.3304,-2.3142,-2.2859,-2.2601,-2.2477,-2.2555,-2.2918,-2.3231,-2.3363,-2.3581,-2.3797,-2.394,-2.4109,-2.4234,-2.4024,-2.4109,-2.4009,-2.3596,-2.3407,-2.3201,-2.2933,-2.2872,-2.2826,-2.2857,-2.2888,-2.2888,-2.2933,-2.2978,-2.3068,-3.0372,-3.0659,-3.027,-3.0277,-3.0549,-3.0428,-3.0305,-3.0099,-2.9327,-2.9003,-2.9003,-2.9003,-2.8941,-2.8776,-2.8339,-2.812,-2.807,-2.721,-2.6571,-2.6136,-2.571,-2.5213,-2.4772,-2.4734,-2.4719,-2.4689,-2.4673,-2.4676,-2.4663,-2.4645,-2.4596,-2.4495,-2.4373,-2.4284,-2.4172,-2.3979,-2.3878,-2.3834,-2.3919,-2.3958,-2.3896,-2.3703,-2.3491,-2.3348,-2.3109,-2.2952,-2.279,-2.2703,-2.2605,-2.2542,-2.2569,-2.2542,-2.246,-2.2487,-2.2432,-2.231,-2.2327,-2.2389,-2.2517,-2.2056,-2.1664,-2.1371,-2.194,-2.2568,-2.3189,-2.4007,-2.4394,-2.4289,-2.4069,-2.3967,-2.3844,-2.3484,-2.3465,-2.3942,-2.3748,-2.3717,-2.3909,-2.3674,-2.3517,-2.3728,-2.3733,-2.3773,-2.3979,-2.394,-2.3882,-2.3696,-2.348,-2.326,-2.3216,-2.3098,-2.3008,-2.3008,-2.326,-2.348,-2.3668,-2.3855,-2.4024,-2.4124,-2.4219,-2.4234,-2.4109,-2.4151,-2.3967,-2.3625,-2.3392,-2.3187,-2.2963,-2.2752,-2.2781,-2.2841,-2.2766,-2.2797,-2.2843,-2.2888,-2.2978,-3.0711,-3.0703,-3.0673,-3.0586,-3.0413,-3.0311,-3.0185,-3.0053,-3.0034,-3.0038,-3.0041,-3.0057,-2.9972,-2.9815,-2.9228,-2.8947,-2.8801,-2.7961,-2.7118,-2.64,-2.611,-2.5515,-2.4748,-2.4676,-2.4676,-2.466,-2.4642,-2.4613,-2.4584,-2.4566,-2.4461,-2.4319,-2.3952,-2.3797,-2.3896,-2.3551,-2.34,-2.3526,-2.3598,-2.3602,-2.358,-2.3389,-2.3193,-2.302,-2.2825,-2.2712,-2.2579,-2.2525,-2.2487,-2.2487,-2.2487,-2.2487,-2.2504,-2.2487,-2.2432,-2.2338,-2.2265,-2.219,-2.2043,-2.1755,-2.16,-2.1698,-2.2098,-2.2575,-2.3064,-2.3718,-2.4063,-2.3815,-2.4026,-2.3968,-2.366,-2.3442,-2.3491,-2.385,-2.3967,-2.4186,-2.4455,-2.4467,-2.44,-2.4333,-2.4291,-2.4177,-2.4109,-2.4009,-2.3967,-2.3839,-2.3625,-2.3494,-2.3553,-2.3553,-2.3509,-2.3494,-2.3566,-2.3696,-2.3839,-2.3982,-2.4124,-2.4193,-2.4234,-2.4234,-2.4208,-2.4109,-2.3925,-2.3696,-2.3451,-2.3231,-2.3008,-2.2768,-2.2706,-2.2721,-2.2721,-2.2721,-2.2797,-2.2797,-2.2888,-3.0707,-3.0692,-3.0634,-3.0449,-3.0235,-3.0147,-3.003,-2.9921,-2.9924,-2.9891,-2.9842,-2.9891,-2.9874,-2.9806,-2.9695,-2.9603,-2.9513,-2.8688,-2.7862,-2.709,-2.6338,-2.5536,-2.4776,-2.4669,-2.458,-2.4512,-2.4459,-2.4426,-2.443,-2.4393,-2.4321,-2.4041,-2.3188,-2.3082,-2.3484,-2.2793,-2.2678,-2.3295,-2.3102,-2.3077,-2.3223,-2.3052,-2.2893,-2.2721,-2.2659,-2.2579,-2.2515,-2.2497,-2.2487,-2.2422,-2.246,-2.2477,-2.2422,-2.2405,-2.2405,-2.2394,-2.2175,-2.2165,-2.2457,-2.2264,-2.2322,-2.277,-2.281,-2.2833,-2.2839,-2.349,-2.4306,-2.4761,-2.458,-2.4457,-2.4828,-2.4473,-2.4431,-2.4914,-2.5041,-2.5153,-2.5107,-2.495,-2.4695,-2.4589,-2.4482,-2.4416,-2.4317,-2.4317,-2.4276,-2.4024,-2.3925,-2.3839,-2.3754,-2.3754,-2.3769,-2.3754,-2.3882,-2.3925,-2.3982,-2.3982,-2.4067,-2.4234,-2.4234,-2.425,-2.4193,-2.4109,-2.3982,-2.3839,-2.3523,-2.3275,-2.3112,-2.2873,-2.2663,-2.2646,-2.2675,-2.2735,-2.2675,-2.2672,-2.2778,-3.0657,-3.064,-3.0559,-3.0417,-3.0196,-3.0138,-3.0003,-2.9841,-2.9841,-2.9808,-2.9737,-2.9755,-2.9755,-2.9738,-2.9738,-2.9719,-2.9664,-2.9326,-2.8689,-2.7866,-2.7474,-2.6598,-2.5317,-2.5152,-2.4892,-2.4411,-2.4356,-2.4284,-2.4209,-2.4075,-2.3937,-2.3852,-2.3358,-2.3222,-2.3335,-2.2935,-2.2852,-2.2977,-2.2868,-2.279,-2.279,-2.2738,-2.2685,-2.2596,-2.2515,-2.246,-2.2432,-2.2432,-2.2432,-2.246,-2.2477,-2.2449,-2.2405,-2.2287,-2.2186,-2.2106,-2.2134,-2.2346,-2.2842,-2.2665,-2.258,-2.2807,-2.3142,-2.3324,-2.3378,-2.4013,-2.4642,-2.4989,-2.4891,-2.4936,-2.5198,-2.5121,-2.5142,-2.5346,-2.5432,-2.5394,-2.5091,-2.4974,-2.4815,-2.463,-2.4605,-2.4539,-2.4441,-2.44,-2.4317,-2.4166,-2.4124,-2.404,-2.394,-2.3925,-2.3882,-2.3839,-2.3839,-2.3882,-2.3882,-2.394,-2.404,-2.4124,-2.4166,-2.4208,-2.4208,-2.4208,-2.4124,-2.4024,-2.3711,-2.3436,-2.3378,-2.2994,-2.2709,-2.2678,-2.2555,-2.2523,-2.2385,-2.2635,-2.288,-3.0615,-3.0597,-3.05,-3.0336,-3.0147,-3.0079,-2.994,-2.979,-2.9792,-2.9738,-2.9664,-2.9645,-2.9645,-2.9626,-2.9645,-2.9683,-2.9645,-2.9626,-2.9082,-2.8257,-2.8143,-2.7264,-2.5889,-2.5499,-2.5073,-2.4539,-2.4264,-2.4114,-2.3974,-2.3728,-2.3598,-2.3531,-2.3257,-2.3094,-2.3067,-2.2877,-2.2735,-2.2747,-2.2685,-2.2596,-2.2487,-2.2515,-2.2487,-2.2432,-2.2377,-2.2394,-2.2366,-2.2349,-2.2366,-2.2405,-2.2321,-2.2395,-2.2581,-2.2375,-2.2265,-2.2285,-2.2361,-2.2684,-2.3211,-2.3017,-2.2998,-2.3217,-2.3593,-2.3897,-2.4045,-2.4444,-2.4885,-2.5226,-2.529,-2.5346,-2.5317,-2.547,-2.5486,-2.5394,-2.5454,-2.5378,-2.5075,-2.4958,-2.4895,-2.4751,-2.4686,-2.4605,-2.4539,-2.4441,-2.4317,-2.4234,-2.4223,-2.4246,-2.4268,-2.4243,-2.4245,-2.4309,-2.4369,-2.4145,-2.3917,-2.4038,-2.4094,-2.4073,-2.4189,-2.4356,-2.4216,-2.4124,-2.4124,-2.3982,-2.3782,-2.3653,-2.3523,-2.3157,-2.2799,-2.2709,-2.254,-2.2409,-2.2507,-2.2762,-2.2993,-3.0598,-3.0559,-3.0379,-3.0199,-2.9988,-2.9926,-2.9844,-2.972,-2.972,-2.9664,-2.9588,-2.9531,-2.9491,-2.9433,-2.9549,-2.955,-2.9511,-2.9453,-2.8922,-2.8052,-2.7975,-2.735,-2.6249,-2.5506,-2.5081,-2.4827,-2.4236,-2.3828,-2.371,-2.3471,-2.3313,-2.3277,-2.2564,-2.2391,-2.2815,-2.2382,-2.2125,-2.2718,-2.2723,-2.2573,-2.249,-2.2434,-2.2395,-2.2429,-2.231,-2.231,-2.2282,-2.2225,-2.2197,-2.2197,-2.2082,-2.2308,-2.2926,-2.281,-2.2802,-2.305,-2.3071,-2.3226,-2.3582,-2.3499,-2.363,-2.4219,-2.4312,-2.4451,-2.4492,-2.4611,-2.5045,-2.5806,-2.5837,-2.5652,-2.5362,-2.5477,-2.549,-2.5436,-2.5349,-2.5333,-2.5278,-2.5146,-2.5068,-2.4966,-2.4806,-2.4686,-2.4605,-2.4523,-2.4477,-2.4368,-2.4296,-2.4414,-2.4802,-2.4865,-2.5002,-2.5348,-2.5393,-2.5107,-2.416,-2.4341,-2.4416,-2.4413,-2.4623,-2.4685,-2.423,-2.3925,-2.397,-2.3955,-2.3855,-2.3754,-2.361,-2.3421,-2.3113,-2.2844,-2.2495,-2.2358,-2.2602,-2.2693,-2.2967,-3.0469,-3.0348,-3.0226,-3.0053,-2.9876,-2.9806,-2.97,-2.9569,-2.9569,-2.9531,-2.9491,-2.9453,-2.9392,-2.9272,-2.931,-2.933,-2.9293,-2.9251,-2.8935,-2.8494,-2.8383,-2.7798,-2.6837,-2.6397,-2.5631,-2.473,-2.4343,-2.3898,-2.3395,-2.3193,-2.3102,-2.3182,-2.3274,-2.3406,-2.3553,-2.3786,-2.3919,-2.391,-2.3915,-2.3857,-2.3693,-2.3577,-2.3516,-2.3466,-2.2668,-2.2197,-2.2101,-2.2032,-2.1974,-2.1932,-2.2275,-2.2564,-2.275,-2.2915,-2.3122,-2.3454,-2.3437,-2.3653,-2.4106,-2.4055,-2.4081,-2.4313,-2.4359,-2.4616,-2.504,-2.5164,-2.5512,-2.6217,-2.6475,-2.6388,-2.6251,-2.6118,-2.6029,-2.606,-2.576,-2.5442,-2.5333,-2.524,-2.5162,-2.4902,-2.4742,-2.458,-2.4591,-2.4713,-2.4848,-2.4851,-2.5116,-2.5333,-2.5455,-2.547,-2.5529,-2.5586,-2.56,-2.545,-2.5122,-2.5107,-2.5212,-2.5183,-2.5258,-2.5364,-2.5123,-2.4669,-2.4652,-2.4589,-2.4379,-2.4061,-2.3947,-2.3731,-2.3437,-2.3123,-2.2712,-2.2673,-2.2679,-2.3017,-2.3389,-3.0285,-3.0133,-3.003,-2.9907,-2.9717,-2.9681,-2.9608,-2.9492,-2.9472,-2.9433,-2.9372,-2.933,-2.9098,-2.875,-2.8621,-2.8393,-2.8227,-2.8397,-2.832,-2.7882,-2.7741,-2.742,-2.6934,-2.6561,-2.5977,-2.5173,-2.4821,-2.4392,-2.3937,-2.3737,-2.365,-2.371,-2.4143,-2.4303,-2.4281,-2.4701,-2.4854,-2.4705,-2.4658,-2.4598,-2.443,-2.4257,-2.4097,-2.3883,-2.3069,-2.2554,-2.2521,-2.2446,-2.237,-2.2341,-2.2622,-2.2882,-2.2988,-2.3419,-2.3787,-2.3944,-2.3904,-2.4011,-2.4364,-2.4359,-2.4302,-2.4302,-2.4317,-2.4652,-2.5327,-2.5419,-2.5939,-2.6678,-2.7063,-2.7199,-2.7353,-2.7072,-2.6761,-2.6695,-2.6142,-2.5686,-2.5481,-2.5282,-2.4997,-2.4742,-2.458,-2.4575,-2.4683,-2.494,-2.5131,-2.5256,-2.5697,-2.5893,-2.5993,-2.5991,-2.6048,-2.6102,-2.6188,-2.6217,-2.6083,-2.6158,-2.5729,-2.5644,-2.5871,-2.5978,-2.5845,-2.547,-2.5273,-2.5181,-2.4937,-2.4541,-2.4273,-2.4056,-2.3807,-2.3535,-2.3299,-2.3217,-2.3329,-2.3488,-2.3909,-3.0099,-2.9969,-2.9834,-2.9621,-2.9476,-2.9364,-2.9438,-2.9267,-2.9226,-2.9054,-2.8897,-2.8972,-2.836,-2.7766,-2.7453,-2.6886,-2.6387,-2.6952,-2.6898,-2.6179,-2.6032,-2.6162,-2.6363,-2.5795,-2.568,-2.5887,-2.5474,-2.5118,-2.4873,-2.4746,-2.4717,-2.4833,-2.4827,-2.4876,-2.4722,-2.4906,-2.4846,-2.4836,-2.4856,-2.463,-2.4275,-2.4297,-2.4116,-2.3782,-2.3481,-2.3414,-2.3551,-2.3452,-2.3201,-2.3077,-2.3016,-2.3164,-2.3705,-2.4351,-2.4799,-2.443,-2.4451,-2.4426,-2.4302,-2.4302,-2.4276,-2.4333,-2.4333,-2.4702,-2.5333,-2.5518,-2.6086,-2.7287,-2.7643,-2.7891,-2.842,-2.8076,-2.7525,-2.7135,-2.6451,-2.5983,-2.5759,-2.5262,-2.4789,-2.4694,-2.4704,-2.4698,-2.4989,-2.5284,-2.5499,-2.5742,-2.5935,-2.6111,-2.6381,-2.6421,-2.6653,-2.6908,-2.6944,-2.6781,-2.6967,-2.7115,-2.651,-2.6042,-2.6359,-2.6542,-2.6261,-2.5903,-2.5846,-2.5742,-2.5394,-2.5031,-2.4999,-2.4852,-2.4897,-2.4604,-2.4247,-2.3971,-2.4198,-2.4399,-2.4563,-2.944,-2.9746,-2.9043,-2.8671,-2.8463,-2.794,-2.762,-2.7577,-2.7498,-2.7398,-2.7313,-2.7159,-2.6895,-2.6585,-2.6393,-2.5815,-2.4971,-2.5191,-2.5372,-2.5499,-2.5447,-2.5462,-2.5516,-2.5331,-2.4969,-2.4549,-2.3791,-2.3443,-2.3605,-2.391,-2.4053,-2.4178,-2.5073,-2.5538,-2.549,-2.6002,-2.626,-2.6179,-2.6097,-2.5916,-2.5647,-2.5337,-2.5089,-2.4814,-2.4499,-2.4325,-2.4178,-2.346,-2.3004,-2.2912,-2.3174,-2.3623,-2.4169,-2.4399,-2.4441,-2.4348,-2.4307,-2.4291,-2.425,-2.428,-2.4296,-2.4368,-2.4748,-2.5318,-2.5995,-2.6457,-2.7072,-2.8029,-2.8231,-2.8435,-2.8575,-2.856,-2.8124,-2.7574,-2.6798,-2.6318,-2.6196,-2.5954,-2.5762,-2.563,-2.5645,-2.5708,-2.5743,-2.5971,-2.6195,-2.6354,-2.6632,-2.6902,-2.6899,-2.6864,-2.6952,-2.7203,-2.7167,-2.7167,-2.713,-2.713,-2.6798,-2.6535,-2.6783,-2.6952,-2.6688,-2.6482,-2.6396,-2.6191,-2.5816,-2.5682,-2.5652,-2.5652,-2.5679,-2.557,-2.5136,-2.5087,-2.5249,-2.5275,-2.5191,-2.856,-2.8687,-2.8017,-2.7698,-2.7582,-2.7005,-2.676,-2.6698,-2.6597,-2.6493,-2.6366,-2.6204,-2.5877,-2.5535,-2.5333,-2.4721,-2.3882,-2.3719,-2.3912,-2.433,-2.4382,-2.4441,-2.4653,-2.4925,-2.4781,-2.4224,-2.3687,-2.3408,-2.3425,-2.3824,-2.4006,-2.4151,-2.4917,-2.528,-2.5268,-2.5675,-2.5847,-2.5765,-2.5631,-2.5497,-2.5271,-2.519,-2.5008,-2.4726,-2.4634,-2.4492,-2.4256,-2.356,-2.3181,-2.3258,-2.3575,-2.3968,-2.4287,-2.4261,-2.4284,-2.4487,-2.4521,-2.4612,-2.4841,-2.492,-2.4887,-2.4991,-2.5341,-2.5877,-2.652,-2.7118,-2.7625,-2.8209,-2.8429,-2.8477,-2.8477,-2.8573,-2.8356,-2.7875,-2.7272,-2.6747,-2.6426,-2.6214,-2.6092,-2.594,-2.5986,-2.6153,-2.6379,-2.6479,-2.6819,-2.6912,-2.7119,-2.7299,-2.7196,-2.7115,-2.713,-2.7078,-2.7026,-2.7026,-2.7026,-2.7026,-2.7093,-2.7078,-2.7136,-2.7238,-2.7175,-2.7031,-2.698,-2.6624,-2.6251,-2.6285,-2.6272,-2.6272,-2.6268,-2.6081,-2.6042,-2.5962,-2.5922,-2.5558,-2.5479,-2.7524,-2.7009,-2.6804,-2.6706,-2.6683,-2.6536,-2.6364,-2.6415,-2.6365,-2.618,-2.6059,-2.5931,-2.5426,-2.4672,-2.4392,-2.3833,-2.2989,-2.2815,-2.2796,-2.2848,-2.2919,-2.3212,-2.3698,-2.4207,-2.4379,-2.443,-2.4372,-2.4394,-2.4108,-2.4347,-2.4611,-2.4272,-2.4363,-2.4368,-2.4261,-2.4114,-2.4198,-2.415,-2.405,-2.3866,-2.3573,-2.388,-2.3898,-2.3507,-2.3788,-2.3948,-2.377,-2.3655,-2.3746,-2.3952,-2.3914,-2.3975,-2.4009,-2.4067,-2.4447,-2.4878,-2.4984,-2.5333,-2.5773,-2.5743,-2.5819,-2.5819,-2.5955,-2.6273,-2.6883,-2.7237,-2.759,-2.8125,-2.8299,-2.8299,-2.825,-2.8299,-2.822,-2.7963,-2.7575,-2.7009,-2.6182,-2.6121,-2.621,-2.6057,-2.6029,-2.6272,-2.6748,-2.6756,-2.6892,-2.7149,-2.7203,-2.713,-2.7041,-2.7003,-2.6899,-2.6884,-2.6817,-2.6765,-2.6765,-2.6765,-2.6765,-2.6907,-2.7078,-2.7233,-2.7386,-2.7354,-2.735,-2.701,-2.6789,-2.6793,-2.6856,-2.6904,-2.7025,-2.7094,-2.6986,-2.676,-2.6447,-2.6075,-2.5839,-2.6543,-2.6765,-2.6035,-2.5676,-2.5523,-2.491,-2.459,-2.4574,-2.5,-2.5124,-2.4946,-2.5271,-2.4917,-2.4058,-2.3898,-2.3392,-2.2794,-2.2569,-2.2525,-2.2542,-2.2552,-2.2637,-2.2815,-2.301,-2.3164,-2.3181,-2.321,-2.2983,-2.2994,-2.3448,-2.3499,-2.3362,-2.3717,-2.3836,-2.3736,-2.3571,-2.3653,-2.3602,-2.3517,-2.3347,-2.3119,-2.302,-2.287,-2.2586,-2.2474,-2.2621,-2.2906,-2.3241,-2.3523,-2.3696,-2.3739,-2.3782,-2.387,-2.4321,-2.4655,-2.4911,-2.5349,-2.5666,-2.5847,-2.5923,-2.5908,-2.6031,-2.647,-2.6836,-2.7003,-2.7488,-2.7826,-2.8054,-2.8103,-2.8103,-2.8069,-2.8103,-2.7955,-2.7625,-2.748,-2.7285,-2.7001,-2.7031,-2.6981,-2.6981,-2.707,-2.7145,-2.7136,-2.7075,-2.7047,-2.71,-2.7093,-2.6974,-2.6884,-2.6832,-2.6765,-2.663,-2.6563,-2.6525,-2.6486,-2.6447,-2.65,-2.663,-2.6803,-2.7026,-2.7181,-2.7357,-2.7399,-2.735,-2.7235,-2.721,-2.7394,-2.7519,-2.7745,-2.7725,-2.7395,-2.6965,-2.696,-2.6792,-2.6402,-2.5264,-2.5551,-2.4933,-2.4611,-2.4548,-2.4274,-2.4127,-2.4216,-2.4693,-2.4872,-2.4769,-2.4955,-2.4787,-2.4213,-2.383,-2.3414,-2.2959,-2.2624,-2.2443,-2.2432,-2.2405,-2.2422,-2.2494,-2.246,-2.2422,-2.2405,-2.2304,-2.2209,-2.2161,-2.2382,-2.238,-2.2307,-2.254,-2.2589,-2.2343,-2.2374,-2.2306,-2.2173,-2.2152,-2.2065,-2.1855,-2.1905,-2.1821,-2.166,-2.1588,-2.1879,-2.2399,-2.2728,-2.3052,-2.3448,-2.3566,-2.361,-2.3756,-2.4357,-2.4852,-2.5107,-2.5768,-2.6219,-2.6489,-2.6549,-2.6597,-2.6705,-2.7101,-2.7221,-2.7342,-2.7659,-2.7905,-2.789,-2.7955,-2.7955,-2.789,-2.7806,-2.7705,-2.7539,-2.7284,-2.7144,-2.7144,-2.7188,-2.7284,-2.7299,-2.7401,-2.7488,-2.7335,-2.7167,-2.7093,-2.7003,-2.6951,-2.6779,-2.6659,-2.6592,-2.6371,-2.6083,-2.5863,-2.5686,-2.5576,-2.5523,-2.5799,-2.5987,-2.6265,-2.6533,-2.6886,-2.7174,-2.7372,-2.7444,-2.7509,-2.7575,-2.764,-2.764,-2.7539,-2.7479,-2.733,-2.7155,-2.6975,-2.6513,-2.6279,-2.3985,-2.3955,-2.3834,-2.3768,-2.3894,-2.4367,-2.4551,-2.475,-2.5262,-2.5435,-2.5338,-2.523,-2.5193,-2.4851,-2.4142,-2.3665,-2.3465,-2.2711,-2.2417,-2.2321,-2.2265,-2.2265,-2.236,-2.2304,-2.2265,-2.222,-2.2056,-2.1911,-2.1797,-2.162,-2.1419,-2.1359,-2.1263,-2.1038,-2.1015,-2.0821,-2.0577,-2.0565,-2.0609,-2.0636,-2.0639,-2.0896,-2.1051,-2.1136,-2.1481,-2.178,-2.2142,-2.2436,-2.2789,-2.3526,-2.357,-2.3658,-2.3805,-2.4358,-2.5045,-2.5657,-2.6333,-2.6931,-2.738,-2.743,-2.752,-2.7475,-2.749,-2.756,-2.7565,-2.766,-2.774,-2.774,-2.7855,-2.7806,-2.7725,-2.7444,-2.7232,-2.7181,-2.693,-2.6678,-2.6765,-2.6974,-2.7144,-2.7041,-2.7218,-2.7129,-2.7093,-2.699,-2.6872,-2.6615,-2.6628,-2.6592,-2.6418,-2.6365,-2.5799,-2.5138,-2.4866,-2.4716,-2.4593,-2.4484,-2.4947,-2.5275,-2.5616,-2.5949,-2.6497,-2.6821,-2.7174,-2.7386,-2.7437,-2.7372,-2.7335,-2.7335,-2.7284,-2.6952,-2.6585,-2.6513,-2.644,-2.5662,-2.52,-2.3899,-2.3765,-2.362,-2.3773,-2.407,-2.4147,-2.4444,-2.4955,-2.5547,-2.585,-2.5914,-2.6253,-2.6024,-2.5402,-2.4655,-2.4011,-2.3422,-2.2671,-2.2225,-2.2101,-2.2073,-2.2073,-2.2101,-2.2073,-2.2044,-2.1982,-2.1898,-2.1711,-2.1524,-2.1309,-2.1071,-2.0763,-2.0646,-2.0478,-2.0273,-2.015,-2.001,-1.994,-1.9935,-2.0157,-2.0451,-2.0587,-2.0865,-2.1183,-2.1598,-2.19,-2.2119,-2.2513,-2.317,-2.3743,-2.4025,-2.4115,-2.4325,-2.5183,-2.5853,-2.6183,-2.6798,-2.7324,-2.7545,-2.7575,-2.756,-2.7575,-2.756,-2.756,-2.7575,-2.7444,-2.7458,-2.7488,-2.7503,-2.7419,-2.7309,-2.6615,-2.6506,-2.6578,-2.6174,-2.5907,-2.6318,-2.6712,-2.6899,-2.6872,-2.663,-2.6279,-2.6293,-2.6229,-2.6192,-2.6097,-2.6188,-2.6347,-2.6229,-2.6068,-2.5199,-2.4324,-2.4054,-2.3852,-2.3756,-2.3905,-2.4614,-2.4887,-2.5163,-2.5441,-2.5988,-2.6283,-2.6585,-2.6923,-2.7233,-2.7181,-2.6974,-2.6959,-2.6893,-2.6366,-2.5886,-2.5755,-2.548,-2.4762,-2.4589,-2.3598,-2.3412,-2.3247,-2.3516,-2.3989,-2.424,-2.4677,-2.5373,-2.6002,-2.6279,-2.6333,-2.664,-2.6472,-2.595,-2.5226,-2.4486,-2.3644,-2.2605,-2.2089,-2.1998,-2.194,-2.1882,-2.1869,-2.1764,-2.1705,-2.1744,-2.1622,-2.1413,-2.1182,-2.0877,-2.0597,-2.0361,-2.017,-2.003,-1.9884,-1.9786,-1.9914,-2.008,-2.0057,-2.0326,-2.0812,-2.0896,-2.1083,-2.151,-2.1872,-2.212,-2.2799,-2.3011,-2.3576,-2.4177,-2.4636,-2.4809,-2.4835,-2.5619,-2.6149,-2.6361,-2.6914,-2.7306,-2.7372,-2.7423,-2.7372,-2.7423,-2.7423,-2.7214,-2.7015,-2.6876,-2.6648,-2.647,-2.6401,-2.6367,-2.6382,-2.6285,-2.6061,-2.6112,-2.5805,-2.5773,-2.6328,-2.6606,-2.6553,-2.6549,-2.6455,-2.6148,-2.5995,-2.5835,-2.5897,-2.6007,-2.5987,-2.6082,-2.5671,-2.5355,-2.4463,-2.3676,-2.3326,-2.3067,-2.3014,-2.3411,-2.446,-2.4691,-2.4792,-2.5119,-2.5502,-2.5756,-2.5954,-2.6337,-2.675,-2.6645,-2.6486,-2.6472,-2.6308,-2.581,-2.5339,-2.5053,-2.4747,-2.4399,-2.4496,-2.3276,-2.3177,-2.2998,-2.334,-2.4036,-2.4513,-2.5099,-2.5827,-2.6337,-2.6471,-2.6606,-2.6589,-2.6469,-2.6267,-2.5547,-2.4846,-2.3912,-2.2831,-2.2152,-2.2092,-2.1804,-2.1648,-2.1603,-2.1533,-2.1488,-2.1573,-2.1291,-2.1023,-2.0697,-2.0376,-2.0166,-2.0025,-1.9963,-1.9944,-1.9804,-1.9879,-2.0152,-2.0489,-2.0494,-2.0774,-2.1289,-2.1383,-2.158,-2.2004,-2.2047,-2.239,-2.2991,-2.3212,-2.3521,-2.4353,-2.5013,-2.5228,-2.536,-2.5859,-2.6217,-2.6232,-2.6762,-2.7034,-2.7041,-2.7078,-2.7181,-2.7181,-2.7115,-2.6894,-2.6476,-2.6337,-2.6191,-2.5868,-2.5751,-2.5815,-2.557,-2.5681,-2.5952,-2.6003,-2.5908,-2.606,-2.6538,-2.6578,-2.6294,-2.6199,-2.601,-2.5662,-2.5681,-2.5626,-2.5728,-2.5821,-2.5837,-2.5756,-2.5356,-2.475,-2.3932,-2.3239,-2.291,-2.2794,-2.2738,-2.2941,-2.3962,-2.4411,-2.4523,-2.4786,-2.5106,-2.5397,-2.5633,-2.5849,-2.6082,-2.603,-2.5921,-2.5825,-2.5563,-2.5122,-2.4819,-2.4491,-2.4313,-2.4108,-2.4448,-2.3293,-2.367,-2.3453,-2.4037,-2.5006,-2.4996,-2.5397,-2.6184,-2.6142,-2.6312,-2.6537,-2.6347,-2.6329,-2.6197,-2.5461,-2.4613,-2.3869,-2.2915,-2.2377,-2.2215,-2.181,-2.1455,-2.1408,-2.151,-2.1528,-2.1249,-2.0967,-2.0668,-2.0389,-1.9995,-2.0062,-1.9878,-2.0161,-2.0338,-2.0386,-2.0646,-2.0841,-2.1006,-2.0954,-2.1231,-2.1697,-2.183,-2.2062,-2.2491,-2.2426,-2.2516,-2.2489,-2.256,-2.2715,-2.3322,-2.4056,-2.4555,-2.5013,-2.5959,-2.6331,-2.6243,-2.655,-2.6777,-2.6557,-2.6792,-2.6982,-2.6989,-2.675,-2.6654,-2.648,-2.6318,-2.5977,-2.5963,-2.5934,-2.6078,-2.6483,-2.5827,-2.5891,-2.5983,-2.594,-2.5859,-2.64,-2.6394,-2.6412,-2.6525,-2.5839,-2.512,-2.5228,-2.5339,-2.5404,-2.5451,-2.5467,-2.5481,-2.53,-2.4583,-2.3665,-2.3072,-2.2649,-2.2619,-2.2552,-2.2895,-2.3424,-2.3961,-2.4203,-2.4518,-2.4813,-2.5116,-2.5338,-2.5524,-2.563,-2.5632,-2.5478,-2.5351,-2.5073,-2.4818,-2.442,-2.4023,-2.4129,-2.4346,-2.4669,-2.2863,-2.3266,-2.3073,-2.375,-2.4843,-2.4818,-2.5193,-2.5872,-2.5828,-2.5917,-2.5974,-2.5937,-2.5937,-2.5892,-2.5625,-2.4844,-2.4002,-2.3218,-2.2774,-2.2527,-2.215,-2.1872,-2.1654,-2.1771,-2.1636,-2.1455,-2.1129,-2.0963,-2.0902,-2.0742,-2.0493,-2.0543,-2.0715,-2.0753,-2.0757,-2.0936,-2.1333,-2.1465,-2.1455,-2.16,-2.2191,-2.2128,-2.2317,-2.2635,-2.2636,-2.2693,-2.3045,-2.2896,-2.321,-2.3808,-2.431,-2.4634,-2.5068,-2.5558,-2.6107,-2.5908,-2.6104,-2.6321,-2.6234,-2.6477,-2.6486,-2.6394,-2.6204,-2.5912,-2.5646,-2.5371,-2.5331,-2.5036,-2.5015,-2.4976,-2.4968,-2.5137,-2.5487,-2.583,-2.5802,-2.6127,-2.6621,-2.6313,-2.6564,-2.6873,-2.625,-2.5508,-2.4861,-2.5006,-2.5078,-2.5135,-2.5176,-2.5257,-2.5268,-2.446,-2.354,-2.3175,-2.2907,-2.3182,-2.3247,-2.3536,-2.3675,-2.3966,-2.4141,-2.4466,-2.4615,-2.4993,-2.5104,-2.5158,-2.5189,-2.5461,-2.5428,-2.5421,-2.4971,-2.4623,-2.4458,-2.4365,-2.4434,-2.4645,-2.5036,-2.2575,-2.2963,-2.2916,-2.3647,-2.4684,-2.4705,-2.5125,-2.5659,-2.5594,-2.5681,-2.5778,-2.5594,-2.553,-2.5513,-2.5373,-2.5024,-2.4297,-2.3496,-2.3049,-2.2844,-2.244,-2.2276,-2.2186,-2.21,-2.1899,-2.1779,-2.181,-2.1574,-2.1362,-2.1204,-2.1219,-2.1108,-2.1073,-2.1108,-2.1137,-2.1297,-2.1614,-2.1772,-2.1871,-2.2022,-2.2257,-2.223,-2.2228,-2.2677,-2.2451,-2.2708,-2.3071,-2.3001,-2.3157,-2.3596,-2.4056,-2.4359,-2.4667,-2.5053,-2.5228,-2.5236,-2.546,-2.5773,-2.581,-2.6014,-2.5948,-2.5839,-2.555,-2.5122,-2.4792,-2.4587,-2.4314,-2.3755,-2.3808,-2.4107,-2.4409,-2.4612,-2.5259,-2.5814,-2.6133,-2.6301,-2.6789,-2.6872,-2.6604,-2.6606,-2.6329,-2.6064,-2.5633,-2.5534,-2.5835,-2.5748,-2.5823,-2.5549,-2.5427,-2.4406,-2.3679,-2.338,-2.3353,-2.3857,-2.4218,-2.4541,-2.4584,-2.4646,-2.4806,-2.4968,-2.4906,-2.4881,-2.5062,-2.5268,-2.5421,-2.5666,-2.5563,-2.5434,-2.5047,-2.4841,-2.4745,-2.4797,-2.4937,-2.5256,-2.5663,-2.3077,-2.3637,-2.4067,-2.4742,-2.5319,-2.5195,-2.5635,-2.6195,-2.558,-2.5779,-2.6062,-2.5479,-2.5169,-2.5114,-2.4918,-2.4736,-2.4255,-2.3606,-2.3069,-2.2913,-2.2334,-2.1964,-2.1839,-2.2129,-2.2098,-2.2074,-2.2382,-2.2076,-2.1596,-2.1291,-2.1146,-2.1178,-2.1456,-2.1526,-2.1555,-2.1766,-2.208,-2.2151,-2.2132,-2.2049,-2.1965,-2.215,-2.2173,-2.2108,-2.2168,-2.2296,-2.2279,-2.2283,-2.2385,-2.2424,-2.2915,-2.3041,-2.3016,-2.3444,-2.3699,-2.4177,-2.4846,-2.5598,-2.5159,-2.5301,-2.5424,-2.5213,-2.4946,-2.4667,-2.4349,-2.4138,-2.3984,-2.3992,-2.3971,-2.42,-2.462,-2.5101,-2.5719,-2.618,-2.6503,-2.669,-2.7083,-2.7115,-2.6844,-2.6789,-2.6566,-2.6753,-2.6617,-2.6612,-2.6633,-2.6485,-2.6324,-2.6014,-2.5432,-2.4442,-2.3838,-2.355,-2.3534,-2.3967,-2.4505,-2.4929,-2.5105,-2.5223,-2.5274,-2.5271,-2.5173,-2.5167,-2.5531,-2.5741,-2.5859,-2.5745,-2.562,-2.5382,-2.5153,-2.5127,-2.5161,-2.5338,-2.5501,-2.5866,-2.6131,-2.246,-2.3147,-2.3322,-2.397,-2.4808,-2.4751,-2.4907,-2.5049,-2.4795,-2.4826,-2.503,-2.4704,-2.4451,-2.4338,-2.4048,-2.3849,-2.3719,-2.3366,-2.3091,-2.2918,-2.2494,-2.2248,-2.2149,-2.2161,-2.223,-2.2259,-2.2355,-2.2267,-2.1856,-2.1844,-2.1858,-2.1682,-2.1835,-2.1914,-2.1886,-2.209,-2.2334,-2.2498,-2.2545,-2.2224,-2.1854,-2.1903,-2.1995,-2.1714,-2.1754,-2.1825,-2.1913,-2.2051,-2.229,-2.2561,-2.303,-2.3185,-2.3229,-2.3379,-2.3476,-2.3573,-2.4405,-2.4722,-2.445,-2.4767,-2.4864,-2.4767,-2.4458,-2.4201,-2.3837,-2.3641,-2.3675,-2.3905,-2.4064,-2.4407,-2.488,-2.5146,-2.5621,-2.6109,-2.6509,-2.677,-2.699,-2.7035,-2.6999,-2.6908,-2.6829,-2.6826,-2.6817,-2.664,-2.641,-2.6255,-2.6015,-2.5636,-2.5128,-2.4296,-2.3907,-2.377,-2.3814,-2.3985,-2.4435,-2.4898,-2.5051,-2.5145,-2.5286,-2.5293,-2.5366,-2.5451,-2.5664,-2.5746,-2.5681,-2.5605,-2.5553,-2.5607,-2.5528,-2.5585,-2.5654,-2.5679,-2.5759,-2.5816,-2.6039,-2.1466,-2.2167,-2.2561,-2.3319,-2.423,-2.4177,-2.4242,-2.4295,-2.4097,-2.4043,-2.4033,-2.3887,-2.3668,-2.3523,-2.3275,-2.3128,-2.3039,-2.3083,-2.2904,-2.2754,-2.2663,-2.25,-2.2306,-2.2221,-2.2189,-2.217,-2.2221,-2.2146,-2.2184,-2.2334,-2.2409,-2.2198,-2.1997,-2.2021,-2.2058,-2.2048,-2.2207,-2.2251,-2.243,-2.2075,-2.1445,-2.1703,-2.1875,-2.185,-2.1782,-2.1879,-2.2311,-2.2566,-2.2989,-2.3247,-2.3396,-2.355,-2.3678,-2.3654,-2.364,-2.369,-2.4191,-2.424,-2.4208,-2.4397,-2.4515,-2.4455,-2.4267,-2.4029,-2.3617,-2.3319,-2.3356,-2.3827,-2.3978,-2.4277,-2.4638,-2.4983,-2.5416,-2.5826,-2.62,-2.6493,-2.6752,-2.6649,-2.6477,-2.6304,-2.6198,-2.638,-2.634,-2.6271,-2.6142,-2.6026,-2.5691,-2.5329,-2.4755,-2.4011,-2.391,-2.3804,-2.3777,-2.3952,-2.4515,-2.4849,-2.504,-2.5111,-2.5241,-2.5312,-2.5312,-2.5382,-2.5453,-2.5453,-2.5523,-2.5484,-2.5424,-2.5714,-2.591,-2.5832,-2.5815,-2.5857,-2.5849,-2.5923,-2.591,-2.0167,-2.0774,-2.2343,-2.3361,-2.4048,-2.3909,-2.4172,-2.4416,-2.3863,-2.3821,-2.3895,-2.3421,-2.2934,-2.2785,-2.274,-2.2603,-2.2558,-2.2495,-2.2417,-2.237,-2.231,-2.2217,-2.2152,-2.2119,-2.218,-2.2152,-2.2286,-2.2172,-2.2034,-2.2484,-2.2456,-2.2236,-2.2173,-2.187,-2.1855,-2.2082,-2.1875,-2.1904,-2.2073,-2.1852,-2.1461,-2.1674,-2.2172,-2.2457,-2.2835,-2.322,-2.3586,-2.361,-2.3646,-2.3779,-2.3767,-2.3767,-2.3928,-2.3811,-2.3701,-2.3802,-2.3949,-2.4051,-2.4103,-2.4402,-2.4734,-2.4655,-2.4384,-2.4128,-2.3765,-2.3741,-2.3808,-2.3874,-2.3964,-2.4232,-2.456,-2.4939,-2.5339,-2.5524,-2.5809,-2.5802,-2.6008,-2.5938,-2.5787,-2.5557,-2.5581,-2.5639,-2.5709,-2.5568,-2.5795,-2.5695,-2.5395,-2.5042,-2.4529,-2.3939,-2.3804,-2.3694,-2.3621,-2.3875,-2.455,-2.4706,-2.4683,-2.4826,-2.504,-2.5182,-2.5253,-2.5241,-2.5312,-2.5312,-2.5382,-2.5382,-2.5382,-2.5535,-2.577,-2.584,-2.591,-2.577,-2.5758,-2.5758,-2.5758,-1.9943,-2.0157,-2.1111,-2.2024,-2.2814,-2.3025,-2.3259,-2.3345,-2.3051,-2.2869,-2.2991,-2.2609,-2.2402,-2.2263,-2.2063,-2.2016,-2.1969,-2.203,-2.1963,-2.1902,-2.1855,-2.1841,-2.1876,-2.2063,-2.2097,-2.1987,-2.2344,-2.2465,-2.2124,-2.2539,-2.2558,-2.2409,-2.2393,-2.2447,-2.2429,-2.2192,-2.1988,-2.187,-2.2213,-2.2321,-2.2274,-2.2466,-2.2983,-2.3276,-2.3397,-2.3598,-2.3827,-2.4073,-2.4181,-2.423,-2.4162,-2.4094,-2.3978,-2.3788,-2.3668,-2.3692,-2.3871,-2.4082,-2.4174,-2.4487,-2.4609,-2.4609,-2.4396,-2.4256,-2.3984,-2.3809,-2.3855,-2.3951,-2.4094,-2.4402,-2.4694,-2.4953,-2.5247,-2.5346,-2.5324,-2.53,-2.5217,-2.5146,-2.5004,-2.4802,-2.4743,-2.4754,-2.4754,-2.4779,-2.5098,-2.5438,-2.5075,-2.4743,-2.4177,-2.3751,-2.3604,-2.3457,-2.3372,-2.3519,-2.4116,-2.4189,-2.4261,-2.455,-2.4838,-2.4909,-2.4981,-2.5241,-2.5312,-2.5312,-2.5312,-2.5312,-2.5382,-2.5465,-2.5535,-2.5618,-2.5618,-2.5535,-2.5535,-2.5606,-2.5606,-1.9807,-1.9823,-2.0315,-2.1039,-2.183,-2.23,-2.2449,-2.2402,-2.2278,-2.2123,-2.203,-2.1983,-2.1902,-2.1807,-2.1664,-2.1568,-2.1684,-2.1842,-2.1827,-2.195,-2.2073,-2.2073,-2.2165,-2.2278,-2.2441,-2.2136,-2.245,-2.2708,-2.2218,-2.263,-2.2681,-2.2664,-2.2795,-2.2714,-2.2411,-2.2445,-2.2204,-2.1995,-2.2471,-2.2626,-2.2438,-2.2657,-2.2904,-2.3119,-2.3238,-2.3522,-2.3703,-2.407,-2.433,-2.4354,-2.4354,-2.4284,-2.4026,-2.3781,-2.3582,-2.3652,-2.3816,-2.4202,-2.4342,-2.462,-2.4759,-2.4828,-2.4816,-2.4566,-2.4202,-2.4094,-2.421,-2.4073,-2.4295,-2.4507,-2.4634,-2.4707,-2.4755,-2.4766,-2.4754,-2.4743,-2.4443,-2.4299,-2.4154,-2.4009,-2.3948,-2.3959,-2.3959,-2.4032,-2.4311,-2.4587,-2.4383,-2.4093,-2.3801,-2.3446,-2.3224,-2.315,-2.315,-2.3298,-2.3519,-2.374,-2.397,-2.4261,-2.455,-2.4562,-2.4694,-2.4969,-2.5182,-2.5123,-2.5123,-2.5253,-2.5324,-2.5394,-2.5324,-2.5312,-2.5312,-2.5382,-2.5382,-2.5465,-2.5382,-1.9697,-1.9748,-2.0288,-2.0854,-2.1476,-2.1871,-2.1996,-2.1983,-2.1841,-2.1712,-2.1616,-2.1471,-2.1458,-2.1423,-2.1375,-2.1429,-2.1605,-2.1993,-2.2187,-2.2322,-2.2555,-2.2958,-2.2987,-2.2935,-2.2764,-2.2764,-2.2937,-2.2828,-2.2307,-2.27,-2.2737,-2.2661,-2.2652,-2.2401,-2.1763,-2.1896,-2.1756,-2.1516,-2.2321,-2.207,-2.1843,-2.2019,-2.2315,-2.2576,-2.2935,-2.3409,-2.3723,-2.406,-2.4281,-2.4304,-2.4244,-2.4184,-2.4077,-2.4005,-2.3948,-2.4005,-2.4051,-2.4204,-2.4215,-2.485,-2.5075,-2.5039,-2.4908,-2.4814,-2.472,-2.4672,-2.4412,-2.4042,-2.4195,-2.4241,-2.4261,-2.4261,-2.4273,-2.4273,-2.4261,-2.4105,-2.3875,-2.3655,-2.3582,-2.3582,-2.3434,-2.3298,-2.3287,-2.3361,-2.3593,-2.3666,-2.3519,-2.3383,-2.3298,-2.3224,-2.3075,-2.3075,-2.3001,-2.315,-2.3372,-2.3446,-2.3677,-2.397,-2.4189,-2.42,-2.4345,-2.4562,-2.4706,-2.479,-2.4849,-2.4897,-2.5111,-2.5265,-2.5302,-2.5266,-2.5289,-2.5312,-2.5312,-2.536,-2.542,-1.9454,-1.9341,-1.9927,-2.0201,-2.0422,-2.1247,-2.1568,-2.1458,-2.1251,-2.1153,-2.1131,-2.097,-2.1068,-2.1166,-2.1135,-2.1232,-2.1706,-2.1813,-2.2108,-2.2459,-2.2751,-2.2644,-2.2736,-2.2973,-2.2918,-2.2688,-2.2867,-2.2946,-2.2431,-2.269,-2.2739,-2.2637,-2.2164,-2.1798,-2.1619,-2.1631,-2.1504,-2.1433,-2.1698,-2.1811,-2.1879,-2.2252,-2.2559,-2.2834,-2.3223,-2.3567,-2.375,-2.4002,-2.4105,-2.4116,-2.4116,-2.4043,-2.3897,-2.3824,-2.3824,-2.3824,-2.3835,-2.397,-2.4116,-2.4455,-2.4683,-2.4766,-2.4766,-2.4706,-2.4718,-2.449,-2.4189,-2.3993,-2.4027,-2.4027,-2.3897,-2.4139,-2.415,-2.3909,-2.374,-2.3593,-2.3372,-2.3298,-2.3224,-2.3224,-2.3075,-2.3056,-2.3003,-2.2938,-2.3065,-2.315,-2.3075,-2.3075,-2.3075,-2.3075,-2.3001,-2.3001,-2.3001,-2.3075,-2.315,-2.3298,-2.3298,-2.3519,-2.3666,-2.3813,-2.397,-2.4127,-2.4273,-2.4418,-2.4478,-2.455,-2.48,-2.5001,-2.5189,-2.5309,-2.5288,-2.5708,-2.6093,-2.5961,-2.5697,-1.9727,-1.953,-1.9833,-1.9941,-1.9917,-2.0762,-2.1068,-2.097,-2.0809,-2.0759,-2.0723,-2.0623,-2.0623,-2.0762,-2.0858,-2.0977,-2.155,-2.1903,-2.2098,-2.2496,-2.2674,-2.2721,-2.2819,-2.2853,-2.2802,-2.2598,-2.2736,-2.2908,-2.2256,-2.2482,-2.239,-2.2036,-2.1568,-2.1261,-2.1152,-2.1103,-2.1246,-2.1252,-2.1407,-2.1663,-2.1862,-2.2199,-2.2447,-2.2722,-2.3086,-2.3446,-2.3525,-2.3711,-2.3824,-2.3824,-2.3751,-2.3666,-2.3446,-2.3372,-2.3372,-2.3372,-2.3446,-2.3519,-2.3666,-2.3751,-2.3959,-2.4273,-2.42,-2.4273,-2.4345,-2.4116,-2.3813,-2.3626,-2.392,-2.385,-2.3798,-2.4033,-2.4116,-2.3902,-2.3838,-2.3709,-2.3644,-2.3525,-2.3514,-2.346,-2.3264,-2.3167,-2.2875,-2.2682,-2.2617,-2.2628,-2.2628,-2.2735,-2.2832,-2.2788,-2.2863,-2.2927,-2.2927,-2.2927,-2.3001,-2.3075,-2.3075,-2.3001,-2.3224,-2.3446,-2.3519,-2.3677,-2.3897,-2.4055,-2.4212,-2.4353,-2.4425,-2.4608,-2.4969,-2.5119,-2.5258,-2.5843,-2.6725,-2.6512,-2.5995,-2.0283,-2.0156,-2.0029,-1.9965,-2.0029,-2.0308,-2.051,-2.0573,-2.051,-2.0459,-2.0321,-2.0321,-2.0207,-2.0118,-2.0522,-2.0747,-2.0986,-2.1707,-2.2083,-2.2417,-2.2564,-2.2752,-2.2827,-2.2817,-2.2551,-2.2481,-2.2408,-2.2286,-2.1901,-2.2039,-2.192,-2.1472,-2.1273,-2.0863,-2.0697,-2.083,-2.1008,-2.1061,-2.1259,-2.1501,-2.1743,-2.1793,-2.1996,-2.2231,-2.2518,-2.275,-2.2882,-2.3036,-2.3106,-2.315,-2.3075,-2.3075,-2.3001,-2.3001,-2.3001,-2.3001,-2.3065,-2.3075,-2.3172,-2.3172,-2.342,-2.3857,-2.4101,-2.3915,-2.3864,-2.3925,-2.3835,-2.3676,-2.3819,-2.3842,-2.3831,-2.4172,-2.4425,-2.4357,-2.4357,-2.429,-2.4301,-2.4233,-2.4211,-2.41,-2.391,-2.3713,-2.3235,-2.2913,-2.2688,-2.2587,-2.264,-2.2608,-2.2632,-2.2445,-2.2574,-2.2777,-2.2777,-2.2852,-2.2852,-2.2938,-2.3001,-2.3001,-2.3001,-2.315,-2.3224,-2.332,-2.3457,-2.3689,-2.3943,-2.4005,-2.3891,-2.4204,-2.477,-2.4948,-2.5083,-2.5844,-2.6636,-2.6488,-2.6221,-1.909,-1.9221,-1.9455,-1.942,-1.9158,-1.9186,-1.9436,-1.9862,-1.9772,-1.9708,-1.9695,-1.95,-1.946,-1.9589,-1.9907,-2.0226,-2.0682,-2.1217,-2.168,-2.2007,-2.214,-2.2151,-2.2113,-2.2051,-2.1939,-2.1815,-2.1702,-2.1588,-2.1516,-2.1621,-2.1382,-2.0807,-2.1107,-2.0731,-2.0577,-2.0687,-2.0884,-2.1037,-2.1166,-2.1374,-2.168,-2.1898,-2.1996,-2.2226,-2.251,-2.2706,-2.2815,-2.2925,-2.3045,-2.3001,-2.3012,-2.3012,-2.3001,-2.3001,-2.3001,-2.3001,-2.3001,-2.3012,-2.3056,-2.3329,-2.3601,-2.3765,-2.4116,-2.4247,-2.4214,-2.4083,-2.4117,-2.4051,-2.4071,-2.4213,-2.4301,-2.4519,-2.4705,-2.4738,-2.4738,-2.4658,-2.4577,-2.4497,-2.4486,-2.4315,-2.4132,-2.3892,-2.3435,-2.314,-2.2935,-2.2739,-2.2659,-2.2508,-2.2463,-2.2376,-2.245,-2.2658,-2.2595,-2.2638,-2.2832,-2.2959,-2.3012,-2.3001,-2.2981,-2.3014,-2.311,-2.3185,-2.3183,-2.3282,-2.3512,-2.334,-2.3163,-2.3613,-2.4159,-2.4654,-2.4897,-2.5736,-2.6358,-2.6165,-2.6294,-1.8449,-1.8545,-1.8927,-1.8839,-1.853,-1.8464,-1.8667,-1.8922,-1.904,-1.9028,-1.8963,-1.8804,-1.8869,-1.91,-1.943,-1.9866,-2.0358,-2.0836,-2.1257,-2.1374,-2.1451,-2.1388,-2.1262,-2.1262,-2.121,-2.1146,-2.1019,-2.0955,-2.1031,-2.1307,-2.1207,-2.0798,-2.116,-2.0983,-2.0851,-2.0948,-2.1297,-2.1341,-2.1407,-2.1494,-2.1832,-2.2204,-2.2346,-2.2567,-2.2872,-2.2927,-2.2928,-2.2993,-2.2972,-2.2821,-2.281,-2.2875,-2.28,-2.2777,-2.2916,-2.2959,-2.3241,-2.3296,-2.3416,-2.3787,-2.3874,-2.3981,-2.4295,-2.444,-2.4421,-2.4377,-2.4388,-2.4399,-2.4596,-2.477,-2.4847,-2.4923,-2.5,-2.5076,-2.4995,-2.4914,-2.474,-2.4648,-2.4474,-2.431,-2.4143,-2.3945,-2.3635,-2.345,-2.3163,-2.2807,-2.2514,-2.2332,-2.2342,-2.2341,-2.2457,-2.2662,-2.2481,-2.237,-2.2571,-2.2735,-2.2681,-2.2735,-2.3015,-2.2961,-2.3069,-2.3177,-2.3283,-2.3126,-2.2966,-2.2887,-2.2835,-2.3074,-2.3535,-2.398,-2.424,-2.4535,-2.5206,-2.5716,-2.5917,-1.8222,-1.7903,-1.8325,-1.8344,-1.8084,-1.803,-1.7963,-1.7909,-1.829,-1.8398,-1.8278,-1.8224,-1.8345,-1.8576,-1.8953,-1.9429,-1.9871,-2.0308,-2.0624,-2.0828,-2.0786,-2.0722,-2.0722,-2.0669,-2.0658,-2.0582,-2.0551,-2.0542,-2.0699,-2.1094,-2.1333,-2.0992,-2.1734,-2.1642,-2.1112,-2.1428,-2.1697,-2.18,-2.1826,-2.1955,-2.2244,-2.2459,-2.2567,-2.2917,-2.2972,-2.2907,-2.2842,-2.2883,-2.2945,-2.2555,-2.2339,-2.2433,-2.24,-2.2519,-2.2735,-2.3026,-2.3329,-2.3491,-2.3675,-2.3942,-2.4136,-2.4261,-2.4438,-2.4434,-2.432,-2.4632,-2.4692,-2.4703,-2.4794,-2.4798,-2.4863,-2.4887,-2.4973,-2.5088,-2.5005,-2.4922,-2.4838,-2.4661,-2.4567,-2.4378,-2.4211,-2.4023,-2.3804,-2.3535,-2.3307,-2.2887,-2.2589,-2.2369,-2.2051,-2.2138,-2.2217,-2.2412,-2.211,-2.1948,-2.2244,-2.2288,-2.2216,-2.2314,-2.2667,-2.2939,-2.2924,-2.3187,-2.3524,-2.3049,-2.2655,-2.2664,-2.2675,-2.2879,-2.2906,-2.3093,-2.3317,-2.328,-2.377,-2.4523,-2.5135,-1.7135,-1.6989,-1.7546,-1.7744,-1.7645,-1.7545,-1.7501,-1.7434,-1.7545,-1.7723,-1.781,-1.7833,-1.7834,-1.798,-1.8358,-1.8788,-1.9238,-1.9747,-1.9929,-2.0235,-2.0281,-2.0346,-2.0281,-2.0346,-2.0281,-2.0216,-2.0205,-2.0357,-2.069,-2.1043,-2.1371,-2.1274,-2.1847,-2.1843,-2.1366,-2.1756,-2.202,-2.188,-2.2136,-2.2252,-2.2484,-2.2719,-2.2966,-2.3029,-2.3008,-2.2787,-2.269,-2.2603,-2.23,-2.1809,-2.16,-2.1567,-2.1665,-2.2205,-2.2604,-2.2854,-2.3281,-2.3493,-2.3594,-2.3879,-2.4051,-2.3971,-2.4012,-2.4039,-2.4206,-2.4735,-2.4943,-2.4787,-2.4808,-2.4693,-2.4756,-2.4861,-2.4935,-2.4946,-2.4946,-2.4871,-2.4796,-2.4711,-2.4529,-2.4392,-2.4245,-2.4108,-2.3801,-2.3589,-2.3388,-2.311,-2.2861,-2.2515,-2.1898,-2.1699,-2.158,-2.1606,-2.1412,-2.1395,-2.1703,-2.1737,-2.167,-2.198,-2.2362,-2.2604,-2.2756,-2.2992,-2.3145,-2.2641,-2.231,-2.2363,-2.237,-2.2467,-2.2484,-2.2589,-2.2608,-2.2608,-2.2608,-2.3231,-2.376,-1.628,-1.6333,-1.7004,-1.729,-1.7301,-1.7278,-1.7278,-1.7322,-1.7508,-1.7709,-1.7778,-1.7623,-1.759,-1.771,-1.8005,-1.8511,-1.8905,-1.9277,-1.9725,-2.003,-2.0085,-2.0151,-2.0085,-2.0118,-2.0151,-2.0107,-2.0313,-2.0514,-2.0779,-2.1197,-2.146,-2.1304,-2.1707,-2.2005,-2.16,-2.1827,-2.1914,-2.152,-2.1973,-2.2107,-2.22,-2.2391,-2.2603,-2.2717,-2.2584,-2.2421,-2.2152,-2.1934,-2.1588,-2.1087,-2.0661,-2.0883,-2.1086,-2.1451,-2.1919,-2.2412,-2.2889,-2.3279,-2.3227,-2.3451,-2.3652,-2.3433,-2.3236,-2.3114,-2.2775,-2.3229,-2.3755,-2.368,-2.4033,-2.4074,-2.4149,-2.4231,-2.4413,-2.4509,-2.4433,-2.4262,-2.4272,-2.4186,-2.41,-2.409,-2.3963,-2.379,-2.3491,-2.3124,-2.2921,-2.2659,-2.2501,-2.2059,-2.1526,-2.1078,-2.0943,-2.0866,-2.0698,-2.0656,-2.0893,-2.0988,-2.1012,-2.1393,-2.1928,-2.2375,-2.2681,-2.274,-2.263,-2.2366,-2.2169,-2.2102,-2.2164,-2.2161,-2.211,-2.2078,-2.2087,-2.2078,-2.2078,-2.2167,-2.2599,-1.5681,-1.5918,-1.6644,-1.6955,-1.6955,-1.7155,-1.7222,-1.7298,-1.7712,-1.7919,-1.7897,-1.7581,-1.7679,-1.789,-1.8054,-1.8654,-1.9102,-1.931,-1.9692,-1.9966,-2.0085,-2.026,-2.0238,-2.015,-2.0149,-2.0256,-2.0379,-2.0639,-2.0928,-2.123,-2.1302,-2.1125,-2.1523,-2.204,-2.1584,-2.1432,-2.1562,-2.1071,-2.1085,-2.1039,-2.1278,-2.1665,-2.1899,-2.1982,-2.1816,-2.1556,-2.1259,-2.1098,-2.082,-2.034,-1.9838,-2.0072,-2.0464,-2.0784,-2.123,-2.1675,-2.2295,-2.248,-2.2588,-2.2726,-2.263,-2.2463,-2.2306,-2.1952,-2.1606,-2.1784,-2.2227,-2.258,-2.2931,-2.3193,-2.3357,-2.3454,-2.3627,-2.3724,-2.3647,-2.3657,-2.3657,-2.3657,-2.3667,-2.3677,-2.3503,-2.3329,-2.2969,-2.252,-2.2246,-2.2078,-2.1713,-2.1177,-2.0718,-2.0365,-2.0048,-2.0009,-1.9881,-1.9972,-2.021,-2.0332,-2.0472,-2.0829,-2.129,-2.2072,-2.2592,-2.2496,-2.2409,-2.2271,-2.2092,-2.1975,-2.1817,-2.1872,-2.182,-2.1741,-2.182,-2.1909,-2.182,-2.1909,-2.182,-1.5292,-1.5902,-1.6462,-1.657,-1.6513,-1.6761,-1.6818,-1.6882,-1.747,-1.7685,-1.7685,-1.7931,-1.8051,-1.8021,-1.801,-1.8365,-1.8819,-1.9141,-1.9628,-2.0085,-2.0096,-2.0357,-2.0465,-2.0194,-2.0254,-2.0339,-2.0435,-2.0544,-2.0812,-2.0941,-2.1151,-2.1281,-2.1161,-2.1364,-2.1247,-2.1098,-2.0781,-2.0337,-2.0316,-2.0298,-2.0238,-2.0653,-2.1181,-2.13,-2.121,-2.0935,-2.0802,-2.0569,-2.0199,-1.9632,-1.929,-1.9358,-1.9689,-2.0153,-2.0522,-2.097,-2.1493,-2.1604,-2.1725,-2.1789,-2.1516,-2.1418,-2.1159,-2.0808,-2.0456,-2.0292,-2.0637,-2.0808,-2.1159,-2.1606,-2.1774,-2.1961,-2.2059,-2.2325,-2.2246,-2.2687,-2.296,-2.296,-2.296,-2.2784,-2.2608,-2.2255,-2.1891,-2.1624,-2.1347,-2.1177,-2.0826,-2.0374,-2.0002,-1.9646,-1.9288,-1.9231,-1.9265,-1.9405,-1.9645,-1.9825,-1.9975,-2.0312,-2.0775,-2.1575,-2.2101,-2.2236,-2.2097,-2.1998,-2.1909,-2.1793,-2.1731,-2.1731,-2.1731,-2.1741,-2.1731,-2.1731,-2.1731,-2.1731,-2.1731]}]]